Date StartTime U_cm/s V_cm/s W_cm/s Ustd_cm/s Vstd_cm/s Wstd_cm/s Uvar_(cm/s)^2 Vvar_(cm/s)^2 Wvar_(cm/s)^2 KE_(m/s)^2 TurbulentKE_(m/s)^2 HorizWindSpeed_cm/s FrictionSpeec_cm/s DragCoef SpeedOfSound_m/s SonicTemperature_C Pressure_mb 
08/27/2013  00:00:00      -78.585       17.906      -12.745       23.027       23.561       17.560      530.247      555.118      308.349        0.403        0.070       80.600       17.472        0.047      343.922       20.375      861.451
08/27/2013  00:01:00     -118.352       50.402      -20.828       38.418       34.226       23.868     1475.971     1171.392      569.702        1.010        0.161      128.637       17.683        0.019      344.114       20.703      861.460
08/27/2013  00:02:00      -89.398       48.138       -6.998       41.280       28.356       22.305     1704.070      804.070      497.499        0.668        0.150      101.534       23.706        0.055      344.096       20.671      861.464
08/27/2013  00:03:00     -131.450       86.803      -33.671       31.932       44.943       23.638     1019.669     2019.847      558.750        1.477        0.180      157.524       18.605        0.014      344.064       20.618      861.465
08/27/2013  00:04:00     -130.683      100.183      -28.110       38.598       43.721       27.862     1489.778     1911.568      776.317        1.604        0.209      164.665       24.214        0.022      344.093       20.667      861.462
08/27/2013  00:05:00     -106.766       86.338      -19.426       37.985       57.280       31.626     1442.833     3281.015     1000.195        1.248        0.286      137.308       33.546        0.060      344.041       20.577      861.454
08/27/2013  00:06:00     -121.637       43.951       -5.249       36.942       34.374       24.212     1364.701     1181.602      586.227        0.994        0.157      129.334       20.079        0.024      344.090       20.662      861.448
08/27/2013  00:07:00     -125.049       30.892      -13.869       52.433       39.669       26.703     2749.244     1573.630      713.074        1.091        0.252      128.808       26.760        0.043      344.021       20.545      861.439
08/27/2013  00:08:00     -135.278       37.071       -8.435       39.727       27.969       24.511     1578.269      782.245      600.801        1.135        0.148      140.265       20.966        0.022      344.090       20.662      861.432
08/27/2013  00:09:00     -117.143       22.434      -17.630       32.448       54.414       22.389     1052.843     2960.907      501.281        0.952        0.226      119.271       15.540        0.017      344.092       20.666      861.421
08/27/2013  00:10:00      -97.022       35.457      -18.299       35.352       64.811       37.239     1249.768     4200.463     1386.751        0.892        0.342      103.298       23.885        0.053      344.076       20.639      861.423
08/27/2013  00:11:00     -145.347      -10.054      -15.492       44.576       28.170       19.997     1987.019      793.566      399.884        1.232        0.159      145.694       13.160        0.008      344.103       20.683      861.414
08/27/2013  00:12:00     -108.928      -13.112       -7.626       41.294       29.913       21.137     1705.156      894.777      446.756        0.757        0.152      109.714       19.276        0.031      344.053       20.601      861.409
08/27/2013  00:13:00      -82.211       29.003      -13.236       25.665       32.366       15.821      658.671     1047.528      250.311        0.487        0.098       87.177       13.694        0.025      344.028       20.556      861.411
08/27/2013  00:14:00      -74.949      -18.916      -10.114       31.952       25.128       15.049     1020.945      631.399      226.480        0.398        0.094       77.299       14.455        0.035      343.979       20.470      861.416
08/27/2013  00:15:00      -98.591      -32.247        0.520       42.483       28.609       16.857     1804.826      818.478      284.169        0.683        0.145      103.731       20.572        0.039      343.942       20.410      861.418
08/27/2013  00:16:00     -106.948      -12.962       -7.217       31.397       32.432       21.521      985.758     1051.860      463.148        0.708        0.125      107.730       17.626        0.027      343.951       20.423      861.419
08/27/2013  00:17:00      -69.373       25.380       -5.697       39.919       48.108       20.978     1593.510     2314.385      440.067        0.492        0.217       73.870        8.994        0.015      343.905       20.346      861.422
08/27/2013  00:18:00     -120.276      -41.547      -11.163       29.927       27.301       17.133      895.603      745.370      293.532        0.913        0.097      127.249        6.948        0.003      343.900       20.338      861.432
08/27/2013  00:19:00     -122.164      -45.981       -1.935       38.959       47.065       26.043     1517.782     2215.109      678.255        1.073        0.221      130.531       23.112        0.031      343.833       20.222      861.431
08/27/2013  00:20:00     -140.774      -34.163       -8.491       33.158       29.176       19.865     1099.455      851.236      394.628        1.170        0.117      144.860       14.725        0.010      343.898       20.336      861.434
08/27/2013  00:21:00     -162.144       -0.901      -20.850       37.852       32.768       17.745     1432.808     1073.751      314.895        1.477        0.141      162.146       14.287        0.008      343.882       20.307      861.449
08/27/2013  00:22:00     -125.769      -24.342      -18.863       33.386       28.472       16.478     1114.612      810.644      271.523        0.948        0.110      128.103       17.584        0.019      343.846       20.244      861.454
08/27/2013  00:23:00     -133.648      -45.308       -5.179       34.268       29.819       20.484     1174.297      889.195      419.591        1.121        0.124      141.119       21.386        0.023      343.756       20.090      861.464
08/27/2013  00:24:00     -143.590      -17.397      -13.324       30.673       30.901       19.802      940.853      954.865      392.135        1.169        0.114      144.640       16.963        0.014      343.742       20.068      861.459
08/27/2013  00:25:00     -133.873      -21.768       -9.052       38.197       34.385       20.937     1459.035     1182.321      438.359        1.078        0.154      135.632       18.136        0.018      343.701       19.998      861.457
08/27/2013  00:26:00     -145.638      -23.936       -8.685       29.952       31.270       19.310      897.115      977.786      372.867        1.205        0.112      147.592       17.603        0.014      343.737       20.058      861.451
08/27/2013  00:27:00     -103.494      -32.811       -4.034       32.731       26.806       15.949     1071.330      718.570      254.358        0.692        0.102      108.571       15.125        0.019      343.746       20.073      861.445
08/27/2013  00:28:00      -88.643      -30.387      -10.323       36.173       25.196       23.518     1308.493      634.824      553.086        0.569        0.125       93.707       24.725        0.070      343.707       20.007      861.441
08/27/2013  00:29:00     -121.688      -42.592       -8.166       28.158       19.052       17.131      792.901      362.989      293.460        0.907        0.072      128.927       12.273        0.009      343.703       20.003      861.437
08/27/2013  00:30:00      -91.992      -27.967       -0.457       34.014       34.800       14.507     1156.980     1211.070      210.462        0.591        0.129       96.149        9.478        0.010      343.670       19.942      861.449
08/27/2013  00:31:00      -85.555       -8.741       -6.947       38.634       27.953       22.017     1492.610      781.365      484.748        0.510        0.138       86.000       18.841        0.048      343.598       19.822      861.435
08/27/2013  00:32:00     -102.324      -20.136      -13.061       25.996       20.614       15.335      675.767      424.926      235.163        0.619        0.067      104.287       13.281        0.016      343.613       19.849      861.430
08/27/2013  00:33:00     -107.260      -39.339      -18.965       18.614       20.462       16.156      346.498      418.687      261.001        0.722        0.051      114.246       10.578        0.009      343.595       19.816      861.435
08/27/2013  00:34:00     -107.125      -43.029       -2.672       17.374       25.415       17.281      301.862      645.933      298.633        0.729        0.062      115.444       11.636        0.010      343.611       19.842      861.439
08/27/2013  00:35:00     -108.957       -1.071       -6.561       24.536       31.108       17.365      601.993      967.713      301.545        0.689        0.094      108.962       11.518        0.011      343.574       19.781      861.437
08/27/2013  00:36:00     -147.161        1.754      -17.987       31.599       27.999       16.008      998.521      783.954      256.269        1.201        0.102      147.171       14.541        0.010      343.602       19.828      861.452
08/27/2013  00:37:00     -139.710       12.439      -13.895       29.417       25.636       19.169      865.338      657.225      367.445        1.088        0.095      140.263       19.023        0.018      343.665       19.938      861.468
08/27/2013  00:38:00     -110.307       -5.772       -7.777       31.401       37.263       20.656      986.036     1388.520      426.658        0.753        0.140      110.458       11.746        0.011      343.716       20.022      861.469
08/27/2013  00:39:00     -154.080       15.814      -22.557       29.818       18.308       16.976      889.088      335.170      288.175        1.301        0.076      154.890       12.790        0.007      343.644       19.899      861.470
08/27/2013  00:40:00     -113.443        5.095      -16.975       33.141       26.470       18.135     1098.356      700.664      328.865        0.766        0.106      113.557       18.049        0.025      343.587       19.802      861.468
08/27/2013  00:41:00      -94.538      -12.665       -2.859       28.514       35.645       18.791      813.070     1270.600      353.087        0.577        0.122       95.383       14.957        0.025      343.560       19.757      861.468
08/27/2013  00:42:00     -155.491      -18.484      -12.421       45.928       23.386       20.709     2109.391      546.918      428.844        1.388        0.154      156.586       16.776        0.011      343.617       19.853      861.471
08/27/2013  00:43:00     -142.889       -6.932       -9.704       28.590       30.320       18.617      817.408      919.311      346.591        1.132        0.104      143.057       13.078        0.008      343.587       19.803      861.477
08/27/2013  00:44:00     -140.767        3.642      -18.359       31.140       17.607       18.222      969.683      310.012      332.035        1.089        0.081      140.815       20.167        0.021      343.577       19.786      861.484
08/27/2013  00:45:00      -99.040       -9.526       -8.423       28.000       23.254       13.977      783.999      540.764      195.347        0.575        0.076       99.497       13.841        0.019      343.521       19.692      861.484
08/27/2013  00:46:00     -146.878        1.698      -13.635       30.490       27.280       18.349      929.638      744.218      336.702        1.189        0.101      146.887       14.185        0.009      343.545       19.731      861.470
08/27/2013  00:47:00     -117.044       -2.907       -5.135       45.808       32.798       24.000     2098.348     1075.680      575.982        0.874        0.188      117.080       25.382        0.047      343.438       19.551      861.460
08/27/2013  00:48:00     -140.527      -14.233      -15.775       28.572       26.508       16.869      816.336      702.686      284.548        1.100        0.090      141.246       15.628        0.012      343.466       19.597      861.447
08/27/2013  00:49:00      -99.878      -31.001       -3.100       26.038       41.389       17.217      677.971     1713.083      296.426        0.682        0.134      104.579       10.048        0.009      343.402       19.490      861.433
08/27/2013  00:50:00     -115.556      -22.964       -5.009       42.263       35.615       22.278     1786.135     1268.397      496.298        0.873        0.178      117.816       21.352        0.033      343.450       19.570      861.440
08/27/2013  00:51:00     -146.118      -10.678       -9.706       45.989       26.780       18.954     2114.978      717.161      359.252        1.237        0.160      146.507       21.646        0.022      343.406       19.493      861.441
08/27/2013  00:52:00     -118.198      -23.248      -10.514       27.383       22.655       16.516      749.807      513.236      272.769        0.808        0.077      120.463       15.695        0.017      343.380       19.453      861.447
08/27/2013  00:53:00     -121.483      -19.737       -7.586       26.352       24.740       20.511      694.411      612.078      420.701        0.847        0.086      123.075       17.167        0.019      343.433       19.539      861.449
08/27/2013  00:54:00     -119.594       -1.705       -9.499       26.622       24.358       14.257      708.730      593.318      203.260        0.795        0.075      119.606       12.009        0.010      343.423       19.524      861.456
08/27/2013  00:55:00     -133.482       18.326      -14.979       19.203       23.239       14.365      368.743      540.070      206.348        0.975        0.056      134.734        8.633        0.004      343.425       19.527      861.468
08/27/2013  00:56:00     -132.774       42.484      -12.137       26.628       18.472       15.360      709.031      341.219      235.916        1.043        0.064      139.405        7.888        0.003      343.388       19.464      861.475
08/27/2013  00:57:00     -143.940        1.912      -16.149       22.773       26.959       15.419      518.624      726.799      237.743        1.123        0.074      143.953        9.900        0.005      343.404       19.492      861.469
08/27/2013  00:58:00     -158.432       13.831      -17.040       21.467       18.960        9.997      460.828      359.494       99.950        1.325        0.046      159.035        3.178        0.000      343.434       19.543      861.463
08/27/2013  00:59:00     -118.781        1.579      -10.745       43.901       21.465       16.137     1927.283      460.748      260.418        0.844        0.132      118.791       19.091        0.026      343.382       19.455      861.459
08/27/2013  01:00:00     -147.725        0.880      -15.577       19.006       15.978       12.266      361.234      255.304      150.466        1.142        0.038      147.727       10.585        0.005      343.435       19.545      861.458
08/27/2013  01:01:00      -90.724        3.874       -6.439       39.205       22.189       14.221     1537.031      492.333      202.244        0.526        0.112       90.807       16.591        0.033      343.364       19.424      861.461
08/27/2013  01:02:00      -94.440      -35.735       -4.731       27.053       13.571       13.460      731.885      184.159      181.178        0.566        0.055      100.974       13.209        0.017      343.310       19.332      861.452
08/27/2013  01:03:00     -105.253      -48.308       -7.776       19.569       22.108       15.697      382.928      488.757      246.408        0.730        0.056      115.810       11.973        0.011      343.329       19.365      861.437
08/27/2013  01:04:00     -114.789      -34.271       -9.438       20.639       15.245       11.764      425.970      232.418      138.393        0.762        0.040      119.796        5.847        0.002      343.366       19.427      861.428
08/27/2013  01:05:00     -102.630      -10.578       -5.015       28.787       30.422       16.255      828.709      925.498      264.224        0.634        0.101      103.174       13.405        0.017      343.434       19.543      861.430
08/27/2013  01:06:00      -86.950      -39.613       -0.132       31.270       22.165       18.516      977.841      491.281      342.858        0.547        0.091       95.548       16.111        0.028      343.428       19.533      861.428
08/27/2013  01:07:00      -69.865      -21.964        2.219       25.532       29.611       15.294      651.897      876.796      233.900        0.357        0.088       73.236       10.411        0.020      343.423       19.524      861.429
08/27/2013  01:08:00      -82.455      -12.280       -4.199       28.001       17.244       13.049      784.072      297.356      170.271        0.411        0.063       83.364       10.952        0.017      343.380       19.449      861.435
08/27/2013  01:09:00      -66.850      -24.182       -1.136       25.155       17.976       15.654      632.772      323.139      245.050        0.313        0.060       71.089       13.903        0.038      343.420       19.519      861.440
08/27/2013  01:10:00      -67.907      -33.815        3.143       26.489       22.009       14.928      701.656      484.386      222.843        0.359        0.070       75.861       13.481        0.032      343.380       19.450      861.447
08/27/2013  01:11:00      -68.280      -26.246        0.876       19.752       18.496       12.527      390.154      342.105      156.918        0.312        0.044       73.151        9.043        0.015      343.347       19.393      861.435
08/27/2013  01:12:00      -47.664      -39.880        1.097       34.472       19.470       14.055     1188.296      379.073      197.550        0.281        0.088       62.147       14.054        0.051      343.401       19.487      861.423
08/27/2013  01:13:00      -80.252      -51.977        0.777       25.024       18.165       14.788      626.180      329.968      218.685        0.516        0.059       95.614       14.668        0.024      343.448       19.569      861.413
08/27/2013  01:14:00      -82.097      -48.755        0.046       25.116       16.014       15.352      630.830      256.450      235.684        0.512        0.056       95.483       12.429        0.017      343.507       19.666      861.413
08/27/2013  01:15:00      -67.464      -38.656       -1.019       24.791       15.584       12.179      614.593      242.857      148.326        0.353        0.050       77.754        8.533        0.012      343.614       19.849      861.409
08/27/2013  01:16:00      -80.787      -32.908        0.369       22.587       28.854       17.634      510.191      832.579      310.971        0.463        0.083       87.232       11.447        0.017      343.707       20.007      861.398
08/27/2013  01:17:00      -73.426      -69.287       -7.673       26.776       18.309       13.264      716.951      335.218      175.931        0.574        0.061      100.956       11.470        0.013      343.657       19.922      861.390
08/27/2013  01:18:00      -50.828      -46.750        1.802       23.681       25.087       16.970      560.812      629.359      287.976        0.312        0.074       69.059       11.252        0.027      343.478       19.617      861.387
08/27/2013  01:19:00      -19.267      -13.958       10.455       30.608       22.355       13.924      936.855      499.745      193.887        0.115        0.082       23.791       16.754        0.496      343.330       19.364      861.385
08/27/2013  01:20:00      -54.487      -14.827       -3.699       13.541       20.750        9.089      183.364      430.583       82.615        0.195        0.035       56.468        7.335        0.017      343.335       19.375      861.376
08/27/2013  01:21:00      -44.709      -41.182       -0.521       14.458       16.273       10.670      209.023      264.808      113.857        0.214        0.029       60.786        9.808        0.026      343.293       19.303      861.377
08/27/2013  01:22:00      -45.762      -27.055       -1.043       10.677        8.909        4.641      114.002       79.377       21.540        0.152        0.011       53.162        2.999        0.003      343.341       19.387      861.372
08/27/2013  01:23:00      -21.045      -38.978      -15.673       36.868       12.151       18.918     1359.278      147.642      357.902        0.204        0.093       44.297       20.557        0.215      343.228       19.193      861.379
08/27/2013  01:24:00      -19.805      -17.501      -13.583       29.297       17.439       12.280      858.300      304.119      150.805        0.110        0.066       26.430       10.537        0.159      343.155       19.068      861.385
08/27/2013  01:25:00      -17.146      -10.982        3.759       15.915       12.458       12.345      253.298      155.197      152.395        0.049        0.028       20.362       11.128        0.299      343.097       18.967      861.396
08/27/2013  01:26:00       23.502       -4.699       27.017       26.474       20.955       21.395      700.863      439.125      457.743        0.145        0.080       23.967       19.525        0.664      342.665       18.234      861.400
08/27/2013  01:27:00       -7.633       -5.176       10.200       20.886       28.947       14.202      436.212      837.925      201.690        0.083        0.074        9.222       10.677        1.340      342.727       18.340      861.395
08/27/2013  01:28:00      -23.131        0.344        4.527       28.825       18.294       13.284      830.882      334.683      176.466        0.095        0.067       23.133       13.984        0.365      342.841       18.532      861.388
08/27/2013  01:29:00      -54.189        5.378        5.084       32.490       19.959       15.523     1055.575      398.362      240.954        0.234        0.085       54.455       14.849        0.074      343.374       19.440      861.384
08/27/2013  01:30:00      -81.107      -15.303       -1.791       38.991       27.982       17.901     1520.309      782.980      320.446        0.472        0.131       82.539       14.295        0.030      343.415       19.512      861.381
08/27/2013  01:31:00     -133.552      -48.249       -3.007       31.160       22.486       15.744      970.952      505.627      247.881        1.095        0.086      142.001       14.118        0.010      343.392       19.471      861.384
08/27/2013  01:32:00     -104.366      -56.557        3.837       33.069       29.551       17.680     1093.546      873.259      312.597        0.819        0.114      118.705       15.584        0.017      343.373       19.438      861.377
08/27/2013  01:33:00      -79.531      -57.669        0.158       41.529       34.247       22.108     1724.646     1172.890      488.784        0.652        0.169       98.239       13.087        0.018      343.319       19.347      861.373
08/27/2013  01:34:00      -77.671      -55.487        7.496       40.935       33.179       28.204     1675.654     1100.856      795.460        0.637        0.179       95.455       29.737        0.097      343.254       19.237      861.368
08/27/2013  01:35:00      -88.386      -60.610        5.721       43.683       41.474       23.780     1908.235     1720.057      565.496        0.786        0.210      107.171       24.184        0.051      343.384       19.458      861.371
08/27/2013  01:36:00      -61.973      -63.834        4.888       45.193       44.236       28.713     2042.366     1956.860      824.427        0.638        0.241       88.969       29.251        0.108      343.307       19.326      861.359
08/27/2013  01:37:00      -83.955      -69.396       -0.574       53.166       43.244       24.850     2826.609     1870.076      617.511        0.859        0.266      108.924       26.716        0.060      343.278       19.277      861.350
08/27/2013  01:38:00     -112.301      -69.133        1.001       21.795       25.063       15.699      475.034      628.158      246.461        0.937        0.067      131.874       11.343        0.007      343.194       19.134      861.353
08/27/2013  01:39:00     -101.189      -85.713       -1.862       34.763       33.418       21.066     1208.435     1116.785      443.770        1.018        0.138      132.612       15.663        0.014      343.253       19.234      861.353
08/27/2013  01:40:00      -24.842      -24.646       16.192       39.540       32.745       21.694     1563.391     1072.266      470.639        0.230        0.155       34.994       23.495        0.451      343.081       18.942      861.345
08/27/2013  01:41:00      -65.053      -52.076        3.738       44.458       29.966       26.130     1976.526      897.955      682.757        0.526        0.178       83.330       19.222        0.053      343.120       19.008      861.343
08/27/2013  01:42:00      -48.371      -34.882        5.424       36.883       28.893       18.595     1360.319      834.807      345.792        0.306        0.127       59.637       17.758        0.089      343.009       18.818      861.336
08/27/2013  01:43:00      -94.978      -28.343       -2.334       26.396       20.195       12.238      696.761      407.840      149.778        0.554        0.063       99.117        6.798        0.005      342.996       18.796      861.341
08/27/2013  01:44:00      -67.438      -10.761       -3.052       20.798       20.898       14.229      432.550      436.708      202.472        0.287        0.054       68.291        6.143        0.008      342.887       18.610      861.336
08/27/2013  01:45:00      -69.174      -11.573       -0.900       29.447       19.155       14.896      867.128      366.926      221.885        0.319        0.073       70.135       12.556        0.032      342.761       18.396      861.332
08/27/2013  01:46:00      -89.434      -17.796       -1.268       26.192       19.270       15.914      685.999      371.339      253.243        0.481        0.066       91.187       14.759        0.026      342.750       18.378      861.341
08/27/2013  01:47:00     -101.046      -14.657       -5.509       32.467       18.343       19.854     1054.083      336.482      394.174        0.612        0.089      102.104       20.068        0.039      342.751       18.380      861.352
08/27/2013  01:48:00     -120.747      -25.717       -2.598       29.013       24.003       16.848      841.739      576.121      283.844        0.847        0.085      123.455       17.521        0.020      342.824       18.504      861.351
08/27/2013  01:49:00     -103.240      -13.479       -6.907       34.597       20.475       13.731     1196.986      419.226      188.529        0.635        0.090      104.116       11.929        0.013      342.689       18.274      861.340
08/27/2013  01:50:00      -95.019      -14.440       -3.255       45.970       27.757       20.983     2113.211      770.458      440.298        0.629        0.166       96.110       27.480        0.082      342.755       18.385      861.331
08/27/2013  01:51:00      -95.052      -27.097       -3.165       39.879       23.813       20.656     1590.339      567.075      426.652        0.618        0.129       98.839       21.936        0.049      342.634       18.180      861.334
08/27/2013  01:52:00     -132.996      -23.207      -11.277       29.492       30.927       16.764      869.775      956.482      281.032        1.023        0.105      135.005       12.760        0.009      342.630       18.172      861.321
08/27/2013  01:53:00     -137.949      -14.019       -5.285       37.267       33.158       20.262     1388.863     1099.423      410.552        1.108        0.145      138.659       17.244        0.015      342.647       18.202      861.305
08/27/2013  01:54:00     -166.612        9.230      -14.850       38.267       26.846       18.369     1464.339      720.684      337.422        1.529        0.126      166.867       12.603        0.006      342.573       18.077      861.288
08/27/2013  01:55:00     -125.340       18.281      -10.866       53.570       29.223       18.787     2869.700      854.005      352.944        1.012        0.204      126.666       12.867        0.010      342.471       17.904      861.289
08/27/2013  01:56:00      -94.067       26.804       -4.065       52.643       28.505       29.714     2771.288      812.546      882.935        0.702        0.223       97.812       32.231        0.109      342.469       17.901      861.286
08/27/2013  01:57:00     -121.585       35.803      -12.214       39.888       32.521       17.870     1591.045     1057.640      319.345        0.959        0.148      126.747       14.620        0.013      342.616       18.151      861.290
08/27/2013  01:58:00      -60.474       21.798       -2.123       31.774       30.071       18.570     1009.584      904.295      344.849        0.320        0.113       64.282       18.057        0.079      342.487       17.931      861.288
08/27/2013  01:59:00      -73.436        4.077       -7.935       22.915       19.188       13.924      525.091      368.182      193.885        0.328        0.054       73.549       13.976        0.036      342.515       17.980      861.288
08/27/2013  02:00:00      -73.815       -3.424       -6.527       27.379       21.422       13.200      749.590      458.895      174.243        0.344        0.069       73.894       12.665        0.029      342.503       17.958      861.291
08/27/2013  02:01:00      -47.655      -11.859       -0.827       17.821       16.282       10.316      317.593      265.094      106.424        0.155        0.034       49.108        7.071        0.021      342.553       18.042      861.289
08/27/2013  02:02:00      -22.225      -10.236       -3.659       16.234       13.398       10.320      263.546      179.515      106.506        0.058        0.027       24.469        8.342        0.116      342.541       18.024      861.287
08/27/2013  02:03:00      -59.132       -2.908       -7.970       16.104       12.488       11.778      259.337      155.948      138.722        0.206        0.028       59.204        2.277        0.001      342.532       18.008      861.275
08/27/2013  02:04:00      -99.843       -9.150      -14.529       13.418        9.231       10.932      180.049       85.207      119.502        0.532        0.019      100.262        9.211        0.008      342.446       17.861      861.270
08/27/2013  02:05:00      -70.643      -17.036       -8.370       23.403       15.769       12.352      547.690      248.657      152.584        0.315        0.047       72.668       11.170        0.024      342.373       17.737      861.269
08/27/2013  02:06:00      -80.107       -0.737       -9.070       35.325       27.067       17.463     1247.822      732.611      304.956        0.439        0.114       80.110       19.173        0.057      342.370       17.732      861.256
08/27/2013  02:07:00     -107.743      -22.091       -6.386       36.140       25.324       17.689     1306.070      641.305      312.904        0.720        0.113      109.984       18.351        0.028      342.150       17.359      861.246
08/27/2013  02:08:00      -84.798        0.469       -3.948       32.441       21.487       18.430     1052.441      461.689      339.673        0.453        0.093       84.799       17.634        0.043      342.090       17.257      861.246
08/27/2013  02:09:00      -92.244      -18.719       -4.565       30.505       31.666       17.416      930.580     1002.735      303.313        0.556        0.112       94.124       14.711        0.024      342.107       17.284      861.249
08/27/2013  02:10:00      -99.590       -5.797       -5.458       48.156       27.657       22.396     2318.976      764.920      501.567        0.678        0.179       99.758       24.728        0.061      342.026       17.148      861.250
08/27/2013  02:11:00     -100.675      -10.232       -3.476       37.453       32.279       20.833     1402.745     1041.919      434.031        0.656        0.144      101.194       18.704        0.034      341.989       17.084      861.238
08/27/2013  02:12:00      -67.683        0.151        5.877       51.136       30.101       19.420     2614.890      906.056      377.149        0.426        0.195       67.683       24.143        0.127      342.018       17.135      861.225
08/27/2013  02:13:00      -62.138       -7.308        5.368       39.637       34.859       21.214     1571.107     1215.177      450.051        0.359        0.162       62.566       18.096        0.084      342.021       17.140      861.229
08/27/2013  02:14:00      -95.563      -23.007       -9.127       22.167       22.816        9.614      491.393      520.588       92.427        0.542        0.055       98.293        6.078        0.004      342.076       17.233      861.234
08/27/2013  02:15:00      -78.822      -21.054       -6.746       16.636       18.130        9.642      276.745      328.690       92.963        0.370        0.035       81.586        2.122        0.001      342.099       17.275      861.226
08/27/2013  02:16:00      -43.991      -17.975       -6.681       22.789       19.870       12.310      519.341      394.799      151.525        0.168        0.053       47.521        4.408        0.009      342.095       17.265      861.221
08/27/2013  02:17:00     -102.572      -41.417       -3.797       28.045       24.200       15.540      786.543      585.625      241.504        0.693        0.081      110.618       12.635        0.013      342.141       17.344      861.221
08/27/2013  02:18:00     -104.133      -27.622       -2.018       20.516       24.698       14.030      420.903      609.990      196.843        0.642        0.061      107.734       12.542        0.014      342.175       17.402      861.219
08/27/2013  02:19:00     -111.621      -15.689       -3.032       24.014       21.976       13.690      576.664      482.937      187.403        0.698        0.062      112.718       13.757        0.015      342.154       17.364      861.214
08/27/2013  02:20:00     -131.863      -50.114       -4.080       22.959       29.931       16.038      527.116      895.867      257.215        1.080        0.084      141.065       12.955        0.008      342.129       17.322      861.218
08/27/2013  02:21:00     -131.351      -74.530        0.922       40.199       26.500       18.340     1615.928      702.273      336.354        1.273        0.133      151.022       15.080        0.010      342.107       17.285      861.220
08/27/2013  02:22:00     -100.254      -56.829        0.498       34.068       26.930       19.064     1160.659      725.241      363.442        0.776        0.112      115.241       12.874        0.012      342.071       17.224      861.207
08/27/2013  02:23:00      -85.274      -61.636        0.111       34.072       23.608       17.964     1160.914      557.334      322.697        0.656        0.102      105.217       15.630        0.022      342.120       17.305      861.202
08/27/2013  02:24:00      -86.929      -58.252       -4.156       35.038       27.286       17.585     1227.642      744.530      309.246        0.662        0.114      104.642       18.235        0.030      342.196       17.437      861.208
08/27/2013  02:25:00     -104.699      -40.528       -3.241       24.086       22.684       13.321      580.151      514.585      177.452        0.694        0.064      112.269       12.930        0.013      342.193       17.432      861.201
08/27/2013  02:26:00     -108.853      -26.985       -6.877       24.232       24.059       13.299      587.182      578.833      176.874        0.698        0.067      112.148       12.990        0.013      342.135       17.333      861.204
08/27/2013  02:27:00      -94.563      -43.321        0.329       24.039       21.694       17.612      577.880      470.617      310.186        0.609        0.068      104.013       14.592        0.020      342.180       17.409      861.207
08/27/2013  02:28:00      -67.130      -30.411        0.819       34.130       21.291       16.955     1164.855      453.310      287.471        0.367        0.095       73.698       16.724        0.051      342.139       17.339      861.206
08/27/2013  02:29:00      -47.911      -63.365        1.760       35.120       35.447       23.502     1233.447     1256.504      552.328        0.468        0.152       79.439       10.282        0.017      342.107       17.285      861.211
08/27/2013  02:30:00      -81.806      -65.156       -1.759       58.524       29.479       21.905     3425.009      869.040      479.819        0.786        0.239      104.583       22.350        0.046      342.132       17.329      861.223
08/27/2013  02:31:00      -63.021      -55.637        4.347       37.547       32.876       22.003     1409.814     1080.832      484.113        0.503        0.149       84.066       15.661        0.035      342.149       17.355      861.214
08/27/2013  02:32:00      -67.398      -42.792        8.878       35.733       22.562       17.716     1276.846      509.028      313.840        0.428        0.105       79.835       14.585        0.033      342.142       17.345      861.217
08/27/2013  02:33:00      -63.219      -36.733        4.044       33.780       25.486       15.081     1141.070      649.514      227.437        0.369        0.101       73.116       13.303        0.033      342.082       17.244      861.207
08/27/2013  02:34:00      -87.030      -49.006       -0.333       37.351       21.327       16.517     1395.111      454.849      272.818        0.605        0.106       99.879       14.170        0.020      342.030       17.153      861.190
08/27/2013  02:35:00     -113.713      -53.056       -5.875       22.876       20.616       15.771      523.306      425.033      248.737        0.849        0.060      125.481       11.752        0.009      342.033       17.159      861.186
08/27/2013  02:36:00      -98.449      -32.162       -2.932       26.169       26.732       15.478      684.816      714.590      239.570        0.619        0.082      103.570       13.071        0.016      342.036       17.164      861.174
08/27/2013  02:37:00     -122.646      -35.873       -1.471       12.951       16.652        9.803      167.736      277.299       96.103        0.844        0.027      127.785        6.924        0.003      342.060       17.204      861.165
08/27/2013  02:38:00     -114.617      -23.240       -6.826       20.592       15.782       12.086      424.039      249.078      146.059        0.727        0.041      116.949       10.100        0.007      341.968       17.048      861.168
08/27/2013  02:39:00     -100.239      -23.758       -2.718       22.230       17.502       13.638      494.171      306.312      186.001        0.580        0.049      103.016       11.802        0.013      341.954       17.026      861.179
08/27/2013  02:40:00      -73.253      -28.502        0.270       24.990       20.498       14.842      624.516      420.186      220.276        0.372        0.063       78.603       11.742        0.022      342.020       17.138      861.182
08/27/2013  02:41:00      -87.067      -27.634       -5.991       15.093       17.128       11.317      227.793      293.382      128.068        0.451        0.032       91.348        6.483        0.005      342.005       17.113      861.185
08/27/2013  02:42:00      -81.462      -30.149       -0.494       18.139       14.522       10.101      329.041      210.887      102.026        0.409        0.032       86.862        5.764        0.004      341.934       16.991      861.190
08/27/2013  02:43:00      -67.384      -42.705       -4.608       17.333       18.431       11.370      300.418      339.690      129.267        0.358        0.038       79.777        5.617        0.005      341.973       17.058      861.199
08/27/2013  02:44:00      -50.941      -58.382        1.195       28.284       19.899       18.122      799.969      395.956      328.403        0.376        0.076       77.482       12.383        0.026      341.925       16.978      861.200
08/27/2013  02:45:00      -34.695      -30.210        9.548       30.087       19.580       16.967      905.211      383.379      287.881        0.189        0.079       46.004       15.584        0.115      341.918       16.965      861.203
08/27/2013  02:46:00      -73.020      -31.805        5.450       24.820       21.343       15.086      616.023      455.516      227.584        0.384        0.065       79.646       13.425        0.028      341.898       16.929      861.198
08/27/2013  02:47:00      -96.071      -39.317       -8.589       16.243       16.455       12.343      263.838      270.755      152.341        0.577        0.034      103.805       10.918        0.011      341.878       16.895      861.204
08/27/2013  02:48:00     -114.102      -22.260       -7.794       24.555       12.864       13.024      602.946      165.495      169.624        0.726        0.047      116.253        8.805        0.006      341.880       16.899      861.204
08/27/2013  02:49:00     -131.523      -52.174       -5.485       17.508       14.844       12.805      306.520      220.336      163.981        1.037        0.035      141.493       11.876        0.007      341.894       16.924      861.195
08/27/2013  02:50:00     -130.757      -51.426       -9.835       13.729       15.418        9.895      188.488      237.701       97.917        1.018        0.026      140.506        3.914        0.001      341.873       16.887      861.183
08/27/2013  02:51:00     -110.508      -52.294      -10.752       21.107       22.793       12.298      445.504      519.506      151.240        0.809        0.056      122.256       10.125        0.007      341.855       16.858      861.194
08/27/2013  02:52:00      -97.899      -49.117       -5.813       20.556       20.149       16.858      422.556      405.963      284.209        0.657        0.056      109.530       11.929        0.012      341.803       16.769      861.190
08/27/2013  02:53:00      -58.613      -35.281        2.244       30.986       27.642       15.543      960.121      764.077      241.579        0.333        0.098       68.413        9.790        0.020      341.750       16.680      861.185
08/27/2013  02:54:00      -49.280      -26.199        2.874       30.928       17.329       16.033      956.513      300.299      257.066        0.232        0.076       55.812       16.886        0.092      341.748       16.676      861.181
08/27/2013  02:55:00      -75.505      -43.283       -2.493       21.737       21.441       15.224      472.494      459.708      231.773        0.437        0.058       87.031       10.816        0.015      341.782       16.733      861.175
08/27/2013  02:56:00     -110.004      -23.709       -6.451       15.491       17.171       10.377      239.985      294.844      107.689        0.667        0.032      112.530        5.706        0.003      341.749       16.678      861.170
08/27/2013  02:57:00     -105.922      -27.390       -2.957       15.009       12.562       14.491      225.268      157.806      209.994        0.629        0.030      109.406        8.772        0.006      341.721       16.631      861.165
08/27/2013  02:58:00      -90.243      -45.724       -3.726       17.448       13.596        9.580      304.439      184.851       91.782        0.541        0.029      101.166        3.750        0.001      341.765       16.706      861.148
08/27/2013  02:59:00      -33.727      -33.924        8.131       19.671       21.538       18.227      386.963      463.876      332.221        0.177        0.059       47.837       14.944        0.098      341.810       16.782      861.137
08/27/2013  03:00:00      -46.545      -37.965        5.319       35.087       25.445       18.575     1231.130      647.458      345.036        0.293        0.111       60.064       17.138        0.081      341.825       16.807      861.132
08/27/2013  03:01:00      -66.751      -43.820        0.942       39.054       23.258       18.908     1525.200      540.957      357.519        0.440        0.121       79.849       20.929        0.069      341.750       16.679      861.135
08/27/2013  03:02:00     -111.260      -18.577      -14.755       15.895       16.539       12.536      252.652      273.524      157.158        0.681        0.034      112.801        8.110        0.005      341.648       16.508      861.139
08/27/2013  03:03:00     -105.115      -20.475       -4.297       21.541       20.613       15.942      464.017      424.883      254.146        0.631        0.057      107.090       12.860        0.014      341.604       16.433      861.136
08/27/2013  03:04:00     -101.326      -43.760       -3.833       14.849       16.894       11.179      220.492      285.418      124.967        0.641        0.032      110.371        6.606        0.004      341.674       16.551      861.134
08/27/2013  03:05:00      -82.511      -42.643        4.082       32.156       25.088       20.664     1034.014      629.399      426.981        0.537        0.105       92.879       18.194        0.038      341.640       16.493      861.146
08/27/2013  03:06:00     -100.566      -52.097       -0.573       19.711       19.735       15.111      388.538      389.451      228.342        0.692        0.050      113.259       14.734        0.017      341.652       16.515      861.153
08/27/2013  03:07:00     -114.117      -47.368       -5.271       19.724       20.759       10.889      389.043      430.926      118.575        0.812        0.047      123.557       10.061        0.007      341.698       16.592      861.150
08/27/2013  03:08:00     -123.881      -45.588       -4.280       18.149       19.289       13.568      329.392      372.052      184.078        0.916        0.044      132.003        9.996        0.006      341.612       16.446      861.147
08/27/2013  03:09:00     -118.571      -56.204       -2.565       25.538       18.317       13.129      652.196      335.507      172.379        0.919        0.058      131.217        9.447        0.005      341.609       16.439      861.148
08/27/2013  03:10:00     -117.103      -41.202       -2.727       25.690       22.853       17.188      659.961      522.243      295.418        0.845        0.074      124.140       13.518        0.012      341.517       16.285      861.155
08/27/2013  03:11:00     -118.694      -42.054       -4.224       28.848       25.928       13.748      832.209      672.280      189.013        0.878        0.085      125.924       13.534        0.012      341.522       16.292      861.162
08/27/2013  03:12:00     -108.980      -49.213       -0.521       29.538       20.330       16.281      872.500      413.315      265.084        0.792        0.078      119.576       12.581        0.011      341.501       16.257      861.151
08/27/2013  03:13:00     -106.720      -29.060       -1.745       34.394       26.085       16.718     1182.939      680.423      279.483        0.719        0.107      110.605       15.153        0.019      341.501       16.258      861.145
08/27/2013  03:14:00     -109.519      -29.141       -3.025       39.799       27.136       17.250     1583.985      736.348      297.550        0.773        0.131      113.330       16.837        0.022      341.437       16.148      861.148
08/27/2013  03:15:00     -102.509      -19.213       -2.645       34.626       24.362       17.886     1198.952      593.492      319.895        0.650        0.106      104.294       16.933        0.026      341.414       16.110      861.152
08/27/2013  03:16:00      -93.374      -31.478       -0.357       28.465       25.864       14.152      810.281      668.943      200.271        0.569        0.084       98.538       10.397        0.011      341.422       16.122      861.146
08/27/2013  03:17:00     -100.861      -39.981       -2.219       27.380       28.301       16.095      749.680      800.961      259.051        0.679        0.090      108.497       12.415        0.013      341.402       16.089      861.143
08/27/2013  03:18:00     -106.779      -64.668        0.590       38.527       25.613       18.281     1484.348      656.044      334.183        0.903        0.124      124.834       18.976        0.023      341.390       16.069      861.143
08/27/2013  03:19:00     -139.603      -65.209       -8.552       16.889       14.976       12.352      285.223      224.289      152.572        1.224        0.033      154.082        8.050        0.003      341.426       16.129      861.151
08/27/2013  03:20:00     -138.193      -70.322      -13.015       15.669       13.322       10.525      245.531      177.482      110.770        1.237        0.027      155.057        7.900        0.003      341.342       15.986      861.149
08/27/2013  03:21:00     -129.447      -42.575       -6.532       35.102       30.414       18.691     1232.124      924.989      349.340        1.056        0.125      136.268       16.345        0.014      341.329       15.965      861.145
08/27/2013  03:22:00     -106.000      -32.857       -6.020       42.398       29.080       17.290     1797.628      845.654      298.937        0.765        0.147      110.976       19.316        0.030      341.329       15.967      861.136
08/27/2013  03:23:00      -92.158      -15.100       -1.129       50.579       41.008       22.863     2558.279     1681.633      522.703        0.674        0.238       93.386       23.298        0.062      341.287       15.896      861.139
08/27/2013  03:24:00      -49.552      -11.153        1.223       39.296       31.902       19.391     1544.136     1017.765      376.015        0.276        0.147       50.791       20.010        0.155      341.258       15.846      861.133
08/27/2013  03:25:00      -45.028      -35.829        1.718       47.964       40.374       19.706     2300.542     1630.044      388.308        0.382        0.216       57.543       17.052        0.088      341.313       15.939      861.124
08/27/2013  03:26:00     -105.130      -55.102       -1.412       36.517       29.550       21.121     1333.471      873.177      446.089        0.837        0.133      118.695       17.912        0.023      341.279       15.881      861.119
08/27/2013  03:27:00     -130.992      -57.363       -5.008       24.948       21.134       16.749      622.411      446.653      280.522        1.091        0.067      143.002       10.019        0.005      341.301       15.919      861.129
08/27/2013  03:28:00      -98.056      -55.421       -4.374       37.436       36.848       17.884     1401.444     1357.772      319.826        0.789        0.154      112.634       14.721        0.017      341.379       16.049      861.123
08/27/2013  03:29:00      -72.140      -60.879       -0.508       49.247       33.421       20.949     2425.236     1116.933      438.845        0.645        0.199       94.395       22.773        0.058      341.385       16.060      861.120
08/27/2013  03:30:00      -70.389      -40.452       -4.247       61.273       29.242       22.230     3754.323      855.110      494.190        0.586        0.255       81.184       19.515        0.058      341.431       16.139      861.128
08/27/2013  03:31:00      -60.770      -36.107        9.227       37.367       26.470       19.704     1396.261      700.658      388.232        0.378        0.124       70.687       21.576        0.093      341.401       16.087      861.148
08/27/2013  03:32:00      -98.002      -43.673       -1.432       34.331       20.610       16.637     1178.618      424.778      276.791        0.670        0.094      107.293       18.096        0.028      341.429       16.134      861.164
08/27/2013  03:33:00      -43.104      -42.465        7.068       29.125       20.792       15.654      848.279      432.324      245.061        0.262        0.076       60.508        8.876        0.022      341.459       16.186      861.168
08/27/2013  03:34:00      -52.722      -59.555       -1.374       29.479       19.536       15.194      869.023      381.659      230.844        0.390        0.074       79.539        8.841        0.012      341.441       16.156      861.179
08/27/2013  03:35:00      -53.021      -73.304       -0.321       31.110       35.246       21.555      967.851     1242.270      464.615        0.543        0.134       90.469       15.806        0.031      341.342       15.988      861.188
08/27/2013  03:36:00      -62.555      -73.025        4.511       46.495       37.671       24.539     2161.791     1419.126      602.161        0.672        0.209       96.155       22.078        0.053      341.296       15.911      861.185
08/27/2013  03:37:00      -99.194      -77.473       -6.353       44.239       34.979       23.629     1957.103     1223.526      558.337        0.981        0.187      125.863       23.443        0.035      341.275       15.874      861.189
08/27/2013  03:38:00     -108.124      -93.758        6.366       58.796       38.886       31.281     3456.937     1512.148      978.520        1.323        0.297      143.114       31.319        0.048      341.244       15.822      861.199
08/27/2013  03:39:00     -143.379     -101.221        0.431       52.874       42.388       29.378     2795.670     1796.757      863.076        1.813        0.273      175.508       30.221        0.030      341.319       15.947      861.211
08/27/2013  03:40:00     -136.101      -95.063       -0.200       55.893       46.020       30.126     3123.990     2117.798      907.552        1.685        0.307      166.013       33.351        0.040      341.357       16.012      861.208
08/27/2013  03:41:00     -110.120      -74.425        5.579       61.524       48.958       26.703     3785.179     2396.857      713.040        1.229        0.345      132.912       33.101        0.062      341.339       15.983      861.202
08/27/2013  03:42:00     -123.927      -59.614       -1.066       45.823       30.825       23.374     2099.749      950.159      546.349        1.125        0.180      137.520       20.977        0.023      341.361       16.020      861.208
08/27/2013  03:43:00     -139.865      -66.310        2.548       47.395       40.432       25.442     2246.283     1634.712      647.290        1.425        0.226      154.787       22.760        0.022      341.386       16.063      861.202
08/27/2013  03:44:00     -124.795      -63.319       -7.402       42.152       39.643       20.870     1776.752     1571.553      435.551        1.171        0.189      139.940       19.044        0.019      341.414       16.108      861.196
08/27/2013  03:45:00     -143.390      -57.415       -4.753       43.979       27.493       17.606     1934.123      755.865      309.984        1.344        0.150      154.458       17.996        0.014      341.508       16.268      861.190
08/27/2013  03:46:00     -133.185      -58.290       -6.329       26.490       25.511       15.413      701.731      650.805      237.566        1.138        0.080      145.382       15.119        0.011      341.467       16.198      861.201
08/27/2013  03:47:00     -113.791      -45.169       -7.698       31.499       34.081       15.731      992.190     1161.511      247.480        0.872        0.120      122.429       13.488        0.012      341.430       16.136      861.216
08/27/2013  03:48:00      -32.745      -46.335        8.863       37.362       30.152       16.628     1395.896      909.128      276.485        0.294        0.129       56.738       13.116        0.053      341.452       16.175      861.227
08/27/2013  03:49:00      -48.811      -46.180        5.720       48.878       23.089       23.316     2389.077      533.121      543.652        0.401        0.173       67.195       24.058        0.128      341.318       15.947      861.231
08/27/2013  03:50:00      -67.896      -50.749        2.988       50.171       35.472       18.239     2517.165     1258.278      332.661        0.565        0.205       84.766       21.169        0.062      341.315       15.941      861.235
08/27/2013  03:51:00      -41.455      -46.033        8.646       42.208       27.953       21.235     1781.478      781.370      450.908        0.346        0.151       61.948       23.093        0.139      341.263       15.855      861.228
08/27/2013  03:52:00      -59.032      -46.963        3.197       45.750       36.017       23.919     2093.038     1297.244      572.127        0.483        0.198       75.434       24.623        0.107      341.294       15.906      861.221
08/27/2013  03:53:00      -71.748      -88.541        5.091       42.187       35.904       24.986     1779.710     1289.069      624.299        0.835        0.185      113.962       25.575        0.050      341.209       15.763      861.219
08/27/2013  03:54:00     -135.560      -76.531       -6.374       30.302       34.428       21.227      918.186     1185.269      450.597        1.341        0.128      155.671       15.651        0.010      341.297       15.912      861.218
08/27/2013  03:55:00     -106.424      -70.391       -2.384       35.608       36.320       25.931     1267.899     1319.124      672.397        0.977        0.163      127.597       20.033        0.025      341.204       15.755      861.207
08/27/2013  03:56:00      -60.427      -35.386        0.813       38.287       29.834       21.861     1465.924      890.077      477.892        0.387        0.142       70.025       22.299        0.101      341.164       15.687      861.183
08/27/2013  03:57:00      -24.564      -26.953        4.351       37.951       26.772       16.974     1440.249      716.715      288.132        0.190        0.122       36.467       15.095        0.171      341.186       15.725      861.172
08/27/2013  03:58:00      -38.611      -46.223        6.444       47.408       28.218       23.712     2247.506      796.245      562.253        0.364        0.180       60.228       23.855        0.157      341.178       15.711      861.172
08/27/2013  03:59:00      -71.202      -59.932        5.133       41.690       35.200       23.776     1738.050     1239.038      565.322        0.611        0.177       93.068       24.846        0.071      341.205       15.756      861.157
08/27/2013  04:00:00      -67.579      -56.176        5.445       46.814       32.308       27.314     2191.585     1043.787      746.028        0.587        0.199       87.879       22.468        0.065      341.169       15.695      861.143
08/27/2013  04:01:00      -44.542      -39.672       13.891       58.361       38.330       22.446     3405.987     1469.156      503.809        0.456        0.269       59.648       31.967        0.287      341.185       15.722      861.136
08/27/2013  04:02:00      -67.402      -49.972        1.033       33.819       21.855       19.186     1143.715      477.625      368.091        0.451        0.099       83.906       21.075        0.063      341.205       15.755      861.129
08/27/2013  04:03:00      -39.499      -52.452        7.254       39.269       23.355       20.924     1542.053      545.459      437.795        0.344        0.126       65.661       21.526        0.107      341.201       15.750      861.111
08/27/2013  04:04:00      -34.468      -33.637        7.837       33.709       22.541       21.019     1136.277      508.094      441.793        0.223        0.104       48.161       21.417        0.198      341.209       15.763      861.089
08/27/2013  04:05:00      -43.091      -42.593       11.301       41.364       32.544       19.124     1710.939     1059.081      365.721        0.347        0.157       60.589       23.298        0.148      341.134       15.638      861.075
08/27/2013  04:06:00      -53.450      -42.622        4.612       38.863       25.666       20.559     1510.360      658.736      422.653        0.364        0.130       68.364       12.850        0.035      341.111       15.596      861.074
08/27/2013  04:07:00      -11.000      -34.908       14.694       30.184       22.424       23.599      911.058      502.851      556.905        0.176        0.099       36.600       13.591        0.138      341.131       15.633      861.071
08/27/2013  04:08:00      -74.106      -70.282        2.058       51.711       35.231       27.405     2674.002     1241.204      751.050        0.755        0.233      102.134       31.572        0.096      341.095       15.571      861.068
08/27/2013  04:09:00      -94.666      -86.530       -2.373       49.425       32.451       24.230     2442.878     1053.077      587.079        1.027        0.204      128.254       25.736        0.040      341.065       15.519      861.072
08/27/2013  04:10:00     -114.518      -69.299       -6.332       25.604       29.553       17.371      655.574      873.377      301.736        0.989        0.092      133.853        9.389        0.005      341.031       15.462      861.069
08/27/2013  04:11:00     -121.758      -76.261       -1.053       32.066       29.254       22.001     1028.226      855.772      484.037        1.150        0.118      143.669       19.381        0.018      341.005       15.418      861.065
08/27/2013  04:12:00      -92.785      -67.562        0.224       41.852       23.835       17.793     1751.576      568.115      316.599        0.790        0.132      114.777       14.623        0.016      340.956       15.334      861.046
08/27/2013  04:13:00      -87.822      -44.126        6.273       42.923       24.432       20.786     1842.391      596.926      432.072        0.628        0.144       98.284       18.467        0.035      341.017       15.439      861.030
08/27/2013  04:14:00      -87.542      -46.175       -6.965       40.613       19.215       15.694     1649.427      369.224      246.295        0.605        0.113       98.974       19.668        0.039      341.038       15.474      861.032
08/27/2013  04:15:00      -41.801      -25.152        5.570       40.424       16.148       18.690     1634.099      260.754      349.333        0.233        0.112       48.785       18.908        0.150      340.993       15.397      861.041
08/27/2013  04:16:00      -44.907      -45.908       11.006       29.238       26.400       15.277      854.865      696.984      233.401        0.301        0.089       64.220       14.124        0.048      341.092       15.565      861.051
08/27/2013  04:17:00      -45.289      -48.154        5.320       41.289       26.141       20.446     1704.773      683.331      418.019        0.360        0.140       66.105       18.554        0.079      341.081       15.546      861.047
08/27/2013  04:18:00      -46.412      -68.396        0.655       35.500       21.354       16.895     1260.279      455.986      285.443        0.442        0.100       82.657       14.015        0.029      341.097       15.573      861.039
08/27/2013  04:19:00      -35.403      -26.332        7.677       34.957       23.097       17.555     1222.002      533.486      308.176        0.203        0.103       44.122       17.589        0.159      341.041       15.478      861.034
08/27/2013  04:20:00      -24.015      -44.488        5.472       28.076       21.273       15.198      788.289      452.529      230.979        0.203        0.074       50.556       10.304        0.042      341.051       15.497      861.037
08/27/2013  04:21:00      -15.304      -30.603       10.482       37.818       16.938       18.609     1430.227      286.897      346.301        0.167        0.103       34.216       20.647        0.364      341.074       15.535      861.038
08/27/2013  04:22:00      -36.131      -54.989        3.338       44.608       34.181       19.827     1989.847     1168.330      393.101        0.395        0.178       65.797       19.820        0.091      340.998       15.407      861.035
08/27/2013  04:23:00      -66.286      -65.149       10.387       53.556       41.650       27.264     2868.227     1734.715      743.327        0.705        0.267       92.942       32.515        0.122      340.977       15.370      861.041
08/27/2013  04:24:00      -91.271      -54.408       -0.800       38.456       39.325       23.386     1478.826     1546.453      546.917        0.743        0.179      106.258       21.310        0.040      340.956       15.335      861.041
08/27/2013  04:25:00      -87.438      -37.796        7.476       50.746       36.882       23.201     2575.200     1360.262      538.309        0.680        0.224       95.258       16.249        0.029      340.944       15.314      861.037
08/27/2013  04:26:00     -101.223      -71.224       -2.926       45.315       28.749       19.632     2053.423      826.482      385.405        0.930        0.163      123.770       19.629        0.025      340.912       15.260      861.031
08/27/2013  04:27:00      -84.523      -54.714        3.931       49.819       29.186       23.800     2481.938      851.816      566.453        0.703        0.195      100.686       23.344        0.054      340.904       15.247      861.027
08/27/2013  04:28:00      -91.446      -65.112        1.452       44.554       31.628       25.347     1985.059     1000.346      642.458        0.812        0.181      112.259       25.869        0.053      340.884       15.213      861.026
08/27/2013  04:29:00      -85.061      -86.151        0.407       35.738       38.252       23.196     1277.232     1463.239      538.056        0.897        0.164      121.068       18.858        0.024      340.952       15.327      861.027
08/27/2013  04:30:00      -56.297      -38.707        1.070       46.786       22.576       20.847     2188.960      509.687      434.604        0.390        0.157       68.320       16.700        0.060      340.940       15.307      861.021
08/27/2013  04:31:00      -86.691      -57.737       -6.657       17.993       16.721       12.952      323.742      279.608      167.761        0.583        0.039      104.158        8.467        0.007      340.908       15.253      861.010
08/27/2013  04:32:00      -93.760      -43.126       -7.106       22.240       17.252       12.723      494.597      297.621      161.887        0.583        0.048      103.202        8.826        0.007      340.907       15.252      861.013
08/27/2013  04:33:00      -97.235      -38.935      -10.287       15.114       15.562       13.346      228.421      242.167      178.115        0.586        0.032      104.740        9.936        0.009      340.946       15.317      861.017
08/27/2013  04:34:00      -78.154      -39.483       -1.338       31.608       21.242       18.150      999.064      451.206      329.407        0.472        0.089       87.561       20.190        0.053      340.903       15.246      861.020
08/27/2013  04:35:00      -87.602      -46.817       -5.608       20.283       16.927       11.354      411.395      286.514      128.923        0.536        0.041       99.328        5.484        0.003      340.974       15.364      861.016
08/27/2013  04:36:00      -61.268      -37.878        4.520       25.677       20.302       15.229      659.290      412.156      231.930        0.326        0.065       72.031       12.087        0.028      340.856       15.165      861.017
08/27/2013  04:37:00      -53.514      -47.263        0.175       36.804       27.569       17.665     1354.557      760.053      312.047        0.376        0.121       71.397       20.804        0.085      340.871       15.191      861.026
08/27/2013  04:38:00      -50.885      -57.530        3.782       26.592       27.020       20.561      707.152      730.072      422.766        0.389        0.093       76.804       20.895        0.074      340.874       15.194      861.051
08/27/2013  04:39:00      -57.941      -41.793        3.540       35.820       23.830       20.253     1283.064      567.887      410.175        0.369        0.113       71.441       16.878        0.056      340.862       15.175      861.067
08/27/2013  04:40:00      -67.670      -71.607       -1.767       25.780       30.417       20.603      664.609      925.218      424.471        0.586        0.101       98.523       19.837        0.041      340.819       15.103      861.078
08/27/2013  04:41:00      -80.689      -75.138       -5.333       21.684       24.133       15.042      470.205      582.380      226.258        0.673        0.064      110.256       12.959        0.014      340.817       15.098      861.078
08/27/2013  04:42:00      -50.556      -53.040        3.805       28.324       24.033       18.475      802.224      577.591      341.337        0.355        0.086       73.274       16.787        0.052      340.853       15.161      861.072
08/27/2013  04:43:00      -29.456      -47.629        3.108       41.920       31.392       22.609     1757.266      985.468      511.172        0.320        0.163       56.002       17.652        0.099      340.849       15.154      861.072
08/27/2013  04:44:00      -63.775      -49.341        4.107       28.574       28.220       21.260      816.485      796.381      452.001        0.429        0.103       80.634       18.076        0.050      340.746       14.980      861.060
08/27/2013  04:45:00      -51.809      -47.875       -1.466       41.350       25.418       15.788     1709.837      646.070      249.275        0.379        0.130       70.542       15.964        0.051      340.798       15.067      861.041
08/27/2013  04:46:00      -51.812      -51.014        2.315       44.522       24.896       19.368     1982.212      619.822      375.108        0.413        0.149       72.711       23.356        0.103      340.829       15.120      861.022
08/27/2013  04:47:00      -52.572      -41.133        3.437       45.577       23.070       23.963     2077.254      532.223      574.248        0.383        0.159       66.752       26.844        0.162      340.780       15.036      861.014
08/27/2013  04:48:00      -96.617      -36.651       -3.163       31.012       24.021       17.862      961.772      576.993      319.055        0.627        0.093      103.335       18.259        0.031      340.726       14.947      861.021
08/27/2013  04:49:00     -110.273      -40.514       -1.367       33.135       26.389       16.983     1097.901      696.389      288.411        0.794        0.104      117.479       17.702        0.023      340.715       14.927      861.030
08/27/2013  04:50:00     -107.994      -37.737       -3.442       26.976       27.622       18.143      727.730      762.979      329.163        0.746        0.091      114.398       16.083        0.020      340.770       15.021      861.034
08/27/2013  04:51:00     -129.667      -65.684       -6.058       27.080       35.875       19.228      733.320     1287.035      369.713        1.178        0.120      145.355       16.162        0.012      340.774       15.027      861.041
08/27/2013  04:52:00     -100.112      -37.036        3.862       38.558       24.395       15.016     1486.744      595.114      225.481        0.686        0.115      106.743       15.522        0.021      340.731       14.953      861.053
08/27/2013  04:53:00      -72.756      -50.450        0.548       27.745       25.162       15.778      769.780      633.147      248.951        0.475        0.083       88.536       12.682        0.021      340.786       15.047      861.069
08/27/2013  04:54:00      -60.751      -42.654        2.512       45.252       27.474       15.173     2047.755      754.817      230.230        0.427        0.152       74.230       18.192        0.060      340.757       14.998      861.073
08/27/2013  04:55:00      -72.747      -60.737        1.775       45.268       31.561       21.448     2049.203      996.115      460.022        0.624        0.175       94.768       26.176        0.076      340.731       14.954      861.064
08/27/2013  04:56:00      -71.221      -54.658        2.122       41.256       29.523       18.134     1702.021      871.621      328.842        0.548        0.145       89.777       19.202        0.046      340.703       14.906      861.068
08/27/2013  04:57:00      -70.042      -61.676        1.576       28.672       28.085       18.021      822.109      788.748      324.749        0.532        0.097       93.327       15.555        0.028      340.690       14.884      861.069
08/27/2013  04:58:00      -63.973      -37.969        1.976       32.881       24.284       17.637     1081.171      589.706      311.047        0.376        0.099       74.392       15.554        0.044      340.644       14.807      861.069
08/27/2013  04:59:00      -70.570      -33.682        0.509       39.422       26.980       16.356     1554.130      727.943      267.522        0.433        0.127       78.196       20.819        0.071      340.644       14.806      861.069
08/27/2013  05:00:00      -83.233      -22.474       -0.215       23.621       19.136       13.542      557.959      366.176      183.382        0.427        0.055       86.213        9.617        0.012      340.676       14.861      861.074
08/27/2013  05:01:00      -79.430      -38.761       -1.187       35.957       19.795       14.448     1292.882      391.845      208.758        0.485        0.095       88.383       13.523        0.023      340.719       14.934      861.080
08/27/2013  05:02:00      -83.439      -39.663       -0.499       27.472       23.452       13.250      754.721      550.015      175.559        0.501        0.074       92.386        7.197        0.006      340.672       14.854      861.082
08/27/2013  05:03:00      -87.594      -46.302       -0.996       34.193       22.250       15.187     1169.182      495.071      230.646        0.586        0.095       99.079       15.873        0.026      340.674       14.857      861.080
08/27/2013  05:04:00      -73.088      -39.382       -0.162       34.608       23.595       16.069     1197.741      556.734      258.199        0.445        0.101       83.023       14.308        0.030      340.688       14.882      861.075
08/27/2013  05:05:00      -78.972      -50.886        3.031       31.250       21.268       15.904      976.556      452.318      252.922        0.526        0.084       93.947       12.010        0.016      340.722       14.941      861.078
08/27/2013  05:06:00      -98.236      -41.786       -0.351       25.735       21.639       13.181      662.291      468.251      173.739        0.635        0.065      106.754       11.556        0.012      340.650       14.816      861.086
08/27/2013  05:07:00      -66.160      -34.838       -2.040       31.288       12.527       12.269      978.925      156.923      150.523        0.344        0.064       74.772       13.246        0.031      340.631       14.786      861.092
08/27/2013  05:08:00      -70.851      -35.480       -3.184       20.674       16.490       11.997      427.401      271.915      143.935        0.357        0.042       79.239        9.712        0.015      340.627       14.780      861.088
08/27/2013  05:09:00      -48.195      -36.371        0.309       22.398       14.177       12.964      501.666      200.994      168.077        0.226        0.044       60.379        9.597        0.025      340.612       14.754      861.079
08/27/2013  05:10:00      -71.857      -29.077       -7.877       13.394        8.665        9.607      179.404       75.082       92.292        0.321        0.017       77.517        6.711        0.007      340.619       14.766      861.082
08/27/2013  05:11:00      -77.357      -24.169       -4.837       11.648       15.104        8.183      135.684      228.135       66.955        0.351        0.022       81.045        5.460        0.005      340.584       14.706      861.077
08/27/2013  05:12:00      -76.237      -23.978       -8.276       10.002       14.251        9.862      100.035      203.097       97.264        0.343        0.020       79.919        4.317        0.003      340.597       14.725      861.088
08/27/2013  05:13:00      -67.613      -29.031       -2.724       13.779       11.371       10.185      189.872      129.304      103.730        0.292        0.021       73.582        6.501        0.008      340.624       14.772      861.091
08/27/2013  05:14:00      -63.824      -32.300        0.232       16.694       12.588       13.121      278.682      158.446      172.149        0.286        0.030       71.531        6.406        0.008      340.582       14.703      861.097
08/27/2013  05:15:00      -27.940      -31.737       11.576       35.206       20.580       16.214     1239.493      423.533      262.891        0.192        0.096       42.283       16.699        0.156      340.558       14.661      861.112
08/27/2013  05:16:00      -28.846      -64.327       -0.612       25.610       23.503       14.497      655.865      552.390      210.160        0.319        0.071       70.498       15.017        0.045      340.600       14.734      861.128
08/27/2013  05:17:00      -50.546      -37.304        2.120       26.551       19.831       15.659      704.933      393.255      245.209        0.265        0.067       62.821        8.388        0.018      340.576       14.693      861.141
08/27/2013  05:18:00       -9.250      -49.326        0.750       19.429       21.984       16.159      377.504      483.296      261.128        0.182        0.056       50.186       10.085        0.040      340.681       14.870      861.149
08/27/2013  05:19:00      -11.187      -18.686       12.969       33.370       31.928       20.015     1113.577     1019.373      400.598        0.159        0.127       21.779       19.650        0.814      340.602       14.736      861.145
08/27/2013  05:20:00      -27.726      -32.819        8.658       44.384       27.883       14.176     1969.902      777.470      200.962        0.243        0.147       42.963       12.733        0.088      340.563       14.671      861.136
08/27/2013  05:21:00      -50.932      -35.608       -0.737       49.332       23.265       15.986     2433.598      541.260      255.558        0.355        0.162       62.145       18.090        0.085      340.511       14.581      861.126
08/27/2013  05:22:00      -35.437      -60.563        4.821       49.365       44.527       20.378     2436.889     1982.611      415.247        0.489        0.242       70.169       20.532        0.086      340.541       14.634      861.117
08/27/2013  05:23:00      -40.907      -45.499        7.290       29.384       25.812       19.902      863.398      666.248      396.100        0.286        0.096       61.185       15.743        0.066      340.532       14.618      861.109
08/27/2013  05:24:00      -50.785      -37.920        8.905       42.632       33.881       21.581     1817.487     1147.918      465.735        0.376        0.172       63.380       20.660        0.106      340.527       14.608      861.100
08/27/2013  05:25:00      -83.452      -76.362       -5.963       22.484       34.188       19.130      505.548     1168.788      365.949        0.744        0.102      113.117       16.556        0.021      340.578       14.695      861.087
08/27/2013  05:26:00      -88.842      -59.027       -3.750       16.641       19.947       12.335      276.930      397.890      152.144        0.611        0.041      106.664        9.094        0.007      340.534       14.621      861.074
08/27/2013  05:27:00      -48.672      -30.566        4.569       44.071       19.898       19.064     1942.283      395.933      363.419        0.301        0.135       57.474       25.912        0.203      340.456       14.489      861.076
08/27/2013  05:28:00      -25.431      -32.721        9.033       34.863       18.858       18.881     1215.422      355.639      356.503        0.186        0.096       41.441       19.714        0.226      340.482       14.533      861.087
08/27/2013  05:29:00      -43.146      -47.133        1.494       53.533       34.429       20.040     2865.751     1185.338      401.614        0.427        0.223       63.899       28.052        0.193      340.503       14.569      861.096
08/27/2013  05:30:00      -94.435      -89.139       -7.861       19.690       22.961       12.156      387.687      527.208      147.760        0.899        0.053      129.861        7.678        0.003      340.536       14.624      861.108
08/27/2013  05:31:00      -53.203      -43.566        7.166       34.936       23.096       23.234     1220.496      533.415      539.812        0.354        0.115       68.764       21.810        0.101      340.481       14.531      861.115
08/27/2013  05:32:00      -58.562      -43.752       -2.129       35.932       27.696       19.532     1291.143      767.089      381.516        0.389        0.122       73.101       17.969        0.060      340.468       14.509      861.108
08/27/2013  05:33:00      -57.901      -49.548       -2.882       42.256       21.643       21.055     1785.593      468.427      443.314        0.426        0.135       76.207       23.540        0.095      340.462       14.499      861.100
08/27/2013  05:34:00      -88.775      -65.662       -3.089       26.276       28.893       17.426      690.451      834.801      303.660        0.702        0.091      110.420       17.122        0.024      340.483       14.533      861.108
08/27/2013  05:35:00      -87.308      -15.715       -4.917       16.804       18.707       12.326      282.387      349.969      151.929        0.434        0.039       88.711        9.295        0.011      340.437       14.456      861.119
08/27/2013  05:36:00     -107.588      -15.753       -7.662       17.226       17.725       13.745      296.746      314.161      188.919        0.634        0.040      108.735       11.583        0.011      340.438       14.459      861.121
08/27/2013  05:37:00     -105.358      -15.591       -4.376       23.948       16.430       13.855      573.507      269.930      191.970        0.620        0.052      106.505       13.691        0.017      340.434       14.451      861.115
08/27/2013  05:38:00     -112.969      -28.614      -12.815       12.225       14.720       10.675      149.440      216.679      113.956        0.711        0.024      116.537        3.290        0.001      340.470       14.512      861.111
08/27/2013  05:39:00     -106.599      -25.241      -15.631       14.378       11.448       10.474      206.736      131.054      109.704        0.635        0.022      109.547        7.213        0.004      340.433       14.451      861.109
08/27/2013  05:40:00     -101.878      -26.577      -16.559       18.074       19.689       12.196      326.684      387.650      148.751        0.611        0.043      105.288        5.611        0.003      340.470       14.511      861.131
08/27/2013  05:41:00     -107.781      -17.734      -18.809       20.832       11.752       10.176      433.969      138.118      103.550        0.648        0.034      109.231        7.106        0.004      340.412       14.415      861.137
08/27/2013  05:42:00     -117.005      -37.623      -23.218       14.753       12.907       12.480      217.639      166.587      155.750        0.809        0.027      122.905        4.481        0.001      340.394       14.383      861.139
08/27/2013  05:43:00     -123.196      -40.545      -16.985       11.250       11.853        6.832      126.574      140.491       46.680        0.871        0.016      129.696        4.742        0.001      340.330       14.276      861.132
08/27/2013  05:44:00     -101.859      -26.279      -13.427        9.511        9.173        8.058       90.454       84.148       64.931        0.574        0.012      105.195        4.716        0.002      340.239       14.121      861.135
08/27/2013  05:45:00      -86.371      -28.383      -13.647        7.904        6.058        5.932       62.468       36.700       35.186        0.429        0.007       90.915        2.296        0.001      340.283       14.194      861.136
08/27/2013  05:46:00      -75.008      -42.253      -11.019        8.434       13.880        7.204       71.140      192.666       51.897        0.392        0.016       86.090        8.209        0.009      340.324       14.264      861.141
08/27/2013  05:47:00      -85.729      -46.018      -11.477        7.420        7.397        6.061       55.051       54.718       36.733        0.487        0.007       97.299        2.198        0.001      340.352       14.315      861.142
08/27/2013  05:48:00      -86.860      -36.847      -11.901       10.442        7.375        6.169      109.039       54.386       38.051        0.462        0.010       94.352        2.755        0.001      340.327       14.273      861.134
08/27/2013  05:49:00      -82.568      -40.636      -12.864        9.926        9.479        7.602       98.532       89.845       57.794        0.444        0.012       92.026        4.811        0.003      340.341       14.295      861.127
08/27/2013  05:50:00      -95.219      -33.433       -5.236        8.436        9.322        6.997       71.165       86.895       48.956        0.521        0.010      100.918        3.275        0.001      340.371       14.345      861.121
08/27/2013  05:51:00     -103.921      -22.347       -8.618        6.190        6.753        6.353       38.316       45.607       40.362        0.575        0.006      106.297        2.116        0.000      340.347       14.303      861.116
08/27/2013  05:52:00     -109.525      -32.755       -6.873       15.894        8.970        8.725      252.618       80.463       76.129        0.676        0.020      114.318        1.298        0.000      340.373       14.349      861.116
08/27/2013  05:53:00      -59.377      -43.988       -4.493       22.562       15.476       11.521      509.047      239.513      132.736        0.318        0.044       73.895        8.142        0.012      340.345       14.303      861.124
08/27/2013  05:54:00      -77.016      -42.364       -9.738       18.288       15.802       12.483      334.441      249.689      155.816        0.428        0.037       87.899        5.945        0.005      340.377       14.356      861.138
08/27/2013  05:55:00      -63.557      -40.005       -2.085       37.704       24.291       21.524     1421.574      590.044      463.289        0.406        0.124       75.099       20.779        0.077      340.330       14.275      861.155
08/27/2013  05:56:00      -54.514      -45.200        2.691       31.047       32.392       20.351      963.929     1049.213      414.182        0.372        0.121       70.815       12.544        0.031      340.301       14.227      861.161
08/27/2013  05:57:00      -84.437      -67.569       -4.166       51.462       35.707       24.477     2648.378     1274.981      599.104        0.812        0.226      108.144       26.571        0.060      340.268       14.169      861.160
08/27/2013  05:58:00     -109.464      -53.729        2.891       38.458       43.118       22.388     1478.999     1859.201      501.230        0.936        0.192      121.940       21.186        0.030      340.279       14.190      861.168
08/27/2013  05:59:00      -73.896      -53.731        1.444       44.042       34.052       18.996     1939.666     1159.505      360.854        0.590        0.173       91.365       17.594        0.037      340.226       14.101      861.162
08/27/2013  06:00:00      -62.135      -49.149       -0.224       31.748       23.800       16.754     1007.955      566.431      280.697        0.407        0.093       79.223       11.264        0.020      340.214       14.082      861.167
08/27/2013  06:01:00      -38.552      -43.152        6.715       43.643       31.741       25.089     1904.695     1007.520      629.465        0.347        0.177       57.865       28.884        0.249      340.293       14.213      861.170
08/27/2013  06:02:00      -40.342      -54.828        5.432       38.898       27.756       23.386     1513.087      770.385      546.920        0.375        0.142       68.070       21.878        0.103      340.254       14.148      861.178
08/27/2013  06:03:00      -86.672      -67.777       -3.982       49.463       34.492       22.110     2446.597     1189.708      488.865        0.812        0.206      110.026       24.883        0.051      340.270       14.174      861.194
08/27/2013  06:04:00     -110.162     -108.376      -12.814       34.170       43.376       22.670     1167.592     1881.454      513.936        1.380        0.178      154.535        6.290        0.002      340.253       14.144      861.191
08/27/2013  06:05:00     -143.860     -115.949      -11.701       46.724       42.977       31.282     2183.141     1847.041      978.561        1.964        0.250      184.770       27.388        0.022      340.221       14.091      861.184
08/27/2013  06:06:00     -109.182      -98.680       -0.881       41.399       35.112       31.832     1713.902     1232.844     1013.290        1.281        0.198      147.168       24.265        0.027      340.188       14.036      861.182
08/27/2013  06:07:00     -101.452      -77.322        0.362       38.490       34.959       24.549     1481.481     1222.146      602.641        0.979        0.165      127.559       22.549        0.031      340.235       14.116      861.184
08/27/2013  06:08:00      -92.941      -91.282        1.507       35.720       35.885       21.223     1275.885     1287.736      450.432        0.999        0.151      130.271       21.285        0.027      340.189       14.037      861.195
08/27/2013  06:09:00     -112.181      -88.825        2.720       28.783       30.688       22.315      828.459      941.762      497.963        1.137        0.113      143.089       17.196        0.014      340.211       14.074      861.203
08/27/2013  06:10:00     -109.584      -72.543        1.682       61.356       38.457       25.506     3764.565     1478.952      650.539        1.158        0.295      131.420       22.610        0.030      340.225       14.097      861.211
08/27/2013  06:11:00     -122.065      -65.866        4.957       68.463       38.915       27.693     4687.232     1514.386      766.925        1.311        0.348      138.701       25.881        0.035      340.257       14.151      861.214
08/27/2013  06:12:00     -114.958      -60.364        2.247       39.335       40.783       25.426     1547.267     1663.224      646.456        1.036        0.193      129.843       19.185        0.022      340.286       14.201      861.215
08/27/2013  06:13:00      -99.958      -52.392       -7.748       26.849       33.415       15.767      720.843     1116.547      248.612        0.744        0.104      112.856       10.110        0.008      340.284       14.197      861.218
08/27/2013  06:14:00     -122.928      -55.568       -8.835       20.906       26.739       18.576      437.065      714.977      345.068        0.989        0.075      134.904       12.809        0.009      340.284       14.197      861.228
08/27/2013  06:15:00     -126.399      -50.309       -4.412       27.010       24.881       16.024      729.565      619.075      256.774        1.007        0.080      136.043       16.601        0.015      340.323       14.267      861.237
08/27/2013  06:16:00     -134.674      -27.480       -7.454       16.593       18.550       12.889      275.339      344.107      166.132        0.987        0.039      137.449        7.038        0.003      340.188       14.036      861.243
08/27/2013  06:17:00     -127.493      -31.709      -11.154       22.954       18.595       13.269      526.893      345.780      176.063        0.922        0.052      131.377        8.598        0.004      340.124       13.927      861.255
08/27/2013  06:18:00      -74.605      -32.401        4.275       23.456       20.612       17.484      550.194      424.865      305.678        0.396        0.064       81.337       14.173        0.030      340.123       13.927      861.267
08/27/2013  06:19:00      -90.597      -39.587       -6.290       32.611       21.832       16.837     1063.510      476.631      283.484        0.582        0.091       98.868       13.112        0.018      340.147       13.967      861.284
08/27/2013  06:20:00     -103.127      -51.858       -4.269       17.008       18.869       14.963      289.268      356.032      223.895        0.711        0.043      115.431        8.395        0.005      340.160       13.988      861.284
08/27/2013  06:21:00      -94.648      -23.339       -7.188       18.446       21.109       11.640      340.250      445.580      135.500        0.524        0.046       97.484        7.167        0.005      340.163       13.993      861.285
08/27/2013  06:22:00      -98.196      -20.012       -7.595       24.048       12.659       12.064      578.305      160.251      145.530        0.549        0.044      100.214        8.826        0.008      340.112       13.908      861.293
08/27/2013  06:23:00      -77.409      -38.420        2.401       23.616       17.119       13.420      557.704      293.062      180.086        0.425        0.052       86.419       12.597        0.021      340.148       13.969      861.298
08/27/2013  06:24:00      -58.811      -30.065        1.922       32.736       26.420       14.570     1071.632      698.017      212.272        0.317        0.099       66.050       18.181        0.076      340.134       13.944      861.315
08/27/2013  06:25:00      -81.444      -33.400       -4.166       44.111       18.035       16.445     1945.819      325.267      270.438        0.515        0.127       88.026       21.080        0.057      340.138       13.951      861.324
08/27/2013  06:26:00     -100.059      -36.136        3.107       33.943       26.546       17.280     1152.112      704.690      298.609        0.674        0.108      106.384       16.874        0.025      340.222       14.093      861.329
08/27/2013  06:27:00      -80.189      -41.017        1.653       37.165       32.349       17.180     1381.218     1046.435      295.153        0.542        0.136       90.070       19.676        0.048      340.175       14.014      861.338
08/27/2013  06:28:00      -73.900      -30.910        2.808       34.430       27.520       19.845     1185.414      757.326      393.822        0.438        0.117       80.104       21.403        0.071      340.102       13.891      861.350
08/27/2013  06:29:00      -76.242      -47.368       -2.161       48.831       29.028       18.975     2384.457      842.620      360.039        0.582        0.179       89.759       21.477        0.057      340.139       13.953      861.354
08/27/2013  06:30:00      -68.436      -45.318        1.520       29.843       24.527       15.597      890.601      601.562      243.255        0.424        0.087       82.080       12.462        0.023      340.200       14.056      861.357
08/27/2013  06:31:00      -53.758      -28.340        2.842       32.596       20.358       14.915     1062.513      414.444      222.448        0.270        0.085       60.771       14.862        0.060      340.171       14.006      861.365
08/27/2013  06:32:00      -54.967      -27.646       -1.482       41.878       17.708       13.096     1753.738      313.583      171.517        0.301        0.112       61.528       18.665        0.092      340.119       13.919      861.366
08/27/2013  06:33:00      -21.221      -34.942       10.183       27.421       19.398       15.599      751.914      376.278      243.319        0.157        0.069       40.881       17.014        0.173      340.156       13.981      861.375
08/27/2013  06:34:00      -57.925      -38.847        0.871       34.228       21.664       17.626     1171.536      469.316      310.685        0.341        0.098       69.745       17.675        0.064      340.148       13.968      861.383
08/27/2013  06:35:00      -67.153      -40.639        0.593       42.585       33.574       20.014     1813.473     1127.227      400.562        0.475        0.167       78.492       15.389        0.038      340.178       14.018      861.392
08/27/2013  06:36:00      -50.885      -51.255       -0.770       42.331       24.852       15.639     1791.906      617.613      244.592        0.394        0.133       72.225       14.252        0.039      340.186       14.033      861.408
08/27/2013  06:37:00      -75.709      -55.166        2.784       36.813       28.969       18.281     1355.223      839.187      334.194        0.566        0.126       93.676       15.945        0.029      340.187       14.035      861.426
08/27/2013  06:38:00      -94.964      -64.147       -3.850       27.896       24.306       18.261      778.205      590.762      333.457        0.742        0.085      114.599       16.551        0.021      340.229       14.105      861.435
08/27/2013  06:39:00     -108.616      -62.733       -3.984       24.468       23.120       16.261      598.664      534.552      264.433        0.857        0.070      125.431        9.793        0.006      340.260       14.158      861.443
08/27/2013  06:40:00      -87.244      -75.204       -2.402       29.202       31.427       23.463      852.736      987.646      550.496        0.783        0.120      115.183       21.142        0.034      340.243       14.128      861.438
08/27/2013  06:41:00      -52.154      -52.186       -0.559       39.720       25.302       20.344     1577.660      640.192      413.899        0.404        0.132       73.779       13.079        0.031      340.233       14.111      861.447
08/27/2013  06:42:00      -72.823      -50.989       -1.848       31.306       26.495       18.776      980.062      701.988      352.542        0.497        0.102       88.899       11.907        0.018      340.258       14.154      861.458
08/27/2013  06:43:00      -48.814      -31.138        2.725       30.678       26.636       13.167      941.153      709.466      173.360        0.259        0.091       57.900       14.330        0.061      340.234       14.114      861.471
08/27/2013  06:44:00      -43.316      -36.448        4.867       38.670       22.381       15.255     1495.345      500.914      232.720        0.273        0.111       56.610       18.869        0.111      340.211       14.073      861.482
08/27/2013  06:45:00      -61.660      -55.567       -1.007       40.234       26.376       15.901     1618.771      695.678      252.846        0.473        0.128       83.004       19.282        0.054      340.159       13.986      861.484
08/27/2013  06:46:00      -99.664      -92.752       -5.664       29.997       30.509       25.519      899.849      930.771      651.243        1.052        0.124      136.146       14.367        0.011      340.179       14.020      861.487
08/27/2013  06:47:00     -101.367      -83.596       -1.085       45.181       33.860       27.299     2041.361     1146.516      745.241        1.060        0.197      131.391       25.117        0.037      340.145       13.964      861.488
08/27/2013  06:48:00      -94.774      -94.613       -7.550       43.754       36.462       23.615     1914.421     1329.469      557.650        1.090        0.190      133.917       17.921        0.018      340.148       13.970      861.490
08/27/2013  06:49:00     -100.331     -101.417       -3.345       47.433       33.570       28.749     2249.851     1126.941      826.498        1.228        0.210      142.660       23.854        0.028      340.157       13.984      861.482
08/27/2013  06:50:00     -108.105      -71.265        1.988       57.192       45.268       25.700     3270.977     2049.220      660.498        1.137        0.299      129.481       28.055        0.047      340.152       13.977      861.470
08/27/2013  06:51:00      -77.308      -26.385        2.483       34.856       33.210       20.884     1214.953     1102.894      436.147        0.472        0.138       81.687       18.395        0.051      340.179       14.020      861.460
08/27/2013  06:52:00     -106.698      -16.877       -3.706       27.254       22.910       14.706      742.797      524.865      216.279        0.658        0.074      108.025        9.051        0.007      340.109       13.903      861.446
08/27/2013  06:53:00      -72.949      -14.231        0.828       34.899       25.916       19.255     1217.959      671.631      370.739        0.389        0.113       74.324       16.700        0.050      340.026       13.762      861.444
08/27/2013  06:54:00      -82.216      -52.430        2.776       39.812       27.868       19.976     1585.007      776.615      399.044        0.614        0.138       97.511       19.447        0.040      340.056       13.813      861.445
08/27/2013  06:55:00      -86.235      -24.187       -3.349       37.551       26.098       18.796     1410.090      681.097      353.292        0.524        0.122       89.563       18.030        0.041      339.991       13.704      861.453
08/27/2013  06:56:00      -96.304      -21.876       -0.577       25.433       22.951       15.714      646.830      526.729      246.938        0.559        0.071       98.757       12.574        0.016      340.002       13.723      861.461
08/27/2013  06:57:00      -90.262      -24.543       -5.708       34.507       24.810       21.341     1190.702      615.538      455.450        0.552        0.113       93.539       15.582        0.028      339.995       13.711      861.472
08/27/2013  06:58:00      -93.618      -37.145       -0.984       17.464       18.908       12.674      304.974      357.494      160.627        0.548        0.041      100.717       10.371        0.011      339.992       13.706      861.477
08/27/2013  06:59:00     -102.477      -38.645       -5.684       22.160       21.854       10.285      491.079      477.591      105.777        0.655        0.054      109.521        5.539        0.003      340.054       13.809      861.480
08/27/2013  07:00:00     -108.719      -43.520       -3.242       25.599       23.956       16.611      655.333      573.879      275.935        0.761        0.075      117.106       15.883        0.018      340.047       13.798      861.489
08/27/2013  07:01:00     -112.365      -27.839       -6.484       20.328       24.532       11.767      413.244      601.797      138.473        0.730        0.058      115.763        7.220        0.004      340.073       13.841      861.498
08/27/2013  07:02:00     -124.532      -43.735      -10.774       18.378       14.790       11.566      337.755      218.758      133.771        0.911        0.035      131.989        7.461        0.003      340.111       13.906      861.507
08/27/2013  07:03:00     -101.735      -38.235       -8.567       18.036       17.298       12.471      325.315      299.230      155.530        0.633        0.039      108.683        5.985        0.003      340.134       13.944      861.519
08/27/2013  07:04:00      -67.784      -23.676       -7.070       24.030       21.916       14.686      577.460      480.294      215.691        0.324        0.064       71.799       14.668        0.042      340.134       13.945      861.524
08/27/2013  07:05:00      -45.270      -22.881       -0.448       32.364       18.710        9.450     1047.446      350.077       89.298        0.203        0.074       50.724        5.573        0.012      340.205       14.064      861.522
08/27/2013  07:06:00      -66.932      -63.678      -10.155       21.028       15.020       14.506      442.184      225.595      210.423        0.476        0.044       92.384       10.845        0.014      340.239       14.122      861.530
08/27/2013  07:07:00      -48.631      -56.715       -5.386       30.869       17.406       18.086      952.880      302.968      327.110        0.360        0.079       74.710       16.501        0.049      340.293       14.214      861.538
08/27/2013  07:08:00      -31.339      -45.757        3.029       16.219       20.702       14.952      263.071      428.587      223.567        0.200        0.046       55.460       14.179        0.065      340.249       14.138      861.534
08/27/2013  07:09:00      -31.906      -45.578        1.529       17.789       13.723        8.349      316.455      188.330       69.703        0.184        0.029       55.636        5.145        0.009      340.285       14.198      861.533
08/27/2013  07:10:00      -33.696      -21.570        6.990       31.322       14.945       13.194      981.074      223.368      174.070        0.151        0.069       40.009       12.587        0.099      340.298       14.222      861.533
08/27/2013  07:11:00      -58.530      -25.586        0.445       30.904       17.751       15.372      955.040      315.083      236.304        0.279        0.075       63.878       14.233        0.050      340.286       14.203      861.525
08/27/2013  07:12:00      -42.388      -29.873        3.923       35.103       22.818       19.834     1232.219      520.654      393.380        0.242        0.107       51.856       16.373        0.100      340.322       14.264      861.523
08/27/2013  07:13:00      -29.386      -31.386        9.415       37.910       36.498       21.731     1437.152     1332.075      472.248        0.259        0.162       42.996       19.953        0.215      340.310       14.242      861.521
08/27/2013  07:14:00     -104.053      -72.922       -8.099       24.188       24.908       17.560      585.054      620.432      308.349        0.886        0.076      127.062       16.475        0.017      340.299       14.223      861.513
08/27/2013  07:15:00      -72.202      -53.237       -0.711       31.023       27.433       20.545      962.432      752.593      422.116        0.509        0.107       89.707       19.909        0.049      340.302       14.228      861.496
08/27/2013  07:16:00      -87.912      -71.425       -2.558       23.087       24.640       17.416      533.030      607.114      303.331        0.714        0.072      113.269       15.096        0.018      340.313       14.249      861.476
08/27/2013  07:17:00      -38.126      -45.812        2.771       40.431       32.073       19.420     1634.649     1028.672      377.121        0.330        0.152       59.601       20.618        0.120      340.347       14.306      861.476
08/27/2013  07:18:00      -70.758      -47.900       -2.534       31.451       18.095       19.986      989.138      327.416      399.454        0.451        0.086       85.447       23.116        0.073      340.358       14.323      861.476
08/27/2013  07:19:00      -28.741      -27.907        0.781       39.533       21.062       16.827     1562.844      443.606      283.164        0.195        0.114       40.061       15.117        0.142      340.429       14.442      861.470
08/27/2013  07:20:00      -25.215      -24.643        6.988       31.343       17.476       13.579      982.373      305.399      184.395        0.138        0.074       35.257       14.970        0.180      340.447       14.473      861.475
08/27/2013  07:21:00      -52.136      -28.393       -1.825       23.805       19.415       12.035      566.655      376.958      144.846        0.231        0.054       59.366        6.311        0.011      340.402       14.398      861.491
08/27/2013  07:22:00      -72.602      -36.051        0.699       29.901       17.752       11.310      894.095      315.125      127.917        0.395        0.067       81.060       14.617        0.033      340.384       14.368      861.501
08/27/2013  07:23:00      -54.312      -56.617        2.015       37.776       32.696       23.620     1427.020     1068.998      557.886        0.461        0.153       78.456       21.823        0.077      340.412       14.417      861.502
08/27/2013  07:24:00      -91.718      -93.975       -2.289       41.643       28.929       22.395     1734.165      836.908      501.524        1.016        0.154      131.315       24.768        0.036      340.378       14.356      861.512
08/27/2013  07:25:00     -116.920      -97.528       -6.864       31.315       41.169       23.010      980.598     1694.882      529.479        1.322        0.160      152.256       16.848        0.012      340.317       14.253      861.509
08/27/2013  07:26:00     -108.569     -105.044       -5.311       38.129       38.619       26.957     1453.825     1491.400      726.664        1.326        0.184      151.068       22.792        0.023      340.333       14.281      861.506
08/27/2013  07:27:00     -101.619      -87.558       -4.404       38.691       45.505       26.996     1496.959     2070.674      728.767        1.115        0.215      134.137       20.015        0.022      340.330       14.276      861.503
08/27/2013  07:28:00     -132.062     -109.229       -8.409       58.294       45.575       31.871     3398.136     2077.095     1015.736        1.797        0.325      171.381       29.691        0.030      340.262       14.161      861.509
08/27/2013  07:29:00     -138.916     -103.349       -5.935       47.559       32.628       29.462     2261.869     1064.616      867.982        1.710        0.210      173.144       26.304        0.023      340.261       14.159      861.504
08/27/2013  07:30:00     -122.885     -116.769      -11.701       32.904       39.142       22.858     1082.656     1532.124      522.489        1.600        0.157      169.516       13.542        0.006      340.274       14.181      861.488
08/27/2013  07:31:00     -112.987      -86.030       -1.980       39.036       38.159       27.236     1523.825     1456.116      741.781        1.195        0.186      142.011       23.407        0.027      340.304       14.233      861.490
08/27/2013  07:32:00      -94.785      -86.130       -3.286       44.770       35.188       22.671     2004.308     1238.222      513.965        1.008        0.188      128.072       14.842        0.013      340.315       14.251      861.492
08/27/2013  07:33:00     -113.882      -86.193      -10.340       38.717       25.345       23.550     1498.973      642.381      554.579        1.160        0.135      142.822       16.339        0.013      340.322       14.262      861.486
08/27/2013  07:34:00      -69.951      -37.881        0.979       50.411       34.915       26.753     2541.274     1219.086      715.713        0.540        0.224       79.549       26.706        0.113      340.353       14.314      861.491
08/27/2013  07:35:00      -97.423      -54.462        3.534       65.914       50.773       31.685     4344.690     2577.938     1003.912        1.020        0.396      111.612       36.166        0.105      340.301       14.225      861.496
08/27/2013  07:36:00      -97.142      -90.765        5.917       50.858       38.990       29.044     2586.508     1520.231      843.575        1.133        0.248      132.947       22.687        0.029      340.269       14.172      861.507
08/27/2013  07:37:00     -143.748     -125.250       -6.158       60.508       50.963       37.384     3661.236     2597.250     1397.548        2.202        0.383      190.660       29.401        0.024      340.282       14.193      861.501
08/27/2013  07:38:00     -156.421      -92.241       -7.248       32.964       44.010       29.216     1086.593     1936.837      853.564        1.845        0.194      181.593       26.770        0.022      340.303       14.228      861.510
08/27/2013  07:39:00     -133.661     -108.761      -12.593       33.503       32.670       20.558     1122.460     1067.343      422.617        1.623        0.131      172.320       14.785        0.007      340.320       14.258      861.525
08/27/2013  07:40:00     -127.320     -110.577       -3.436       31.577       54.570       27.655      997.099     2977.901      764.772        1.659        0.237      168.635       23.954        0.020      340.399       14.392      861.546
08/27/2013  07:41:00     -118.962     -108.836      -12.021       20.954       28.146       20.540      439.078      792.194      421.908        1.390        0.083      161.236       18.502        0.013      340.390       14.379      861.545
08/27/2013  07:42:00     -116.959     -109.547      -12.168       26.045       21.417       20.069      678.352      458.708      402.783        1.368        0.077      160.250       17.536        0.012      340.393       14.384      861.548
08/27/2013  07:43:00      -90.606      -61.216       -2.079       33.695       35.808       21.789     1135.340     1282.182      474.762        0.743        0.145      109.347       19.397        0.031      340.386       14.372      861.548
08/27/2013  07:44:00      -73.867      -70.967        2.214       40.767       43.120       24.954     1661.912     1859.375      622.708        0.732        0.207      102.434       26.274        0.066      340.431       14.445      861.544
08/27/2013  07:45:00      -61.917      -88.112       -0.087       29.978       28.644       19.764      898.680      820.495      390.609        0.685        0.105      107.691       17.949        0.028      340.437       14.458      861.544
08/27/2013  07:46:00      -59.922      -61.489       -6.710       28.495       23.230       14.346      811.952      539.653      205.794        0.449        0.078       85.858       14.273        0.028      340.510       14.580      861.553
08/27/2013  07:47:00      -52.330      -45.172       -4.164       19.120       18.039       13.034      365.578      325.392      169.876        0.283        0.043       69.130        9.254        0.018      340.563       14.673      861.559
08/27/2013  07:48:00      -63.260      -25.952       -3.848       25.865       15.030       14.764      669.023      225.891      217.985        0.290        0.056       68.376       14.861        0.047      340.574       14.687      861.547
08/27/2013  07:49:00      -50.618      -55.291       -4.220       25.562       17.716       13.643      653.435      313.841      186.127        0.339        0.058       74.961       14.101        0.035      340.575       14.691      861.545
08/27/2013  07:50:00      -38.643      -53.997       -2.617       25.720       25.965       14.981      661.509      674.182      224.440        0.299        0.078       66.400       14.249        0.046      340.626       14.777      861.549
08/27/2013  07:51:00       -7.005      -31.284       13.044       22.079       19.134       16.335      487.502      366.111      266.830        0.116        0.056       32.059       12.276        0.147      340.759       15.002      861.543
08/27/2013  07:52:00      -52.516      -28.332       -9.215       18.827       18.494        8.715      354.437      342.039       75.959        0.221        0.039       59.671        3.960        0.004      340.603       14.737      861.545
08/27/2013  07:53:00      -48.320      -46.319       -2.945       13.733       11.649       10.137      188.607      135.689      102.760        0.246        0.021       66.935        4.426        0.004      340.654       14.824      861.549
08/27/2013  07:54:00      -45.639      -49.418       -3.528       22.358       14.381       10.067      499.871      206.802      101.352        0.267        0.040       67.268       10.549        0.025      340.684       14.874      861.554
08/27/2013  07:55:00      -34.869      -69.714        1.568       25.374       33.647       14.507      643.859     1132.139      210.444        0.403        0.099       77.948       17.920        0.053      340.733       14.958      861.560
08/27/2013  07:56:00      -63.349      -64.419       -8.813       32.945       29.802       21.036     1085.353      888.175      442.526        0.533        0.121       90.349       21.360        0.056      340.717       14.930      861.578
08/27/2013  07:57:00      -73.280      -61.426        2.027       47.675       33.762       21.925     2272.902     1139.847      480.719        0.652        0.195       95.620       24.569        0.066      340.702       14.905      861.591
08/27/2013  07:58:00     -107.364      -80.576      -18.065       15.361       17.591       14.645      235.961      309.448      214.463        0.955        0.038      134.237        7.308        0.003      340.699       14.902      861.604
08/27/2013  07:59:00      -86.197      -74.689       -6.587       24.154       19.484       15.014      583.403      379.625      225.433        0.712        0.059      114.054        4.981        0.002      340.738       14.967      861.613
08/27/2013  08:00:00      -83.313      -82.311      -10.209       24.091       23.590       19.082      580.354      556.486      364.108        0.766        0.075      117.116        8.362        0.005      340.759       15.004      861.619
08/27/2013  08:01:00      -34.575      -66.550       -6.409       21.839       24.371       13.014      476.931      593.956      169.356        0.345        0.062       74.996       12.099        0.026      340.841       15.138      861.638
08/27/2013  08:02:00      -40.144      -42.637       -7.398       12.504        7.917        9.709      156.353       62.685       94.273        0.190        0.016       58.562        2.569        0.002      340.864       15.178      861.639
08/27/2013  08:03:00      -53.468      -34.531       -1.219       20.116       18.707       16.483      404.662      349.934      271.694        0.254        0.051       63.650        4.567        0.005      340.885       15.215      861.647
08/27/2013  08:04:00      -35.453      -68.535       -6.594       20.055       13.485       13.253      402.192      181.833      175.645        0.338        0.038       77.162        4.363        0.003      340.866       15.183      861.644
08/27/2013  08:05:00      -40.583      -33.494       -2.444       18.168       12.585       14.149      330.086      158.385      200.195        0.173        0.034       52.620       10.158        0.037      340.960       15.342      861.647
08/27/2013  08:06:00      -57.587      -61.673       -9.604       18.979       32.902       14.334      360.207     1082.538      205.454        0.443        0.082       84.379        7.490        0.008      340.921       15.277      861.651
08/27/2013  08:07:00      -34.081      -51.993        0.510       22.863       17.443       15.748      522.710      304.247      248.010        0.247        0.054       62.167       15.587        0.063      340.963       15.348      861.655
08/27/2013  08:08:00      -47.692      -48.169       -1.967       27.099       17.431       16.523      734.330      303.839      273.020        0.295        0.066       67.784       16.889        0.062      341.032       15.463      861.648
08/27/2013  08:09:00      -58.465      -59.909        1.994       26.485       28.591       20.951      701.460      817.426      438.950        0.448        0.098       83.709       13.561        0.026      341.032       15.463      861.653
08/27/2013  08:10:00      -42.828      -59.583       -6.409       12.563       11.832        7.980      157.826      139.996       63.674        0.289        0.018       73.379        5.951        0.007      341.018       15.437      861.651
08/27/2013  08:11:00      -32.976      -35.925        1.703       22.365       24.738       16.064      500.178      611.945      258.039        0.188        0.069       48.765       16.932        0.121      341.113       15.601      861.655
08/27/2013  08:12:00      -31.504      -36.401       -5.395       28.578       25.489       14.156      816.693      649.666      200.390        0.201        0.083       48.141       16.498        0.117      341.113       15.601      861.658
08/27/2013  08:13:00      -20.553      -31.272       -1.490        8.891       11.702        6.035       79.057      136.943       36.419        0.083        0.013       37.422        4.515        0.015      341.112       15.595      861.657
08/27/2013  08:14:00      -11.404      -58.909       -1.432        7.742        8.584        7.250       59.944       73.678       52.568        0.189        0.009       60.002        5.049        0.007      341.086       15.558      861.643
08/27/2013  08:15:00      -10.898      -15.669        0.105       13.999       18.498        6.930      195.963      342.161       48.029        0.048        0.029       19.086        4.936        0.067      341.190       15.732      861.645
08/27/2013  08:16:00      -19.660        4.955      -10.946       12.689       12.285       10.692      161.018      150.911      114.312        0.048        0.021       20.274        5.936        0.086      341.194       15.737      861.645
08/27/2013  08:17:00      -17.600      -31.044       -6.179       19.303       27.453       13.567      372.607      753.644      184.050        0.131        0.066       35.687       11.917        0.112      341.257       15.845      861.643
08/27/2013  08:18:00      -20.652      -21.569       -5.594       14.320       12.742       12.481      205.059      162.368      155.783        0.072        0.026       29.862        4.192        0.020      341.254       15.840      861.631
08/27/2013  08:19:00      -16.959       -5.389        6.877       13.586       12.955       13.516      184.586      167.821      182.685        0.045        0.027       17.794       10.115        0.323      341.363       16.025      861.620
08/27/2013  08:20:00        6.519        2.089       19.003       10.020        5.334       13.646      100.399       28.450      186.214        0.036        0.016        6.845        5.061        0.547      341.618       16.455      861.598
08/27/2013  08:21:00      -12.904       -8.683        7.248       12.325       11.529        7.253      151.909      132.922       52.610        0.032        0.017       15.553        6.553        0.178      341.583       16.398      861.575
08/27/2013  08:22:00      -38.176      -17.583       -1.607       15.536        9.183        5.633      241.381       84.330       31.727        0.106        0.018       42.030        4.935        0.014      341.248       15.828      861.559
08/27/2013  08:23:00      -18.385       -7.550       -3.381       12.287       13.337        7.998      150.981      177.882       63.970        0.040        0.020       19.875        5.342        0.072      341.242       15.819      861.541
08/27/2013  08:24:00       -3.234      -14.776       -5.686       17.066       27.033       18.350      291.261      730.772      336.739        0.081        0.068       15.126       10.640        0.495      341.312       15.938      861.521
08/27/2013  08:25:00       -7.980      -40.382       -1.066       20.143       19.253       20.591      405.757      370.680      423.982        0.145        0.060       41.163        4.769        0.013      341.094       15.568      861.517
08/27/2013  08:26:00        6.392      -25.513        6.664       15.409       20.005       18.463      237.443      400.183      340.877        0.086        0.049       26.302       13.575        0.266      341.301       15.918      861.515
08/27/2013  08:27:00       26.100      -27.231       -0.406       28.941       28.041       23.390      837.578      786.270      547.099        0.180        0.109       37.719       16.373        0.188      341.306       15.928      861.527
08/27/2013  08:28:00       35.928      -32.607       18.251       41.629       24.379       21.821     1733.003      594.336      476.174        0.274        0.140       48.519       14.506        0.089      341.132       15.632      861.536
08/27/2013  08:29:00       14.637       -9.832        6.207       18.932       20.122       20.351      358.419      404.886      414.150        0.076        0.059       17.632        9.513        0.291      341.351       16.005      861.538
08/27/2013  08:30:00        0.141      -11.235       -7.529       20.480       16.975       15.136      419.447      288.143      229.090        0.056        0.047       11.236       13.149        1.370      341.330       15.967      861.538
08/27/2013  08:31:00      -23.900      -11.709       -1.279       11.618       14.103       11.909      134.972      198.905      141.834        0.059        0.024       26.614        7.435        0.078      341.387       16.064      861.538
08/27/2013  08:32:00      -38.625      -27.446       -1.192       21.848       16.577       13.416      477.349      274.806      179.987        0.159        0.047       47.383       13.098        0.076      341.527       16.301      861.541
08/27/2013  08:33:00      -30.082      -62.295       -4.683       28.571       39.873       20.369      816.329     1589.878      414.916        0.381        0.141       69.178       12.558        0.033      341.540       16.322      861.550
08/27/2013  08:34:00      -46.742      -57.179       -3.521       21.901       23.324       15.449      479.635      544.014      238.683        0.336        0.063       73.853       14.818        0.040      341.540       16.323      861.558
08/27/2013  08:35:00      -57.611      -47.150      -10.558       18.060       16.232        9.820      326.161      263.463       96.424        0.317        0.034       74.445        8.065        0.012      341.527       16.300      861.558
08/27/2013  08:36:00      -25.707      -34.409       12.469       33.775       29.538       17.739     1140.768      872.470      314.677        0.216        0.116       42.952       20.663        0.231      341.791       16.750      861.551
08/27/2013  08:37:00      -59.117      -74.080       -0.273       22.250       24.577       17.454      495.074      604.021      304.641        0.519        0.070       94.777       13.237        0.020      341.556       16.349      861.551
08/27/2013  08:38:00      -46.782      -34.870       -1.669       23.391       34.830       18.605      547.126     1213.100      346.146        0.276        0.105       58.348        4.348        0.006      341.605       16.434      861.544
08/27/2013  08:39:00      -28.289      -48.848       -2.929       11.141       12.204       10.700      124.118      148.942      114.482        0.179        0.019       56.448        1.506        0.001      341.608       16.441      861.523
08/27/2013  08:40:00       -7.085      -45.978       -2.429       21.137       16.754       20.212      446.761      280.690      408.524        0.165        0.057       46.521        8.997        0.037      341.670       16.542      861.510
08/27/2013  08:41:00       -6.274       -1.671        0.381       15.078       12.213       15.775      227.349      149.160      248.847        0.033        0.031        6.493       11.245        3.000      341.897       16.927      861.497
08/27/2013  08:42:00       -9.669        5.231        5.233       10.297        9.370       12.754      106.023       87.796      162.664        0.025        0.018       10.993        5.863        0.284      342.125       17.317      861.495
08/27/2013  08:43:00        8.890      -12.380       10.391       19.203       17.016       16.897      368.736      289.552      285.492        0.064        0.047       15.241       11.547        0.574      342.056       17.199      861.500
08/27/2013  08:44:00      -30.597      -50.789       -3.340       14.134       17.918        9.821      199.783      321.040       96.452        0.207        0.031       59.294        8.063        0.018      341.749       16.678      861.498
08/27/2013  08:45:00      -39.055      -38.909       -1.180       29.761       38.251       15.195      885.712     1463.155      230.899        0.281        0.129       55.129       17.781        0.104      341.940       17.001      861.491
08/27/2013  08:46:00      -78.765      -59.461       -5.987       36.367       21.152       18.713     1322.543      447.414      350.173        0.595        0.106       98.689       18.951        0.037      341.886       16.909      861.491
08/27/2013  08:47:00      -52.041      -93.422       -0.648       46.742       36.637       22.408     2184.835     1342.234      502.128        0.773        0.201      106.939       24.099        0.051      341.940       17.000      861.489
08/27/2013  08:48:00      -36.188      -78.845       -2.428       21.839       28.685       14.391      476.961      822.833      207.089        0.452        0.075       86.753       11.413        0.017      341.932       16.989      861.490
08/27/2013  08:49:00      -44.260      -36.578        4.279       40.315       30.815       28.307     1625.309      949.592      801.306        0.335        0.169       57.419       22.317        0.151      342.204       17.450      861.489
08/27/2013  08:50:00      -57.026      -66.948       -4.855       21.456       26.702       12.716      460.378      713.018      161.693        0.455        0.067       87.943        9.895        0.013      342.119       17.305      861.493
08/27/2013  08:51:00      -49.042      -58.969       -0.488       38.283       46.639       24.800     1465.578     2175.220      615.052        0.507        0.213       76.697       24.776        0.104      342.211       17.462      861.500
08/27/2013  08:52:00      -16.829      -99.714        6.275       17.474       53.017       16.330      305.325     2810.793      266.681        0.682        0.169      101.124        9.917        0.010      342.127       17.321      861.510
08/27/2013  08:53:00      -62.817      -48.279       12.224       58.455       51.346       28.166     3417.013     2636.389      793.332        0.664        0.342       79.226       33.651        0.180      342.435       17.842      861.511
08/27/2013  08:54:00      -61.969      -44.536       -8.563       34.627       17.971       20.058     1199.000      322.941      402.309        0.391        0.096       76.313       19.773        0.067      342.208       17.457      861.515
08/27/2013  08:55:00      -59.529      -34.341        2.300       42.516       24.408       19.877     1807.651      595.751      395.113        0.376        0.140       68.724       21.333        0.096      342.365       17.722      861.511
08/27/2013  08:56:00      -93.685      -10.460        0.473       57.330       40.251       30.194     3286.768     1620.133      911.668        0.735        0.291       94.268       30.177        0.102      342.600       18.124      861.501
08/27/2013  08:57:00     -105.652       -5.232        1.984       53.746       42.008       31.964     2888.620     1764.677     1021.728        0.843        0.284      105.781       31.227        0.087      342.444       17.857      861.487
08/27/2013  08:58:00      -99.296      -29.704        3.877       41.184       35.950       25.669     1696.135     1292.420      658.921        0.720        0.182      103.644       23.260        0.050      342.425       17.825      861.487
08/27/2013  08:59:00     -115.818      -15.393       -4.848       43.727       25.358       23.162     1912.065      643.050      536.464        0.838        0.155      116.836       23.849        0.042      342.308       17.626      861.487
08/27/2013  09:00:00     -148.225      -33.096       -2.289       48.710       44.197       25.640     2372.630     1953.343      657.390        1.403        0.249      151.875       22.279        0.022      342.293       17.601      861.484
08/27/2013  09:01:00     -101.960      -49.168       -2.961       37.202       23.215       17.687     1383.956      538.958      312.838        0.753        0.112      113.196       19.192        0.029      342.291       17.598      861.474
08/27/2013  09:02:00      -81.706      -36.742       -3.051       42.326       38.567       18.448     1791.451     1487.417      340.321        0.583        0.181       89.587       24.440        0.074      342.367       17.727      861.473
08/27/2013  09:03:00      -70.050      -82.991      -11.111       29.498       20.999       13.910      870.126      440.973      193.487        0.671        0.075      108.603       11.580        0.011      342.301       17.613      861.481
08/27/2013  09:04:00      -48.070      -45.536        0.903       25.512       21.372       11.472      650.886      456.779      131.597        0.281        0.062       66.213        6.195        0.009      342.415       17.810      861.481
08/27/2013  09:05:00      -60.706      -70.240      -12.329       16.710       24.909       12.973      279.211      620.441      168.297        0.492        0.053       92.838        2.766        0.001      342.364       17.722      861.483
08/27/2013  09:06:00      -55.951      -66.500       -2.530       28.935       19.911       16.570      837.235      396.458      274.576        0.453        0.075       86.907       16.294        0.035      342.414       17.807      861.484
08/27/2013  09:07:00      -51.497      -59.157        6.069       37.639       29.527       22.207     1416.663      871.840      493.156        0.448        0.139       78.431       21.176        0.073      342.535       18.013      861.489
08/27/2013  09:08:00      -44.740      -54.008        0.016       43.318       27.182       18.823     1876.452      738.885      354.302        0.394        0.148       70.132       20.975        0.089      342.548       18.036      861.495
08/27/2013  09:09:00      -66.787      -63.489        2.117       33.721       29.701       21.195     1137.093      882.127      449.216        0.548        0.123       92.149       21.002        0.052      342.548       18.036      861.504
08/27/2013  09:10:00      -46.539      -53.808       -4.244       24.428       26.472       11.821      596.742      700.792      139.746        0.326        0.072       71.142        9.120        0.016      342.524       17.996      861.511
08/27/2013  09:11:00      -38.940      -56.504        1.532       44.739       26.869       19.135     2001.596      721.954      366.157        0.390        0.154       68.622       15.726        0.053      342.600       18.123      861.508
08/27/2013  09:12:00     -110.561      -28.797       -0.082       23.292       34.222       22.717      542.524     1171.121      516.050        0.764        0.111      114.250       17.552        0.024      342.586       18.100      861.508
08/27/2013  09:13:00      -37.402      -64.053        0.918       32.346       32.640       16.309     1046.232     1065.367      265.984        0.394        0.119       74.174        9.586        0.017      342.606       18.134      861.501
08/27/2013  09:14:00      -85.850      -39.376       -1.733       41.698       26.764       18.606     1738.728      716.298      346.187        0.586        0.140       94.449       20.696        0.048      342.680       18.259      861.492
08/27/2013  09:15:00      -64.491        9.288       11.236       52.378       35.212       28.172     2743.409     1239.872      793.635        0.457        0.239       65.156       30.901        0.225      342.921       18.669      861.488
08/27/2013  09:16:00      -43.571        0.228       10.154       50.136       28.909       22.480     2513.657      835.757      505.364        0.293        0.193       43.572       25.225        0.335      342.980       18.770      861.485
08/27/2013  09:17:00      -16.862      -18.328       18.303       39.409       36.987       20.780     1553.055     1368.038      431.810        0.215        0.168       24.905       21.431        0.740      343.378       19.447      861.481
08/27/2013  09:18:00      -90.926      -46.648       -0.367       40.894       43.312       18.058     1672.282     1875.900      326.083        0.716        0.194      102.194       19.946        0.038      342.773       18.417      861.486
08/27/2013  09:19:00      -84.373       -7.627       -5.336       25.255       20.974       12.123      637.794      439.893      146.957        0.421        0.061       84.717        8.884        0.011      342.714       18.316      861.488
08/27/2013  09:20:00      -39.364      -89.199      -11.770       49.361       27.414       22.089     2436.467      751.526      487.907        0.666        0.184       97.498       15.800        0.026      342.674       18.248      861.473
08/27/2013  09:21:00      -35.543      -44.231       11.594       32.914       38.722       26.369     1083.341     1499.379      695.339        0.332        0.164       56.742       18.844        0.110      343.078       18.937      861.469
08/27/2013  09:22:00      -59.113      -64.472       -3.491       32.983       23.749       18.766     1087.884      563.996      352.181        0.483        0.100       87.470       18.755        0.046      342.775       18.420      861.469
08/27/2013  09:23:00      -12.049      -42.844        4.772       17.175       23.972       15.657      294.965      574.668      245.132        0.156        0.056       44.506       12.404        0.078      342.885       18.609      861.466
08/27/2013  09:24:00        3.021      -60.892       -3.345       19.367       25.514       17.890      375.087      650.962      320.034        0.254        0.067       60.967        6.794        0.012      342.758       18.394      861.466
08/27/2013  09:25:00       22.631      -16.999       11.495       19.166       17.135       20.791      367.345      293.595      432.245        0.101        0.055       28.305       12.309        0.189      343.078       18.938      861.469
08/27/2013  09:26:00      -16.743      -60.779       -8.403       22.508       31.946       20.147      506.610     1020.564      405.911        0.299        0.097       63.043       15.895        0.064      342.956       18.728      861.471
08/27/2013  09:27:00      -21.145      -31.727        6.815       44.126       27.589       22.458     1947.139      761.141      504.369        0.236        0.161       38.128       17.346        0.207      343.118       19.005      861.465
08/27/2013  09:28:00      -66.266      -76.139       -1.184       37.729       49.294       20.871     1423.496     2429.909      435.611        0.724        0.214      100.937       17.286        0.029      343.015       18.828      861.459
08/27/2013  09:29:00      -78.215      -32.608       -2.897       41.205       47.480       18.362     1697.875     2254.381      337.171        0.574        0.214       84.740       16.341        0.037      343.002       18.808      861.448
08/27/2013  09:30:00      -44.037      -25.009        0.641       24.933       23.228       13.702      621.643      539.519      187.757        0.196        0.067       50.643       11.357        0.050      343.107       18.986      861.425
08/27/2013  09:31:00      -41.282       -8.197       12.008       61.141       31.833       17.142     3738.254     1013.355      293.849        0.348        0.252       42.088       24.931        0.351      343.508       19.669      861.412
08/27/2013  09:32:00     -109.539       24.639       -2.727       50.033       33.893       20.774     2503.293     1148.719      431.559        0.835        0.204      112.275       19.744        0.031      343.208       19.158      861.391
08/27/2013  09:33:00      -60.777       26.008      -13.897       27.163       15.128       10.896      737.855      228.855      118.723        0.282        0.054       66.108        8.480        0.016      343.077       18.936      861.380
08/27/2013  09:34:00      -18.680        3.794       16.685       12.827       13.446       10.623      164.536      180.796      112.843        0.055        0.023       19.061        5.507        0.083      343.726       20.041      861.371
08/27/2013  09:35:00      -22.692       -5.640       -0.892       12.109        8.401       13.474      146.638       70.572      181.541        0.047        0.020       23.382        4.075        0.030      343.473       19.610      861.363
08/27/2013  09:36:00       21.414      -52.228        6.260       25.143       34.656       20.381      632.173     1201.048      415.395        0.274        0.112       56.448        8.928        0.025      343.451       19.573      861.357
08/27/2013  09:37:00      -21.442      -73.601      -11.016       40.229       20.148       19.941     1618.358      405.934      397.627        0.421        0.121       76.661       12.808        0.028      343.134       19.033      861.355
08/27/2013  09:38:00      -45.499      -83.178       -0.695       24.347       17.097       17.487      592.790      292.294      305.790        0.509        0.060       94.809       10.979        0.013      343.269       19.262      861.359
08/27/2013  09:39:00      -23.734      -67.121       -0.863       25.365       24.756       15.722      643.375      612.853      247.185        0.329        0.075       71.194       10.822        0.023      343.348       19.397      861.365
08/27/2013  09:40:00      -64.219      -20.222        1.202       26.489       24.804       13.038      701.657      615.235      169.989        0.301        0.074       67.328       11.239        0.028      343.370       19.434      861.359
08/27/2013  09:41:00      -53.816      -43.916        4.766       41.461       31.288       26.580     1718.996      978.940      706.500        0.413        0.170       69.461       23.891        0.118      343.613       19.849      861.355
08/27/2013  09:42:00     -118.971      -53.311       -6.628       28.208       31.443       19.505      795.683      988.638      380.442        0.960        0.108      130.370       19.802        0.023      343.402       19.487      861.357
08/27/2013  09:43:00      -87.932      -23.920        1.406       36.554       35.743       20.245     1336.187     1277.562      409.880        0.566        0.151       91.127       18.894        0.043      343.551       19.742      861.360
08/27/2013  09:44:00      -37.130        6.482       11.025       24.747       24.906       20.970      612.409      620.293      439.732        0.161        0.084       37.691       18.278        0.235      343.747       20.076      861.349
08/27/2013  09:45:00      -28.839        2.265       22.045       34.659       20.598       19.510     1201.215      424.274      380.657        0.166        0.100       28.928       21.856        0.571      344.240       20.918      861.349
08/27/2013  09:46:00     -106.971      -51.102       -9.455       41.456       30.154       23.875     1718.566      909.283      570.035        0.867        0.160      118.551       20.498        0.030      343.467       19.598      861.346
08/27/2013  09:47:00      -13.192      -24.006       26.811       52.401       20.517       22.698     2745.868      420.946      515.197        0.257        0.184       27.393       25.905        0.894      343.955       20.433      861.331
08/27/2013  09:48:00      -29.911      -18.211       13.412       18.412       30.337       20.377      339.014      920.331      415.203        0.154        0.084       35.019       16.036        0.210      343.872       20.290      861.329
08/27/2013  09:49:00      -53.146      -26.276       12.820       61.671       39.673       27.423     3803.366     1573.974      752.048        0.490        0.306       59.287       35.290        0.354      343.949       20.420      861.326
08/27/2013  09:50:00      -85.243      -41.984       -0.819       30.393       26.964       18.686      923.749      727.070      349.159        0.551        0.100       95.021       13.997        0.022      343.523       19.695      861.320
08/27/2013  09:51:00      -76.474        1.703       -7.227       22.829       17.533       10.502      521.153      307.399      110.296        0.342        0.047       76.493        6.414        0.007      343.487       19.633      861.313
08/27/2013  09:52:00      -41.702       31.597       -6.243       14.363       20.025       14.666      206.289      400.985      215.103        0.180        0.041       52.321       10.850        0.043      343.700       19.996      861.307
08/27/2013  09:53:00      -12.260       31.065       -6.174       15.686       19.611       18.026      246.043      384.602      324.932        0.105        0.048       33.397        7.779        0.054      343.912       20.358      861.292
08/27/2013  09:54:00        6.626       13.560       29.532       17.649       14.493       11.011      311.472      210.056      121.252        0.087        0.032       15.092        4.290        0.081      344.684       21.676      861.285
08/27/2013  09:55:00      -49.339      -14.028       10.539       43.233       29.444       16.569     1869.074      866.934      274.537        0.288        0.151       51.295       18.632        0.132      344.118       20.710      861.272
08/27/2013  09:56:00      -98.140      -11.083        2.186       37.866       33.121       19.911     1433.842     1096.983      396.436        0.634        0.146       98.763       15.880        0.026      343.733       20.052      861.268
08/27/2013  09:57:00     -100.845      -13.802        2.972       25.791       27.757       15.138      665.156      770.443      229.152        0.602        0.083      101.785       13.517        0.018      343.628       19.874      861.259
08/27/2013  09:58:00      -19.462      -21.018        0.649       32.489       22.417       18.385     1055.516      502.515      338.003        0.136        0.095       28.645       19.793        0.477      344.042       20.582      861.240
08/27/2013  09:59:00      -11.272      -33.290        2.779       20.232       20.493       14.406      409.318      419.952      207.523        0.114        0.052       35.146        9.853        0.079      344.010       20.525      861.228
08/27/2013  10:00:00      -26.235      -13.174        1.582       21.466       21.815       12.552      460.795      475.890      157.553        0.098        0.055       29.357       11.061        0.142      344.053       20.599      861.212
08/27/2013  10:01:00        4.798      -38.918        2.094       61.141       28.334       18.182     3738.240      802.796      330.588        0.321        0.244       39.213       15.853        0.163      343.702       20.000      861.196
08/27/2013  10:02:00      -28.489      -22.819        4.712       26.759       20.818       21.908      716.018      433.384      479.970        0.149        0.081       36.501       12.066        0.109      343.916       20.364      861.192
08/27/2013  10:03:00      -21.017      -25.542       21.209       55.622       27.455       23.385     3093.862      753.756      546.836        0.297        0.220       33.077       30.285        0.838      344.023       20.549      861.181
08/27/2013  10:04:00      -66.455      -34.334        3.078       30.056       26.973       16.538      903.361      727.517      273.495        0.375        0.095       74.800        9.256        0.015      343.966       20.451      861.182
08/27/2013  10:05:00      -32.916      -10.443        9.325       30.452       22.715       18.620      927.340      515.986      346.704        0.153        0.090       34.533       19.194        0.309      344.254       20.941      861.177
08/27/2013  10:06:00      -42.352       -8.629       -8.042       28.648       16.953       20.734      820.708      287.406      429.895        0.174        0.077       43.222       18.583        0.185      344.263       20.958      861.178
08/27/2013  10:07:00      -19.656      -26.804        1.601       40.813       37.932       21.618     1665.727     1438.833      467.324        0.234        0.179       33.239       15.990        0.231      344.276       20.980      861.178
08/27/2013  10:08:00      -40.384      -45.604       -5.432       32.673       33.855       17.749     1067.494     1146.151      315.040        0.313        0.126       60.914       23.059        0.143      344.136       20.741      861.162
08/27/2013  10:09:00      -42.160      -34.424       -3.747       29.543       23.533       19.759      872.811      553.780      390.413        0.240        0.091       54.428       14.212        0.068      344.095       20.670      861.153
08/27/2013  10:10:00        6.359      -11.725        7.615       26.754       21.220       23.283      715.768      450.295      542.113        0.097        0.085       13.338       13.317        0.997      344.523       21.403      861.123
08/27/2013  10:11:00      -12.759      -27.941       -3.247       17.431       26.092       17.680      303.853      680.796      312.589        0.113        0.065       30.717        7.270        0.056      344.242       20.923      861.115
08/27/2013  10:12:00        9.024      -44.165       -4.034       31.193       32.044       25.464      973.032     1026.826      648.436        0.235        0.132       45.077       21.572        0.229      343.871       20.290      861.097
08/27/2013  10:13:00       29.972       -4.484       20.963       31.295       35.675       29.421      979.349     1272.726      865.608        0.224        0.156       30.306       26.247        0.750      344.259       20.951      861.096
08/27/2013  10:14:00        0.636       15.267       44.217       20.286       21.644       16.725      411.507      468.472      279.727        0.167        0.058       15.280       13.076        0.732      344.652       21.623      861.084
08/27/2013  10:15:00       75.069       -7.643       18.307       51.002       29.235       33.061     2601.205      854.657     1093.004        0.529        0.227       75.457       29.708        0.155      343.894       20.328      861.089
08/27/2013  10:16:00       98.880      -34.539        7.325       44.948       31.723       34.077     2020.338     1006.348     1161.247        0.761        0.209      104.739       21.762        0.043      343.706       20.007      861.077
08/27/2013  10:17:00       71.694      -38.404        4.472       27.941       32.604       26.124      780.681     1063.006      682.487        0.458        0.126       81.333       10.746        0.017      343.811       20.184      861.083
08/27/2013  10:18:00       29.940      -36.589        2.833       43.053       26.865       33.901     1853.521      721.705     1149.254        0.298        0.186       47.278       14.677        0.096      343.976       20.468      861.066
08/27/2013  10:19:00       44.112       -9.512       24.678       35.492       48.935       29.612     1259.712     2394.640      876.897        0.359        0.227       45.126       27.580        0.374      344.024       20.549      861.073
08/27/2013  10:20:00       52.751       26.637       21.981       21.523       23.720       19.654      463.222      562.660      386.279        0.269        0.071       59.095       16.563        0.079      343.956       20.434      861.054
08/27/2013  10:21:00       62.878       47.210       24.575       31.105       29.070       27.307      967.521      845.063      745.697        0.467        0.128       78.629       17.928        0.052      344.149       20.764      861.039
08/27/2013  10:22:00       39.135       20.783       19.101       34.665       38.116       25.976     1201.652     1452.834      674.764        0.283        0.166       44.311       12.625        0.081      344.724       21.746      861.013
08/27/2013  10:23:00       69.998       44.445       -2.312       28.870       28.138       24.530      833.456      791.744      601.700        0.455        0.111       82.916        5.111        0.004      344.544       21.440      861.009
08/27/2013  10:24:00        9.634       25.277       12.623       21.588       34.182       23.462      466.036     1168.419      550.446        0.154        0.109       27.051       19.111        0.499      344.792       21.863      860.997
08/27/2013  10:25:00       12.948       26.045        6.011       37.605       20.712       32.490     1414.118      428.976     1055.629        0.189        0.145       29.086       11.952        0.169      344.707       21.717      860.999
08/27/2013  10:26:00      -15.422        0.696      -15.779       16.739       12.549       15.374      280.196      157.469      236.368        0.058        0.034       15.438        4.467        0.084      344.536       21.425      860.993
08/27/2013  10:27:00      -45.451      -26.591      -14.536       20.794       17.207        9.902      432.406      296.098       98.044        0.191        0.041       52.658        4.590        0.008      344.314       21.046      860.984
08/27/2013  10:28:00      -92.940      -21.245      -11.322       16.730       17.426       13.982      279.895      303.656      195.507        0.500        0.039       95.337        6.695        0.005      344.180       20.815      860.976
08/27/2013  10:29:00      -67.633       17.182       -3.855       18.774       15.308       10.571      352.454      234.350      111.743        0.279        0.035       69.782        8.817        0.016      344.262       20.956      860.956
08/27/2013  10:30:00      -33.597        7.156        5.580       26.006       16.689       18.082      676.295      278.512      326.953        0.125        0.064       34.350       16.382        0.227      344.612       21.556      860.944
08/27/2013  10:31:00        2.276        8.377       23.465       23.971       15.399       15.923      574.590      237.144      253.542        0.085        0.053        8.681        8.722        1.010      345.412       22.923      860.926
08/27/2013  10:32:00       56.559       59.181       30.496       33.254       31.366       35.245     1105.850      983.796     1242.226        0.548        0.167       81.861       18.330        0.050      344.941       22.116      860.926
08/27/2013  10:33:00      105.379       68.686       13.458       21.433       25.484       23.861      459.376      649.451      569.325        0.884        0.084      125.787       13.153        0.011      344.353       21.110      860.909
08/27/2013  10:34:00       50.362       52.607        3.572       29.356       16.887       23.034      861.769      285.185      530.544        0.350        0.084       72.827       19.717        0.073      344.417       21.221      860.905
08/27/2013  10:35:00       37.778       38.780       17.354       41.874       24.249       22.413     1753.444      588.033      502.360        0.304        0.142       54.139       19.072        0.124      344.713       21.727      860.892
08/27/2013  10:36:00       71.722       73.407       -3.266       47.764       30.176       31.464     2281.430      910.561      990.000        0.736        0.209      102.629       16.033        0.024      344.531       21.416      860.884
08/27/2013  10:37:00      -15.646       25.716        3.961       33.994       23.927       27.698     1155.615      572.478      767.153        0.171        0.125       30.102       21.582        0.514      344.752       21.796      860.890
08/27/2013  10:38:00       -5.794        6.533       18.674       18.915       11.437       11.514      357.790      130.796      132.569        0.052        0.031        8.732        6.927        0.629      345.515       23.101      860.886
08/27/2013  10:39:00       16.306       32.026       11.611       20.128       24.894       17.949      405.150      619.722      322.153        0.139        0.067       35.938       13.150        0.134      345.251       22.649      860.885
08/27/2013  10:40:00       79.940       61.433        8.311       33.117       27.842       24.246     1096.717      775.166      587.851        0.635        0.123      100.819       19.229        0.036      344.612       21.555      860.889
08/27/2013  10:41:00       94.164       71.587       12.437       21.820       19.614       17.966      476.100      384.707      322.793        0.766        0.059      118.286       11.748        0.010      344.554       21.457      860.872
08/27/2013  10:42:00        8.800       -3.018       21.380       36.098       15.770       18.162     1303.064      248.690      329.871        0.121        0.094        9.303       22.055        5.620      344.876       22.006      860.877
08/27/2013  10:43:00      -32.206      -27.658        8.307       18.588       27.890       21.374      345.504      777.856      456.854        0.173        0.079       42.452       10.938        0.066      344.781       21.843      860.854
08/27/2013  10:44:00      -27.580        3.052       13.630       25.817       13.853       14.688      666.503      191.909      215.750        0.101        0.054       27.748       14.511        0.273      345.190       22.543      860.847
08/27/2013  10:45:00      -63.118       -6.960      -10.705       31.892       34.211       17.975     1017.080     1170.417      323.101        0.333        0.126       63.501       15.789        0.062      344.727       21.751      860.834
08/27/2013  10:46:00      -58.172       -9.075       -2.909       25.898       15.918       16.056      670.698      253.367      257.807        0.233        0.059       58.875       11.854        0.041      344.761       21.809      860.828
08/27/2013  10:47:00      -23.244       -3.515        2.981       12.770        9.617       13.595      163.084       92.483      184.824        0.050        0.022       23.508        8.625        0.135      345.048       22.300      860.828
08/27/2013  10:48:00      -49.638       -8.579      -10.830       17.690       16.927       11.563      312.930      286.523      133.703        0.169        0.037       50.374        6.219        0.015      344.696       21.698      860.827
08/27/2013  10:49:00      -35.119        5.208       -9.227       26.796       19.818       16.493      718.035      392.733      272.034        0.136        0.069       35.503       13.673        0.148      344.881       22.014      860.833
08/27/2013  10:50:00       -9.095      -12.037       12.663       16.424       16.923       16.751      269.734      286.388      280.602        0.061        0.042       15.087       15.948        1.117      345.540       23.144      860.839
08/27/2013  10:51:00        2.261      -40.083       13.674       32.131       22.709       24.543     1032.408      515.710      602.372        0.197        0.108       40.147       10.531        0.069      345.457       23.001      860.851
08/27/2013  10:52:00       20.321      -71.299       17.062       36.009       46.088       32.116     1296.676     2124.082     1031.462        0.512        0.223       74.138       22.092        0.089      345.337       22.795      860.840
08/27/2013  10:53:00       29.847      -86.961       -2.081       33.429       39.014       32.892     1117.475     1522.064     1081.877        0.609        0.186       91.941       20.388        0.049      345.102       22.393      860.844
08/27/2013  10:54:00       35.068      -59.586        3.890       52.341       61.987       43.376     2739.571     3842.351     1881.474        0.663        0.423       69.140       30.571        0.196      345.328       22.780      860.828
08/27/2013  10:55:00       34.045        7.872       31.858       42.245       35.904       35.178     1784.605     1289.105     1237.457        0.327        0.216       34.943       36.151        1.070      345.575       23.205      860.832
08/27/2013  10:56:00       20.996        8.130       22.252       29.531       25.845       22.896      872.075      667.985      524.242        0.153        0.103       22.516       12.949        0.331      345.540       23.144      860.821
08/27/2013  10:57:00       -9.890      -26.800       23.422       24.134       28.669       17.439      582.461      821.940      304.126        0.154        0.085       28.567       10.698        0.140      345.554       23.168      860.811
08/27/2013  10:58:00        6.990       -1.083       27.095       30.421       26.171       30.070      925.408      684.931      904.228        0.165        0.126        7.073       19.409        7.529      345.980       23.900      860.796
08/27/2013  10:59:00       31.302      -10.391       28.346       30.558       52.159       25.399      933.820     2720.593      645.125        0.309        0.215       32.981       18.965        0.331      345.433       22.961      860.791
08/27/2013  11:00:00       18.522       31.164       -6.390       23.403       26.818       27.325      547.693      719.207      746.670        0.168        0.101       36.253       21.175        0.341      345.194       22.550      860.781
08/27/2013  11:01:00       -6.226       51.312       -7.863       27.575       20.034       26.352      760.372      401.351      694.412        0.229        0.093       51.689       14.094        0.074      345.077       22.351      860.756
08/27/2013  11:02:00       -0.380       18.862       30.313       14.561       20.421       15.090      212.010      417.009      227.693        0.107        0.043       18.866        5.642        0.089      346.045       24.010      860.750
08/27/2013  11:03:00       30.443       34.051       -0.206       19.303       25.412       29.123      372.589      645.759      848.163        0.198        0.093       45.675       11.731        0.066      345.327       22.777      860.732
08/27/2013  11:04:00       28.142      -27.959       18.068       26.702       43.492       24.734      712.976     1891.580      611.772        0.256        0.161       39.670       21.312        0.289      345.431       22.956      860.718
08/27/2013  11:05:00       20.447       40.737       12.098       26.288       27.680       19.719      691.062      766.160      388.857        0.203        0.092       45.580       14.372        0.099      345.574       23.202      860.715
08/27/2013  11:06:00       88.024       75.239       37.145       41.852       26.616       32.192     1751.551      708.427     1036.343        0.914        0.175      115.798       16.125        0.019      345.158       22.489      860.703
08/27/2013  11:07:00       76.028       57.096       -7.925       30.144       27.867       21.726      908.640      776.588      472.014        0.563        0.108       95.080        8.642        0.008      345.220       22.595      860.694
08/27/2013  11:08:00       55.527       51.335       11.740       28.182       24.767       26.776      794.251      613.396      716.947        0.399        0.106       75.621       12.647        0.028      345.615       23.272      860.680
08/27/2013  11:09:00       10.989       14.416       20.743       25.997       33.268       21.773      675.850     1106.752      474.081        0.151        0.113       18.126       16.777        0.857      345.873       23.716      860.667
08/27/2013  11:10:00       12.556       31.502        9.929       34.329       46.685       23.227     1178.466     2179.453      539.479        0.257        0.195       33.912       14.208        0.176      345.908       23.775      860.661
08/27/2013  11:11:00       -0.699       45.254        8.604       19.950       38.989       22.042      398.011     1520.110      485.828        0.226        0.120       45.260       22.645        0.250      345.940       23.831      860.643
08/27/2013  11:12:00      -38.215       26.432      -14.245       17.656       32.150       23.300      311.721     1033.592      542.898        0.212        0.094       46.465        7.892        0.029      345.320       22.768      860.634
08/27/2013  11:13:00      -18.557       -4.162        3.196       13.115       18.543       17.214      172.003      343.847      296.333        0.059        0.041       19.018       11.686        0.378      345.492       23.059      860.616
08/27/2013  11:14:00      -34.596       23.876        2.203       17.900       24.108       22.888      320.414      581.205      523.855        0.160        0.071       42.035       13.816        0.108      345.557       23.172      860.608
08/27/2013  11:15:00      -39.590        7.402        4.656       21.984       20.298       19.429      483.292      412.015      377.470        0.146        0.064       40.276       14.707        0.133      345.557       23.173      860.586
08/27/2013  11:16:00        2.845       16.301       24.108       27.609       16.159       15.311      762.245      261.129      234.415        0.106        0.063       16.547        7.675        0.215      346.194       24.267      860.581
08/27/2013  11:17:00       67.362       58.765       23.689       57.747       34.919       24.528     3334.748     1219.326      601.639        0.685        0.258       89.393       25.033        0.078      345.594       23.238      860.560
08/27/2013  11:18:00       65.256       55.770       10.044       30.133       36.170       26.811      907.976     1308.269      718.832        0.520        0.147       85.840       15.004        0.031      345.456       22.999      860.555
08/27/2013  11:19:00       19.659       28.815       17.318       34.875       31.635       31.150     1216.262     1000.765      970.347        0.235        0.159       34.883       19.972        0.328      345.909       23.776      860.543
08/27/2013  11:20:00       40.650       72.304       -2.749       42.095       67.094       25.767     1771.949     4501.594      663.938        0.691        0.347       82.947       24.696        0.089      345.730       23.468      860.543
08/27/2013  11:21:00       18.889       94.334        0.083       33.813       66.614       30.679     1143.302     4437.387      941.203        0.789        0.326       96.207       33.768        0.123      345.715       23.444      860.531
08/27/2013  11:22:00       22.944       57.631       -3.674       32.054       38.891       23.039     1027.473     1512.526      530.806        0.347        0.154       62.030       23.706        0.146      345.850       23.675      860.527
08/27/2013  11:23:00       30.126       71.842        2.035       43.860       42.623       31.062     1923.694     1816.732      964.860        0.539        0.235       77.903       27.239        0.122      345.826       23.634      860.512
08/27/2013  11:24:00       -9.153       17.359      -10.710       56.952       42.124       28.117     3243.555     1774.413      790.579        0.315        0.290       19.624       28.998        2.183      345.840       23.658      860.502
08/27/2013  11:25:00      -32.570      -77.615       13.360       35.371       40.691       34.791     1251.124     1655.790     1210.446        0.569        0.206       84.172       17.634        0.044      345.771       23.541      860.494
08/27/2013  11:26:00       43.646      -80.251       16.602       39.295       36.208       33.761     1544.123     1311.013     1139.782        0.631        0.200       91.352       21.320        0.054      345.544       23.150      860.477
08/27/2013  11:27:00       54.782      -44.746        1.432       36.699       43.533       29.610     1346.781     1895.142      876.741        0.456        0.206       70.734       24.622        0.121      345.532       23.129      860.469
08/27/2013  11:28:00       33.663      -48.161        5.854       26.169       33.122       33.537      684.829     1097.087     1124.755        0.320        0.145       58.759       28.204        0.230      345.467       23.017      860.466
08/27/2013  11:29:00       20.965      -10.552       34.006       25.690       41.800       25.270      660.000     1747.208      638.548        0.238        0.152       23.471       26.637        1.288      346.009       23.949      860.452
08/27/2013  11:30:00       20.472      -40.132       14.381       21.264       52.133       25.958      452.159     2717.830      673.819        0.304        0.192       45.052       29.501        0.429      345.565       23.187      860.427
08/27/2013  11:31:00       51.935       37.397       25.423       48.172       37.912       27.604     2320.494     1437.334      761.960        0.463        0.226       63.998       13.942        0.047      345.957       23.859      860.411
08/27/2013  11:32:00       84.310       51.156       17.571       29.272       35.158       27.937      856.841     1236.117      780.500        0.645        0.144       98.616       15.376        0.024      345.521       23.111      860.394
08/27/2013  11:33:00      119.796       64.914       17.731       32.315       25.811       28.942     1044.288      666.185      837.655        1.071        0.127      136.253       18.045        0.018      345.621       23.281      860.375
08/27/2013  11:34:00      108.001       80.286       15.198       23.385       20.893       20.047      546.856      436.519      401.870        0.986        0.069      134.574       13.343        0.010      345.534       23.132      860.374
08/27/2013  11:35:00       72.502       46.260       28.031       33.626       26.144       30.446     1130.696      683.490      926.988        0.546        0.137       86.003       21.295        0.061      345.741       23.490      860.364
08/27/2013  11:36:00       78.388       62.829       32.449       31.260       16.737       18.918      977.214      280.113      357.873        0.638        0.081      100.460       20.139        0.040      345.716       23.445      860.360
08/27/2013  11:37:00       80.444       63.587       14.734       26.440       26.496       30.527      699.092      702.037      931.891        0.653        0.117      102.541       14.741        0.021      345.629       23.294      860.356
08/27/2013  11:38:00       61.083       67.488       41.595       29.796       19.940       25.403      887.799      397.593      645.316        0.597        0.097       91.026       13.504        0.022      345.883       23.732      860.362
08/27/2013  11:39:00       -4.964       38.161       37.567       25.014       29.804       27.971      625.699      888.256      782.398        0.259        0.115       38.483       12.138        0.099      346.202       24.279      860.364
08/27/2013  11:40:00       41.474       61.593       15.577       32.586       26.922       28.313     1061.827      724.783      801.613        0.417        0.129       74.255       19.326        0.068      345.895       23.752      860.352
08/27/2013  11:41:00       14.592       56.769       -8.900       18.146       29.028       22.677      329.285      842.646      514.237        0.260        0.084       58.614       17.349        0.088      345.886       23.738      860.350
08/27/2013  11:42:00        8.742       49.338       12.092       23.861       42.737       26.991      569.333     1826.439      728.539        0.289        0.156       50.107       22.357        0.199      346.185       24.251      860.334
08/27/2013  11:43:00       -7.900       -9.552       22.956       39.083       21.739       20.099     1527.464      472.590      403.977        0.154        0.120       12.396       22.262        3.225      346.517       24.821      860.322
08/27/2013  11:44:00      -42.165       -5.159        2.695       19.498       22.834       15.706      380.189      521.406      246.688        0.148        0.057       42.480        7.734        0.033      345.974       23.888      860.316
08/27/2013  11:45:00      -76.304       27.897        1.510       18.972       21.042       23.397      359.923      442.763      547.434        0.398        0.068       81.244       15.696        0.037      345.875       23.718      860.296
08/27/2013  11:46:00      -90.187        0.436       -8.271       30.957       23.842       14.577      958.356      568.435      212.478        0.497        0.087       90.188       17.630        0.038      345.922       23.798      860.287
08/27/2013  11:47:00      -62.689       24.972        1.562       26.691       20.773       17.076      712.433      431.501      291.576        0.300        0.072       67.479       15.046        0.050      346.084       24.077      860.268
08/27/2013  11:48:00      -42.296       -8.658        1.595       14.205       19.043       13.695      201.787      362.620      187.552        0.131        0.038       43.173       10.193        0.056      346.042       24.007      860.258
08/27/2013  11:49:00       -8.230      -12.879        4.160       18.359        9.467       14.552      337.055       89.624      211.755        0.044        0.032       15.284       13.315        0.759      346.379       24.583      860.252
08/27/2013  11:50:00       -5.058       -4.799        6.868        9.622       12.089       14.670       92.576      146.151      215.196        0.027        0.023        6.972        6.522        0.875      346.978       25.615      860.234
08/27/2013  11:51:00       19.039       -2.512       21.621       31.794       20.578       21.849     1010.853      423.437      477.385        0.137        0.096       19.204       13.758        0.513      346.822       25.348      860.230
08/27/2013  11:52:00        4.358      -11.941       25.674       28.533       26.203       22.371      814.141      686.591      500.464        0.141        0.100       12.712       15.832        1.551      346.754       25.229      860.222
08/27/2013  11:53:00      -14.535       -6.533       14.648       37.700       36.292       14.422     1421.302     1317.133      207.992        0.171        0.147       15.935       11.748        0.544      346.370       24.569      860.218
08/27/2013  11:54:00        8.205      -25.632        9.471       29.705       39.153       24.558      882.390     1532.966      603.107        0.192        0.151       26.913       22.625        0.707      346.491       24.777      860.214
08/27/2013  11:55:00       10.963      -15.608       30.344       32.407       49.253       26.898     1050.217     2425.854      723.479        0.274        0.210       19.074        7.600        0.159      346.862       25.415      860.212
08/27/2013  11:56:00      -12.692       25.831       29.392       34.257       34.178       26.758     1173.555     1168.167      716.013        0.237        0.153       28.781        9.707        0.114      347.090       25.807      860.196
08/27/2013  11:57:00       90.598       62.427       18.723       30.328       21.537       32.546      919.802      463.847     1059.246        0.745        0.122      110.023        7.042        0.004      346.328       24.498      860.200
08/27/2013  11:58:00       65.386       46.778       15.101       39.236       30.894       30.970     1539.445      954.443      959.112        0.507        0.173       80.396       22.435        0.078      346.470       24.741      860.180
08/27/2013  11:59:00      103.415       68.690       17.136       41.420       33.523       25.084     1715.626     1123.764      629.222        0.959        0.173      124.149       19.542        0.025      346.211       24.294      860.168
08/27/2013  12:00:00       88.490       73.002        5.345       34.282       38.770       31.070     1175.237     1503.137      965.367        0.842        0.182      114.716       13.978        0.015      346.209       24.292      860.146
08/27/2013  12:01:00       46.470       10.440       21.918       63.357       58.340       32.544     4014.076     3403.581     1059.108        0.561        0.424       47.628       20.680        0.189      346.481       24.760      860.134
08/27/2013  12:02:00       81.349       32.468       -2.531       57.951       36.757       29.842     3358.289     1351.047      890.550        0.664        0.280       87.589       19.794        0.051      346.543       24.867      860.123
08/27/2013  12:03:00       38.150       21.408       24.540       62.761       39.672       31.192     3938.896     1573.846      972.942        0.450        0.324       43.747       27.499        0.395      346.961       25.586      860.096
08/27/2013  12:04:00       46.897       92.635       -1.705       44.575       48.724       33.162     1986.933     2374.020     1099.690        0.812        0.273      103.830       28.486        0.075      346.677       25.098      860.080
08/27/2013  12:05:00        4.143      104.883      -14.796       33.775       51.582       23.895     1140.733     2660.710      570.963        0.780        0.219      104.965       23.979        0.052      346.467       24.738      860.058
08/27/2013  12:06:00        9.882       48.595       10.299       29.637       34.215       24.747      878.373     1170.640      612.430        0.261        0.133       49.589       20.602        0.173      346.850       25.396      860.048
08/27/2013  12:07:00       -2.253       14.689       22.960       19.641       22.037       20.416      385.754      485.629      416.828        0.102        0.064       14.861       13.225        0.792      347.346       26.250      860.028
08/27/2013  12:08:00      -12.175       49.892        5.224       20.480       30.369       21.123      419.422      922.250      446.165        0.223        0.089       51.356       16.121        0.099      347.045       25.731      860.010
08/27/2013  12:09:00      -10.423       25.369       15.179       17.631       29.481       20.622      310.867      869.129      425.250        0.129        0.080       27.427       13.881        0.256      347.421       26.379      860.007
08/27/2013  12:10:00      -28.958       27.812       12.456       28.187       23.582       19.971      794.486      556.112      398.853        0.176        0.087       40.150       12.040        0.090      347.057       25.752      859.997
08/27/2013  12:11:00      -31.370       -0.353      -17.863       36.047       28.369        8.025     1299.380      804.826       64.406        0.174        0.108       31.372        7.041        0.050      346.587       24.943      859.990
08/27/2013  12:12:00      -21.438      -47.416      -19.807       14.059       33.049       10.041      197.663     1092.233      100.830        0.225        0.070       52.037       13.197        0.064      346.547       24.873      859.980
08/27/2013  12:13:00       19.212       -5.823       13.355       20.368       32.657       22.231      414.846     1066.447      494.197        0.128        0.099       20.075       23.978        1.427      346.921       25.517      859.970
08/27/2013  12:14:00       -4.158       38.195        2.146       16.261       23.322       22.566      264.415      543.916      509.231        0.140        0.066       38.421       18.077        0.221      347.029       25.703      859.967
08/27/2013  12:15:00       13.371       15.065        3.453       20.983       15.628       25.019      440.292      244.230      625.955        0.086        0.066       20.143       15.030        0.557      347.216       26.025      859.954
08/27/2013  12:16:00       -9.522       20.941       17.984       36.115       16.923       20.326     1304.271      286.397      413.132        0.143        0.100       23.005       12.836        0.311      347.054       25.745      859.951
08/27/2013  12:17:00      -22.181        6.827       11.758       19.300       19.292       19.797      372.502      372.172      391.914        0.091        0.057       23.208        5.841        0.063      347.467       26.457      859.932
08/27/2013  12:18:00        3.284      -39.115       10.534       32.992       29.407       19.294     1088.494      864.767      372.251        0.199        0.116       39.252        5.675        0.021      347.212       26.019      859.920
08/27/2013  12:19:00      -51.274      -34.471        9.509       43.702       31.474       17.529     1909.853      990.583      307.266        0.356        0.160       61.784       20.975        0.115      346.975       25.610      859.916
08/27/2013  12:20:00      -43.544       24.715       23.580       28.388       27.160       24.206      805.879      737.643      585.915        0.260        0.106       50.069       23.366        0.218      347.187       25.976      859.892
08/27/2013  12:21:00      -37.905       27.922        4.156       32.082       44.338       21.346     1029.244     1965.847      455.671        0.284        0.173       47.079       18.962        0.162      347.176       25.957      859.883
08/27/2013  12:22:00      -39.725       40.096       12.459       41.047       38.042       33.077     1684.868     1447.158     1094.106        0.378        0.211       56.443       37.032        0.430      347.399       26.341      859.873
08/27/2013  12:23:00      -32.387       65.259       -3.482       29.051       37.046       24.320      843.943     1372.369      591.469        0.406        0.140       72.854       24.513        0.113      347.270       26.119      859.850
08/27/2013  12:24:00       -9.770       16.016       12.725       14.206       23.033       23.682      201.797      530.511      560.839        0.090        0.065       18.761       20.422        1.185      347.587       26.666      859.831
08/27/2013  12:25:00       -8.104        8.833       11.305       15.083       14.006       12.764      227.498      196.177      162.914        0.043        0.029       11.988        9.531        0.632      347.793       27.021      859.794
08/27/2013  12:26:00       25.365       19.611       29.673       33.702       23.008       29.047     1135.824      529.386      843.709        0.221        0.125       32.062       14.395        0.202      347.752       26.949      859.779
08/27/2013  12:27:00       64.033       62.403        8.853       22.507       18.703       27.669      506.568      349.803      765.600        0.485        0.081       89.411       16.719        0.035      346.949       25.564      859.747
08/27/2013  12:28:00       30.787       12.519        5.658       29.189       49.016       24.972      851.970     2402.581      623.605        0.251        0.194       33.235       12.740        0.147      347.067       25.768      859.722
08/27/2013  12:29:00       46.783      -20.525       12.907       18.212       23.905       18.117      331.682      571.471      328.220        0.200        0.062       51.088       13.283        0.068      346.677       25.098      859.713
08/27/2013  12:30:00       18.626       -0.373       22.412       19.945       18.306       20.829      397.800      335.127      433.849        0.101        0.058       18.629       17.724        0.905      347.288       26.149      859.683
08/27/2013  12:31:00       29.748       -7.297       32.641       21.839       26.797       15.349      476.955      718.066      235.589        0.172        0.072       30.630        3.938        0.017      347.293       26.158      859.671
08/27/2013  12:32:00       27.913       -4.394       12.029       32.206       23.532       20.205     1037.239      553.755      408.233        0.147        0.100       28.257       16.234        0.330      347.095       25.816      859.657
08/27/2013  12:33:00       19.702       19.235        7.852       23.176       18.131       19.811      537.136      328.727      392.457        0.104        0.063       27.534       11.763        0.183      347.049       25.737      859.652
08/27/2013  12:34:00       20.840        2.700       27.374       24.855       29.528       22.898      617.781      871.895      524.324        0.160        0.101       21.014       16.460        0.614      347.228       26.046      859.637
08/27/2013  12:35:00       84.035      -51.032        4.332       38.148       42.475       29.375     1455.275     1804.112      862.886        0.690        0.206       98.317       23.981        0.059      346.889       25.462      859.627
08/27/2013  12:36:00       39.813      -41.917       19.001       33.361       43.420       30.670     1112.967     1885.340      940.659        0.382        0.197       57.811       30.405        0.277      347.436       26.405      859.611
08/27/2013  12:37:00       22.613      -10.019       36.642       36.141       37.749       30.971     1306.152     1424.983      959.197        0.282        0.185       24.733       20.280        0.672      347.597       26.682      859.593
08/27/2013  12:38:00       81.596      -20.874       21.189       49.207       41.448       42.963     2421.318     1717.922     1845.833        0.676        0.299       84.224       36.446        0.187      347.217       26.026      859.598
08/27/2013  12:39:00        9.019       28.216       27.325       36.671       33.243       32.677     1344.732     1105.064     1067.776        0.257        0.176       29.622       27.597        0.868      347.496       26.507      859.582
08/27/2013  12:40:00       34.863       -2.028       11.478       25.644       30.318       28.206      657.617      919.209      795.606        0.186        0.119       34.922        9.734        0.078      347.312       26.189      859.579
08/27/2013  12:41:00      -23.287      -26.147       20.200       31.082       33.106       26.484      966.096     1095.980      701.406        0.220        0.138       35.013       20.049        0.328      347.297       26.164      859.558
08/27/2013  12:42:00       33.098      -35.501       14.817       31.520       36.035       30.049      993.479     1298.491      902.921        0.288        0.160       48.536       16.384        0.114      347.230       26.049      859.550
08/27/2013  12:43:00       91.340       47.872       36.411       87.291       55.356       26.975     7619.762     3064.310      727.643        1.168        0.571      103.125       26.033        0.064      347.514       26.538      859.528
08/27/2013  12:44:00       73.243        7.221       37.882       60.137       71.852       44.315     3616.513     5162.696     1963.796        0.880        0.537       73.598       38.631        0.276      347.165       25.939      859.518
08/27/2013  12:45:00       53.478       38.784       32.998       38.130       24.365       32.254     1453.931      593.675     1040.302        0.427        0.154       66.061       18.325        0.077      347.445       26.420      859.513
08/27/2013  12:46:00       41.448      -26.049       25.974       26.796       38.978       21.064      718.014     1519.303      443.708        0.288        0.134       48.954       23.335        0.227      347.414       26.366      859.506
08/27/2013  12:47:00        9.855      -15.430       31.254       15.008       30.781       13.939      225.248      947.451      194.297        0.134        0.068       18.309       15.896        0.754      347.837       27.095      859.498
08/27/2013  12:48:00        5.103        9.400        5.571       12.472       17.675       16.370      155.548      312.395      267.989        0.044        0.037       10.696        7.492        0.491      347.566       26.627      859.491
08/27/2013  12:49:00       -1.629       36.687        5.590       28.277       25.991       27.751      799.583      675.517      770.142        0.181        0.112       36.724       19.585        0.284      347.677       26.819      859.456
08/27/2013  12:50:00      -19.039       28.221       20.346       27.217       38.777       20.430      740.771     1503.665      417.402        0.212        0.133       34.043       19.307        0.322      347.894       27.195      859.445
08/27/2013  12:51:00      -21.294       59.766        8.558       22.235       50.984       24.145      494.412     2599.353      582.972        0.389        0.184       63.446       20.831        0.108      347.935       27.267      859.442
08/27/2013  12:52:00       22.335       -4.827       11.978       19.846       22.015       19.710      393.868      484.647      388.468        0.097        0.063       22.851       11.223        0.241      347.917       27.236      859.424
08/27/2013  12:53:00      -10.749      -31.624        2.240       17.495       20.773       17.379      306.092      431.512      302.020        0.108        0.052       33.401        8.751        0.069      347.785       27.007      859.417
08/27/2013  12:54:00        5.367       29.265       17.122       16.225       15.471       17.839      263.256      239.347      318.246        0.100        0.041       29.753        8.806        0.088      347.542       26.586      859.405
08/27/2013  12:55:00       44.331       27.424       -0.199       26.499       16.917       15.675      702.203      286.189      245.719        0.198        0.062       52.127       12.296        0.056      347.276       26.127      859.379
08/27/2013  12:56:00       21.968       16.153       21.838       21.636       16.408       20.662      468.123      269.226      426.901        0.119        0.058       27.267       13.662        0.251      347.903       27.210      859.372
08/27/2013  12:57:00      -12.834       16.689       18.655       13.074       19.297       18.709      170.917      372.363      350.045        0.084        0.045       21.053       10.208        0.235      348.115       27.577      859.359
08/27/2013  12:58:00       17.410        1.000       21.763       38.481       22.732       21.337     1480.807      516.748      455.281        0.161        0.123       17.438       23.382        1.798      347.947       27.286      859.339
08/27/2013  12:59:00       15.006       31.367       35.585       22.221       28.011       19.596      493.753      784.632      384.015        0.207        0.083       34.771       13.545        0.152      347.671       26.809      859.342
08/27/2013  13:00:00       15.015       10.263       23.521       28.782       19.064       15.611      828.382      363.443      243.695        0.116        0.072       18.188       12.114        0.444      347.891       27.191      859.323
08/27/2013  13:01:00      -52.039       -1.297        1.392       31.437       24.540       20.065      988.267      602.230      402.602        0.235        0.100       52.055       19.495        0.140      347.811       27.052      859.309
08/27/2013  13:02:00       -2.074       21.561       16.837       27.651       15.600       15.728      764.560      243.363      247.356        0.100        0.063       21.661       13.143        0.368      348.005       27.385      859.300
08/27/2013  13:03:00       -9.557        9.339       15.157       14.690       15.138       15.062      215.784      229.150      226.875        0.054        0.034       13.362        9.982        0.558      348.287       27.873      859.279
08/27/2013  13:04:00       17.619       91.165       -0.094       46.780       48.787       31.420     2188.411     2380.209      987.240        0.709        0.278       92.852       31.762        0.117      347.819       27.065      859.275
08/27/2013  13:05:00        1.963       96.436       15.316       55.808       75.177       45.981     3114.514     5651.513     2114.222        1.021        0.544       96.456       50.145        0.270      347.867       27.148      859.258
08/27/2013  13:06:00      -37.743       95.623      -18.239       20.401       42.367       18.256      416.188     1794.980      333.274        0.672        0.127      102.803       10.695        0.011      347.500       26.514      859.264
08/27/2013  13:07:00       -0.277        0.409       16.234       31.856       20.858       31.684     1014.790      435.041     1003.893        0.136        0.123        0.494       26.407     2857.517      347.966       27.318      859.257
08/27/2013  13:08:00       76.896       41.370       14.623       25.617       17.816       25.262      656.219      317.401      638.178        0.472        0.081       87.318       10.310        0.014      347.556       26.611      859.256
08/27/2013  13:09:00       49.019       56.168       23.058       38.322       30.489       26.863     1468.558      929.572      721.622        0.460        0.156       74.550       15.027        0.041      347.744       26.935      859.251
08/27/2013  13:10:00       15.714        7.481       -6.001       26.988       42.192       22.446      728.364     1780.204      503.801        0.168        0.151       17.404       11.210        0.415      347.501       26.517      859.246
08/27/2013  13:11:00      131.817       65.434       37.119       93.953       63.547       54.531     8827.223     4038.213     2973.606        1.943        0.792      147.164       40.233        0.075      347.470       26.460      859.241
08/27/2013  13:12:00      108.430       54.957       14.805       66.727       48.410       41.096     4452.536     2343.480     1688.902        1.174        0.424      121.562       20.474        0.028      347.770       26.979      859.229
08/27/2013  13:13:00       70.991       45.305       28.661       50.360       29.213       27.511     2536.170      853.390      756.878        0.603        0.207       84.216       20.614        0.060      347.785       27.006      859.226
08/27/2013  13:14:00        6.079        8.744       24.074       18.656       20.047       17.943      348.035      401.864      321.958        0.088        0.054       10.650       10.679        1.006      348.128       27.598      859.225
08/27/2013  13:15:00        2.120      -12.726       21.518       28.474       36.472       22.666      810.760     1330.215      513.765        0.164        0.133       12.902       24.742        3.678      348.083       27.522      859.211
08/27/2013  13:16:00        8.743       14.278       36.333       21.642       28.696       17.919      468.367      823.442      321.095        0.161        0.081       16.743        6.079        0.132      348.326       27.941      859.207
08/27/2013  13:17:00       73.710       65.954       17.821       54.882       45.990       34.238     3012.039     2115.098     1172.251        0.820        0.315       98.909       13.205        0.018      347.925       27.248      859.196
08/27/2013  13:18:00       69.963       42.766       22.582       63.626       48.345       38.937     4048.300     2337.254     1516.055        0.757        0.395       81.998       21.250        0.067      347.953       27.295      859.177
08/27/2013  13:19:00      157.862       94.189       26.938       77.828       57.501       52.926     6057.232     3306.385     2801.144        2.334        0.608      183.826       34.066        0.034      347.958       27.301      859.162
08/27/2013  13:20:00      163.171       78.267       19.764       99.322       70.661       60.141     9864.814     4992.912     3616.945        2.580        0.924      180.972       48.735        0.073      347.896       27.195      859.138
08/27/2013  13:21:00       83.461      128.933      113.055      119.608       69.821       60.172    14305.997     4874.924     3620.622        2.958        1.140      153.589       71.892        0.219      347.854       27.123      859.125
08/27/2013  13:22:00      156.427       97.530       31.043       54.369       41.626       40.285     2956.008     1732.756     1622.889        2.063        0.316      184.340       24.108        0.017      347.917       27.231      859.131
08/27/2013  13:23:00       77.611       73.082       10.174       60.620       45.188       39.603     3674.751     2041.969     1568.417        0.938        0.364      106.604       30.368        0.081      347.937       27.267      859.122
08/27/2013  13:24:00      116.812       60.698       32.057       57.116       42.945       47.171     3262.190     1844.285     2225.099        1.284        0.367      131.640       20.550        0.024      348.023       27.415      859.100
08/27/2013  13:25:00       17.346       56.231       90.283       51.917       62.155       38.471     2695.372     3863.227     1480.003        0.982        0.402       58.845       39.077        0.441      348.065       27.490      859.092
08/27/2013  13:26:00       92.000        6.654       43.589       78.677       66.344       53.903     6190.010     4401.473     2905.547        1.195        0.675       92.240       60.469        0.430      347.635       26.748      859.091
08/27/2013  13:27:00       12.576      -36.721       32.023       39.009       69.131       40.487     1521.673     4779.038     1639.167        0.523        0.397       38.814       35.831        0.852      347.836       27.094      859.077
08/27/2013  13:28:00       20.918        4.992       37.751       37.460       52.153       33.976     1403.284     2719.913     1154.350        0.358        0.264       21.505       37.511        3.043      348.267       27.839      859.071
08/27/2013  13:29:00       -2.052      -14.587        3.983       56.808       68.116       33.763     3227.203     4639.762     1139.957        0.462        0.450       14.731       12.728        0.747      347.824       27.075      859.079
08/27/2013  13:30:00       50.159      -34.856        5.733       32.373       49.971       32.258     1048.040     2497.134     1040.605        0.417        0.229       61.081       28.962        0.225      347.749       26.944      859.076
08/27/2013  13:31:00       -6.820      -23.116        8.839       24.469       43.521       20.419      598.738     1894.105      416.928        0.178        0.145       24.101        8.001        0.110      347.808       27.047      859.068
08/27/2013  13:32:00      -36.424       42.782       15.020       29.978       38.787       23.523      898.651     1504.462      553.342        0.317        0.148       56.187       22.636        0.162      348.249       27.807      859.043
08/27/2013  13:33:00       25.430       -0.253       26.279       25.282       19.976       15.346      639.202      399.038      235.489        0.131        0.064       25.431       13.990        0.303      348.543       28.316      859.038
08/27/2013  13:34:00       26.371       -2.671        4.316       20.939       25.962       19.670      438.454      674.045      386.923        0.111        0.075       26.506       13.924        0.276      347.892       27.191      859.030
08/27/2013  13:35:00        0.177      -42.564      -18.770       30.729       36.433       22.944      944.270     1327.400      526.412        0.248        0.140       42.564       20.923        0.242      347.728       26.908      859.020
08/27/2013  13:36:00       92.257     -116.265       -5.827       44.660       43.226       34.623     1994.544     1868.450     1198.749        1.356        0.253      148.421       24.726        0.028      347.653       26.778      859.003
08/27/2013  13:37:00       99.960      -18.950       22.271       49.352       49.315       47.971     2435.629     2431.947     2301.264        0.901        0.358      101.740       40.466        0.158      347.555       26.610      859.000
08/27/2013  13:38:00       -7.748      -20.184        2.420       54.400       32.362       23.998     2959.319     1047.328      575.900        0.253        0.229       21.620       28.238        1.706      347.872       27.158      859.004
08/27/2013  13:39:00      -19.407       -7.314        5.081       46.469       43.364       28.485     2159.343     1880.430      811.409        0.265        0.243       20.740       29.487        2.021      347.923       27.243      858.992
08/27/2013  13:40:00      -69.063      -30.245       -9.673       38.350       44.395       21.806     1470.726     1970.934      475.499        0.485        0.196       75.395       17.337        0.053      347.890       27.188      858.982
08/27/2013  13:41:00     -136.300       17.067      -13.015       42.744       30.994       22.240     1827.035      960.604      494.598        1.116        0.164      137.364       18.358        0.018      347.981       27.346      858.956
08/27/2013  13:42:00     -147.360       -5.113       -7.509       47.733       41.901       26.389     2278.434     1755.686      696.360        1.326        0.237      147.449       23.651        0.026      348.115       27.577      858.942
08/27/2013  13:43:00     -124.234      -25.991        3.491       60.436       51.828       26.113     3652.525     2686.098      681.868        1.157        0.351      126.923       31.926        0.063      348.340       27.965      858.932
08/27/2013  13:44:00     -120.110       18.830      -11.344       33.575       16.544       18.307     1127.314      273.701      335.147        0.832        0.087      121.577       18.820        0.024      347.928       27.252      858.928
08/27/2013  13:45:00      -47.024      -15.860        6.793       32.100       38.247       20.559     1030.402     1462.867      422.693        0.271        0.146       49.627       17.355        0.122      348.403       28.074      858.914
08/27/2013  13:46:00        5.208       -1.145       27.644       11.079       13.264       12.954      122.755      175.925      167.801        0.063        0.023        5.332        7.097        1.771      349.131       29.334      858.900
08/27/2013  13:47:00       11.871       -2.349       27.978       20.269       19.248       20.768      410.826      370.486      431.298        0.107        0.061       12.101       11.847        0.958      348.695       28.580      858.902
08/27/2013  13:48:00       11.885       20.237       34.381       18.292       20.479       20.570      334.604      419.407      423.118        0.145        0.059       23.469       11.779        0.252      348.203       27.727      858.896
08/27/2013  13:49:00        7.333       27.774       25.659       24.776       20.861       20.067      613.837      435.174      402.700        0.147        0.073       28.726        9.685        0.114      347.999       27.375      858.895
08/27/2013  13:50:00      151.676       99.485       20.627       54.870       38.307       35.373     3010.752     1467.455     1251.215        1.953        0.286      181.391       17.227        0.009      348.028       27.424      858.884
08/27/2013  13:51:00      122.304       81.073       18.819       70.811       39.394       49.538     5014.165     1551.925     2453.971        1.545        0.451      146.735       35.411        0.058      348.068       27.492      858.877
08/27/2013  13:52:00       37.266       22.176       28.631       38.872       55.684       26.286     1511.027     3100.656      690.958        0.400        0.265       43.365       13.079        0.091      348.314       27.921      858.873
08/27/2013  13:53:00       73.436      -51.019       12.970       56.007       49.243       37.655     3136.814     2424.840     1417.907        0.757        0.349       89.419       33.789        0.143      348.010       27.396      858.870
08/27/2013  13:54:00       62.160      -46.319       30.124       77.995       87.257       60.407     6083.296     7613.784     3649.006        1.213        0.867       77.520       48.763        0.396      348.227       27.768      858.845
08/27/2013  13:55:00      100.223      -23.560       38.689       96.242      106.684       63.771     9262.522    11381.443     4066.701        1.840        1.236      102.955       78.453        0.581      348.062       27.484      858.847
08/27/2013  13:56:00       43.139      -47.766       20.075       44.734       49.684       35.383     2001.167     2468.542     1251.984        0.513        0.286       64.363       27.164        0.178      347.730       26.912      858.860
08/27/2013  13:57:00        3.401      -53.254       32.966       31.979       41.976       31.766     1022.685     1761.997     1009.107        0.386        0.190       53.363       17.039        0.102      348.172       27.673      858.843
08/27/2013  13:58:00       11.407      -78.507       -3.072       40.306       43.838       26.733     1624.562     1921.796      714.657        0.528        0.213       79.332       23.899        0.091      348.179       27.686      858.831
08/27/2013  13:59:00       15.660      -16.527       26.838       36.237       49.695       39.272     1313.143     2469.615     1542.317        0.328        0.266       22.768       31.618        1.928      348.265       27.835      858.841
08/27/2013  14:00:00       -1.399       -9.351       22.291       61.969       37.361       35.511     3840.187     1395.830     1261.003        0.354        0.325        9.455       26.378        7.783      348.245       27.802      858.836
08/27/2013  14:01:00     -155.351       65.731      -11.415       58.890       56.639       30.865     3468.084     3207.938      952.639        1.811        0.381      168.684       25.563        0.023      348.091       27.533      858.801
08/27/2013  14:02:00       13.303        4.160       16.356       47.769       57.804       32.905     2281.919     3341.297     1082.743        0.358        0.335       13.938       24.172        3.008      348.349       27.980      858.794
08/27/2013  14:03:00       33.313      -37.978        1.189       28.848       45.528       24.955      832.199     2072.795      622.757        0.304        0.176       50.518       16.303        0.104      348.156       27.647      858.789
08/27/2013  14:04:00       14.196      -51.057       21.908       33.266       45.129       25.485     1106.597     2036.587      649.502        0.354        0.190       52.993       17.385        0.108      348.239       27.792      858.776
08/27/2013  14:05:00       -7.490      -31.827       25.344       33.453       64.219       29.230     1119.079     4124.062      854.369        0.390        0.305       32.697       23.503        0.517      348.335       27.956      858.763
08/27/2013  14:06:00      -68.299      -80.197        4.985       68.941       67.993       33.426     4752.924     4623.028     1117.307        1.081        0.525      105.339       34.932        0.110      348.236       27.784      858.750
08/27/2013  14:07:00      -65.237      -50.598        0.359       44.384       52.927       32.456     1969.958     2801.267     1053.364        0.632        0.291       82.559       21.672        0.069      348.287       27.872      858.736
08/27/2013  14:08:00      -45.147       -6.888       -0.243       28.342       35.565       19.873      803.248     1264.852      394.948        0.227        0.123       45.669       13.963        0.093      348.318       27.927      858.721
08/27/2013  14:09:00      -47.420        2.540        0.150       33.661       28.509       19.976     1133.095      812.783      399.027        0.230        0.117       47.488       13.160        0.077      348.290       27.878      858.710
08/27/2013  14:10:00      -73.203       29.039      -13.289       24.534       30.814       18.765      601.912      949.514      352.141        0.414        0.095       78.752       18.038        0.052      348.316       27.923      858.686
08/27/2013  14:11:00      -55.157       40.957        1.164       36.719       29.850       21.006     1348.285      890.995      441.259        0.370        0.134       68.701       20.311        0.087      348.523       28.280      858.664
08/27/2013  14:12:00     -103.635       -0.047      -17.612       34.106       39.173       21.751     1163.244     1534.495      473.099        0.711        0.159      103.635       13.025        0.016      348.280       27.860      858.651
08/27/2013  14:13:00      -32.639       56.380        2.881       32.528       28.399       25.724     1058.046      806.527      661.728        0.339        0.126       65.146       16.832        0.067      348.531       28.296      858.645
08/27/2013  14:14:00        3.903       42.236        9.418       23.940       40.889       26.033      573.138     1671.920      677.695        0.240        0.146       42.416       19.534        0.212      348.661       28.520      858.635
08/27/2013  14:15:00      -11.915       62.120        2.682       22.675       52.410       27.502      514.135     2746.841      756.333        0.401        0.201       63.252       29.467        0.217      348.570       28.362      858.622
08/27/2013  14:16:00      -15.211       56.663        3.244       31.148       58.542       25.424      970.177     3427.218      646.399        0.425        0.252       58.669       31.487        0.288      348.461       28.175      858.609
08/27/2013  14:17:00      -75.030       58.356       -5.352       43.716       23.895       26.481     1911.122      570.989      701.261        0.612        0.159       95.052       26.303        0.077      348.383       28.040      858.594
08/27/2013  14:18:00      -50.430       36.413       -3.975       45.002       20.173       25.374     2025.171      406.946      643.834        0.348        0.154       62.202       25.510        0.168      348.474       28.197      858.581
08/27/2013  14:19:00      -34.539        6.000        6.192       47.508       63.981       27.144     2256.977     4093.541      736.817        0.418        0.354       35.056       21.252        0.368      348.704       28.594      858.551
08/27/2013  14:20:00     -162.667      -75.748       -4.193       61.054       52.862       33.856     3727.650     2794.395     1146.196        1.994        0.383      179.439       34.339        0.037      348.253       27.810      858.522
08/27/2013  14:21:00      -93.400       50.960       -8.723       52.544       56.085       24.172     2760.830     3145.527      584.295        0.894        0.325      106.398       10.999        0.011      348.334       27.954      858.509
08/27/2013  14:22:00      -85.132      185.307      -17.741       37.120       53.225       31.454     1377.861     2832.895      989.326        2.355        0.260      203.927       23.616        0.013      348.233       27.777      858.502
08/27/2013  14:23:00      -50.959      143.434      -13.918       36.840       40.988       25.671     1357.185     1680.042      659.024        1.353        0.185      152.217       14.986        0.010      348.227       27.770      858.490
08/27/2013  14:24:00        3.550      131.257       -5.138       28.048       78.346       31.018      786.694     6138.119      962.120        1.258        0.394      131.305       40.376        0.095      348.353       27.987      858.477
08/27/2013  14:25:00       50.902       63.146       16.209       52.074       38.079       27.070     2711.688     1449.978      732.786        0.587        0.245       81.108       24.203        0.089      348.350       27.982      858.460
08/27/2013  14:26:00       15.744       61.615        7.215       38.352       42.281       24.867     1470.862     1787.687      618.345        0.399        0.194       63.595       23.791        0.140      348.355       27.991      858.431
08/27/2013  14:27:00      -10.483       61.272        7.293       19.996       44.089       23.367      399.847     1943.823      546.017        0.340        0.144       62.162       26.597        0.183      348.492       28.228      858.412
08/27/2013  14:28:00       -3.755       55.195        4.622       18.689       37.461       27.409      349.292     1403.328      751.236        0.279        0.125       55.323       23.743        0.184      348.652       28.504      858.405
08/27/2013  14:29:00        6.477       34.521        3.926       17.225       42.624       23.717      296.693     1816.810      562.513        0.196        0.134       35.123       22.980        0.428      348.606       28.424      858.391
08/27/2013  14:30:00       33.528       27.328        8.867       15.053       18.828       20.311      226.589      354.507      412.540        0.147        0.050       43.255       10.774        0.062      348.410       28.085      858.370
08/27/2013  14:31:00       -6.501        4.814       19.279       56.740       18.625       19.087     3219.480      346.878      364.324        0.218        0.197        8.090       17.220        4.531      348.180       27.689      858.352
08/27/2013  14:32:00     -103.485       40.293       -3.948       50.440       30.714       31.006     2544.188      943.358      961.375        0.840        0.222      111.053       28.066        0.064      348.489       28.222      858.324
08/27/2013  14:33:00      -76.751       47.340      -10.511       36.277       40.843       23.943     1316.030     1668.117      573.277        0.590        0.178       90.176       12.116        0.018      348.538       28.307      858.306
08/27/2013  14:34:00      -36.957       99.581      -10.958       27.999       25.956       25.203      783.940      673.718      635.176        0.675        0.105      106.217       17.055        0.026      348.443       28.144      858.293
08/27/2013  14:35:00      -19.594       53.023       -3.379       31.998       33.319       26.370     1023.892     1110.140      695.390        0.302        0.141       56.528       29.188        0.267      348.518       28.273      858.270
08/27/2013  14:36:00       -7.416       63.044        5.624       30.427       42.211       28.790      925.813     1781.784      828.861        0.380        0.177       63.479       30.339        0.228      348.580       28.380      858.246
08/27/2013  14:37:00      -92.610       65.575       -5.985       31.080       33.479       27.033      965.962     1120.876      730.773        0.786        0.141      113.476       19.173        0.029      348.559       28.342      858.217
08/27/2013  14:38:00     -105.858       -9.582      -16.031       36.642       38.778       18.121     1342.628     1503.743      328.381        0.736        0.159      106.291       17.327        0.027      348.252       27.812      858.202
08/27/2013  14:39:00        0.113       15.408       32.172       16.442       19.104       14.500      270.332      364.953      210.239        0.106        0.042       15.408        2.670        0.030      349.091       29.264      858.181
08/27/2013  14:40:00       -4.344       46.918       -0.156       26.108       22.383       16.370      681.614      500.981      267.966        0.184        0.073       47.119       12.219        0.067      348.376       28.026      858.177
08/27/2013  14:41:00       -4.390       28.887        6.309       15.769       25.264       17.674      248.655      638.278      312.373        0.105        0.060       29.218       13.727        0.221      348.759       28.689      858.170
08/27/2013  14:42:00      -40.762       12.576      -10.743       39.752       32.647       15.300     1580.224     1065.839      234.087        0.241        0.144       42.658       13.598        0.102      348.525       28.284      858.153
08/27/2013  14:43:00      -37.335       16.346       10.261       56.270       81.035       31.069     3166.357     6566.749      965.299        0.623        0.535       40.757       27.250        0.447      348.560       28.347      858.137
08/27/2013  14:44:00      -28.011       88.977        2.871       35.796       50.883       26.307     1281.353     2589.118      692.037        0.664        0.228       93.282       27.471        0.087      348.576       28.374      858.131
08/27/2013  14:45:00      -39.714      136.590       -7.774       49.981       68.374       32.807     2498.087     4675.045     1076.300        1.427        0.412      142.246       31.304        0.048      348.517       28.270      858.119
08/27/2013  14:46:00     -109.418       40.481      -14.778       41.811       46.458       28.996     1748.123     2158.304      840.746        0.929        0.237      116.666       25.304        0.047      348.458       28.168      858.117
08/27/2013  14:47:00     -100.499       63.318      -20.947       47.381       49.636       26.314     2245.000     2463.746      692.411        0.997        0.270      118.782       26.702        0.051      348.488       28.223      858.093
08/27/2013  14:48:00      -80.735       17.475        1.404       88.723       68.602       35.676     7871.715     4706.202     1272.756        1.034        0.693       82.604       37.838        0.210      348.599       28.412      858.073
08/27/2013  14:49:00     -180.517       37.306      -17.513       73.406       59.221       33.726     5388.486     3507.102     1137.454        2.216        0.502      184.332       29.163        0.025      348.498       28.235      858.051
08/27/2013  14:50:00     -145.227       58.518      -25.900       62.903       37.197       25.802     3956.773     1383.598      665.751        1.559        0.300      156.573       13.713        0.008      348.317       27.924      858.047
08/27/2013  14:51:00      -38.367       98.952       -7.006       54.067       74.796       45.249     2923.216     5594.465     2047.507        1.094        0.528      106.129       37.123        0.122      348.474       28.196      858.014
08/27/2013  14:52:00      -68.913       83.338       -7.276       64.520       93.079       59.743     4162.835     8663.635     3569.223        1.407        0.820      108.140       43.875        0.165      348.521       28.276      857.997
08/27/2013  14:53:00     -102.282      189.836      -16.089       84.933       73.895       49.992     7213.591     5460.438     2499.176        3.096        0.759      215.637       40.257        0.035      348.467       28.179      857.974
08/27/2013  14:54:00     -131.370       71.552      -18.207       64.514       73.362       35.363     4162.078     5381.998     1250.555        1.675        0.540      149.592       37.689        0.063      348.485       28.214      857.965
08/27/2013  14:55:00     -162.576       30.802       -8.328       60.513       70.087       30.542     3661.809     4912.253      932.842        1.848        0.475      165.468       21.757        0.017      348.569       28.360      857.963
08/27/2013  14:56:00     -114.185       21.070        4.217       60.824       57.908       33.857     3699.577     3353.287     1146.309        1.085        0.410      116.113       23.161        0.040      348.657       28.513      857.953
08/27/2013  14:57:00     -154.857      -38.656        2.846       70.221       56.223       32.304     4931.006     3161.015     1043.527        1.731        0.457      159.609       28.595        0.032      348.671       28.534      857.949
08/27/2013  14:58:00     -170.915      -24.876       -9.950       83.500       42.185       26.304     6972.250     1779.542      691.898        1.968        0.472      172.716       27.512        0.025      348.516       28.268      857.935
08/27/2013  14:59:00      -69.997      -32.947       14.249       65.087       43.849       26.381     4236.375     1922.728      695.969        0.652        0.343       77.363       27.341        0.125      348.677       28.547      857.928
08/27/2013  15:00:00     -209.737      -73.835      -19.543      101.695       67.878       30.978    10341.845     4607.402      959.610        3.286        0.795      222.354       28.495        0.016      348.478       28.199      857.929
08/27/2013  15:01:00     -175.258      -22.146      -12.948       54.379       53.786       24.703     2957.082     2892.919      610.228        1.892        0.323      176.652       30.618        0.030      348.490       28.223      857.919
08/27/2013  15:02:00      -46.590      -14.333       10.604       48.596       34.233       24.671     2361.540     1171.872      608.645        0.331        0.207       48.745       25.393        0.271      348.776       28.718      857.908
08/27/2013  15:03:00      -32.820        4.749        3.172       38.514       20.807       18.632     1483.361      432.948      347.169        0.169        0.113       33.162       16.149        0.237      348.630       28.466      857.900
08/27/2013  15:04:00       18.118       45.196        7.603       21.687       35.598       22.116      470.341     1267.231      489.110        0.233        0.111       48.692       22.919        0.222      348.614       28.437      857.880
08/27/2013  15:05:00       28.215       54.824        7.597       40.379       39.474       25.510     1630.493     1558.232      650.770        0.385        0.192       61.659       25.837        0.176      348.593       28.403      857.870
08/27/2013  15:06:00        1.672      -28.946        4.535       27.126       34.549       19.118      735.830     1193.605      365.483        0.158        0.115       28.994       15.270        0.277      348.576       28.373      857.860
08/27/2013  15:07:00      -24.744      -10.452       21.284       37.362       51.268       27.615     1395.909     2628.369      762.579        0.298        0.239       26.861       35.048        1.703      348.413       28.090      857.843
08/27/2013  15:08:00       -0.690      -45.027      -11.929       33.859       32.399       26.157     1146.412     1049.707      684.174        0.252        0.144       45.033       22.127        0.241      348.486       28.218      857.835
08/27/2013  15:09:00       -2.563        4.494       13.014       12.967       12.454       15.123      168.133      155.100      228.692        0.037        0.028        5.174       10.122        3.827      348.567       28.356      857.831
08/27/2013  15:10:00      -41.732      -61.727        3.103       31.958       37.217       13.840     1021.294     1385.071      191.537        0.408        0.130       74.510       17.653        0.056      348.495       28.232      857.826
08/27/2013  15:11:00      -45.884      -43.896       -1.812       36.117       30.540       14.738     1304.444      932.665      217.206        0.324        0.123       63.500       16.002        0.064      348.521       28.278      857.813
08/27/2013  15:12:00       10.381      -10.481       15.126       30.046       23.778       20.451      902.776      565.373      418.234        0.117        0.094       14.752       15.330        1.080      348.445       28.146      857.808
08/27/2013  15:13:00      -61.970      -83.756        4.953       75.987       50.436       30.637     5774.088     2543.832      938.615        1.007        0.463      104.189       29.133        0.078      348.396       28.061      857.809
08/27/2013  15:14:00      -35.904      -71.066        6.037       52.890       41.363       22.920     2797.316     1710.864      525.309        0.570        0.252       79.621       21.943        0.076      348.457       28.167      857.813
08/27/2013  15:15:00      -56.686      -69.776        4.055       46.171       35.755       24.756     2131.735     1278.385      612.862        0.606        0.201       89.900       18.183        0.041      348.479       28.204      857.806
08/27/2013  15:16:00      -76.390      -44.526       -4.085       54.200       35.125       22.440     2937.612     1233.738      503.562        0.625        0.234       88.419       23.863        0.073      348.483       28.211      857.801
08/27/2013  15:17:00      -22.397      -11.575       14.895       41.173       35.242       18.407     1695.191     1241.999      338.819        0.207        0.164       25.211       16.693        0.438      348.622       28.452      857.794
08/27/2013  15:18:00      -26.650      -55.414       32.926       28.738       37.371       26.621      825.882     1396.627      708.689        0.390        0.147       61.490       16.736        0.074      348.496       28.233      857.796
08/27/2013  15:19:00       -8.001      -43.337       17.647       28.736       38.660       21.729      825.762     1494.596      472.146        0.252        0.140       44.069       21.135        0.230      348.466       28.183      857.790
08/27/2013  15:20:00        4.544       -1.639       35.925       33.424       41.107       23.907     1117.178     1689.771      571.551        0.235        0.169        4.830       17.174       12.642      348.423       28.108      857.776
08/27/2013  15:21:00      -21.402     -104.767       -5.637       33.086       42.173       25.476     1094.670     1778.599      649.036        0.749        0.176      106.931       10.110        0.009      348.421       28.105      857.772
08/27/2013  15:22:00      -74.469     -123.251       -2.785       45.023       49.708       25.461     2027.110     2470.889      648.274        1.294        0.257      144.001       21.720        0.023      348.406       28.077      857.765
08/27/2013  15:23:00      -84.063      -64.579        7.667       52.055       47.100       29.454     2709.692     2218.418      867.532        0.854        0.290      106.005       24.773        0.055      348.428       28.118      857.751
08/27/2013  15:24:00      -17.257      -23.536        8.418       36.591       26.054       18.899     1338.871      678.791      357.160        0.165        0.119       29.185       13.800        0.224      348.475       28.196      857.746
08/27/2013  15:25:00      -18.743      -25.992        7.449       21.161       25.999       13.951      447.789      675.968      194.644        0.120        0.066       32.045       10.989        0.118      348.481       28.209      857.725
08/27/2013  15:26:00      -60.389      -35.629        2.474       34.631       42.869       22.862     1199.316     1837.736      522.670        0.424        0.178       70.116       21.448        0.094      348.436       28.133      857.716
08/27/2013  15:27:00      -58.533      -27.921       11.570       34.281       34.163       17.026     1175.198     1167.095      289.897        0.349        0.132       64.851       15.560        0.058      348.447       28.148      857.697
08/27/2013  15:28:00      -55.096      -11.711        2.624       27.120       24.394       12.780      735.470      595.081      163.327        0.234        0.075       56.327        9.661        0.029      348.478       28.203      857.678
08/27/2013  15:29:00      -83.592      -18.913       -7.580       23.728       25.960       12.872      563.010      673.933      165.695        0.440        0.070       85.705       11.066        0.017      348.457       28.166      857.678
08/27/2013  15:30:00      -38.504       -0.731       -0.349       34.233       14.563       13.422     1171.930      212.090      180.148        0.152        0.078       38.511       16.890        0.192      348.613       28.436      857.671
08/27/2013  15:31:00       12.554      -11.233       12.529       25.376       31.329       12.225      643.964      981.476      149.445        0.111        0.089       16.846       13.250        0.619      348.599       28.412      857.661
08/27/2013  15:32:00       11.653      -16.559       20.681       29.319       16.264       17.914      859.602      264.518      320.926        0.114        0.072       20.249       14.500        0.513      348.319       27.929      857.648
08/27/2013  15:33:00       59.522      -10.834       26.815       37.334       34.653       27.866     1393.843     1200.860      776.538        0.387        0.169       60.500       22.558        0.139      347.709       26.874      857.622
08/27/2013  15:34:00       17.822        5.740       32.588       36.821       26.289       22.931     1355.819      691.124      525.846        0.199        0.129       18.724       22.234        1.410      347.984       27.351      857.616
08/27/2013  15:35:00        8.129        8.859       14.878       26.042       21.397       19.208      678.185      457.832      368.940        0.094        0.075       12.023        4.647        0.149      348.077       27.511      857.630
08/27/2013  15:36:00      -53.150      -11.382       -3.934       43.075       25.884       11.759     1855.478      669.995      138.284        0.282        0.133       54.355       17.673        0.106      348.337       27.960      857.634
08/27/2013  15:37:00      -64.839      -26.851       -1.955       43.169       19.972       18.604     1863.550      398.898      346.101        0.377        0.130       70.179       19.685        0.079      348.511       28.260      857.640
08/27/2013  15:38:00      -83.982      -23.038       15.332       60.661       77.276       35.777     3679.737     5971.589     1279.997        0.937        0.547       87.085       35.567        0.167      348.512       28.261      857.635
08/27/2013  15:39:00     -130.397       10.228        6.798       82.915       72.844       34.205     6874.898     5306.254     1170.013        1.525        0.668      130.798       44.292        0.115      348.404       28.073      857.630
08/27/2013  15:40:00     -138.923      -40.449        0.357       78.590       63.833       37.138     6176.389     4074.620     1379.261        1.628        0.582      144.692       45.477        0.099      348.514       28.265      857.617
08/27/2013  15:41:00     -134.515      -70.000       -2.495       63.844       49.796       39.400     4076.078     2479.600     1552.329        1.555        0.405      151.639       30.350        0.040      348.544       28.316      857.617
08/27/2013  15:42:00     -116.651      -50.923       -0.677       42.430       46.817       26.030     1800.266     2191.862      677.553        1.043        0.233      127.282       20.613        0.026      348.547       28.323      857.605
08/27/2013  15:43:00      -93.683      -16.494        7.488       58.324       52.391       25.959     3401.640     2744.847      673.867        0.796        0.341       95.124       28.002        0.087      348.557       28.340      857.596
08/27/2013  15:44:00      -16.553      -14.816       13.790       31.527       26.156       20.527      993.933      684.131      421.371        0.139        0.105       22.215       12.306        0.307      348.534       28.300      857.585
08/27/2013  15:45:00      -18.308      -64.196       10.311       53.566       30.646       24.076     2869.265      939.163      579.651        0.447        0.219       66.756       27.949        0.175      348.524       28.284      857.582
08/27/2013  15:46:00      -42.979      -98.573        6.856       31.985       52.965       23.347     1023.014     2805.278      545.093        0.799        0.219      107.535       22.924        0.045      348.544       28.317      857.573
08/27/2013  15:47:00      -71.885      -19.093       12.176       35.402       42.045       27.580     1253.325     1767.762      760.644        0.473        0.189       74.377       25.401        0.117      348.612       28.436      857.563
08/27/2013  15:48:00        0.825      -15.953        2.957       66.308       34.984       26.975     4396.797     1223.901      727.644        0.330        0.317       15.975       11.748        0.541      348.322       27.933      857.549
08/27/2013  15:49:00      -39.756      -13.616        2.904       43.370       32.913       23.291     1880.994     1083.287      542.460        0.264        0.175       42.023       14.122        0.113      348.595       28.406      857.539
08/27/2013  15:50:00       13.547      -36.650        3.319       25.940       29.974       16.310      672.883      898.428      266.008        0.169        0.092       39.073       12.852        0.108      348.593       28.404      857.543
08/27/2013  15:51:00       -8.457      -85.092       -2.749       68.658       53.282       46.334     4713.858     2839.008     2146.869        0.851        0.485       85.511       28.573        0.112      348.441       28.138      857.509
08/27/2013  15:52:00       14.021      -91.452       10.453       59.773       68.008       35.230     3572.769     4625.069     1241.165        0.905        0.472       92.520       33.917        0.134      348.563       28.350      857.496
08/27/2013  15:53:00       37.294     -140.772      -10.579      103.983       79.227       47.994    10812.520     6276.840     2303.465        2.035        0.970      145.629       42.733        0.086      348.502       28.244      857.478
08/27/2013  15:54:00      -26.944     -124.970        8.133       73.599      110.166       67.467     5416.751    12136.630     4551.814        1.925        1.105      127.842       36.153        0.080      348.437       28.131      857.435
08/27/2013  15:55:00        6.592     -159.289      -26.939       92.094       67.395       61.542     8481.386     4542.026     3787.477        2.147        0.841      159.425       53.173        0.111      348.463       28.175      857.444
08/27/2013  15:56:00       -3.919      -60.024        9.572       68.271       52.168       41.828     4660.877     2721.479     1749.572        0.642        0.457       60.152       35.814        0.355      348.490       28.225      857.437
08/27/2013  15:57:00      -84.363      -52.293        7.416       47.926       49.093       28.272     2296.921     2410.143      799.284        0.771        0.275       99.255       24.638        0.062      348.554       28.334      857.450
08/27/2013  15:58:00      -44.752      -25.827        1.282       43.761       39.648       26.595     1915.008     1571.952      707.297        0.343        0.210       51.670       22.490        0.189      348.548       28.325      857.442
08/27/2013  15:59:00        1.413      -14.718       20.357       40.474       34.063       24.453     1638.133     1160.268      597.969        0.201        0.170       14.786        3.555        0.058      348.424       28.109      857.439
08/27/2013  16:00:00       -0.754       -4.940       15.923       40.527       37.187       24.567     1642.408     1382.846      603.515        0.195        0.181        4.997       21.187       17.975      348.408       28.080      857.429
08/27/2013  16:01:00      -58.944       19.654       10.208       44.209       33.134       25.500     1954.393     1097.834      650.258        0.383        0.185       62.135       20.828        0.112      348.647       28.496      857.413
08/27/2013  16:02:00       14.204        6.929        5.870       34.927       30.752       20.825     1219.921      945.715      433.668        0.144        0.130       15.804        9.521        0.363      348.353       27.987      857.408
08/27/2013  16:03:00        7.028       22.703       33.260       28.536       22.110       24.240      814.282      488.854      587.574        0.178        0.095       23.766       23.743        0.998      347.928       27.253      857.398
08/27/2013  16:04:00       39.418      -19.381        8.195       23.459       19.076       21.956      550.306      363.875      482.065        0.170        0.070       43.925       10.678        0.059      348.071       27.500      857.385
08/27/2013  16:05:00        0.688       22.660       28.050       14.946       18.596       16.071      223.373      345.811      258.265        0.106        0.041       22.670       14.147        0.389      348.031       27.431      857.379
08/27/2013  16:06:00      -17.785        8.129        1.171       30.298       14.718       13.866      917.985      216.631      192.265        0.086        0.066       19.555       12.411        0.403      348.179       27.686      857.376
08/27/2013  16:07:00       17.855        0.042       11.080       32.461       37.891       25.437     1053.729     1435.757      647.022        0.179        0.157       17.855       20.083        1.265      348.071       27.500      857.366
08/27/2013  16:08:00      -74.117      -43.543        0.430       57.490       40.821       29.965     3305.118     1666.389      897.921        0.663        0.293       85.961       27.377        0.101      348.502       28.244      857.373
08/27/2013  16:09:00     -166.238      -88.713      -11.456       60.196       64.897       38.353     3623.613     4211.615     1470.950        2.247        0.465      188.428       35.775        0.036      348.653       28.503      857.364
08/27/2013  16:10:00      -94.081      -35.312       -5.351      134.749      129.325       55.173    18157.187    16724.834     3044.096        2.402        1.896      100.489       43.528        0.188      348.535       28.300      857.360
08/27/2013  16:11:00     -224.463     -179.529      -11.849      180.324      132.770       64.005    32516.772    17627.874     4096.644        6.849        2.712      287.427       58.701        0.042      348.571       28.361      857.349
08/27/2013  16:12:00     -372.655     -184.199      -14.421      198.838      150.195       72.966    39536.436    22558.633     5323.994       12.020        3.371      415.693       77.685        0.035      348.629       28.461      857.354
08/27/2013  16:13:00     -211.491      -15.833       -2.621      155.439      115.537       70.737    24161.339    13348.873     5003.765        4.374        2.126      212.083       74.346        0.123      348.659       28.513      857.357
08/27/2013  16:14:00     -146.765      -60.685       11.075      113.117      100.631       66.472    12795.366    10126.683     4418.572        2.634        1.367      158.816       75.455        0.226      348.651       28.500      857.388
08/27/2013  16:15:00     -132.733      -91.782        6.935      116.677       93.626       45.775    13613.636     8765.748     2095.367        2.528        1.224      161.375       41.251        0.065      348.640       28.483      857.386
08/27/2013  16:16:00     -223.910     -153.918        7.511      182.920      126.470       74.136    33459.588    15994.709     5496.105        6.441        2.748      271.711       84.826        0.097      348.580       28.376      857.385
08/27/2013  16:17:00      -23.641      -30.383       16.491       76.081       79.895       44.545     5788.335     6383.138     1984.229        0.795        0.708       38.497       36.895        0.918      348.665       28.527      857.360
08/27/2013  16:18:00     -459.447       -4.585      -55.943      186.689      112.203       58.369    34852.927    12589.624     3406.920       13.254        2.542      459.470       66.125        0.021      348.542       28.311      857.348
08/27/2013  16:19:00     -389.739     -122.993      -23.262      177.406      130.846       72.918    31472.735    17120.678     5316.968       11.073        2.696      408.686       77.739        0.036      348.504       28.246      857.335
08/27/2013  16:20:00     -367.146     -157.308        0.733      241.675      154.667       89.852    58406.996    23921.802     8073.367       12.495        4.520      399.427       95.706        0.057      348.488       28.218      857.363
08/27/2013  16:21:00     -201.645      -69.499        4.275      172.307       96.591       68.993    29689.665     9329.730     4760.002        4.464        2.189      213.286       79.827        0.140      348.523       28.279      857.375
08/27/2013  16:22:00     -217.858     -102.906        7.421      135.202       98.473       55.764    18279.545     9696.850     3109.575        4.459        1.554      240.940       59.420        0.061      348.483       28.208      857.358
08/27/2013  16:23:00     -164.293     -110.022        9.990      114.641       89.608       59.253    13142.641     8029.517     3510.941        3.194        1.234      197.730       58.265        0.087      348.531       28.291      857.359
08/27/2013  16:24:00     -203.764      -44.598       -4.197      101.022       89.319       53.323    10205.413     7977.952     2843.316        3.227        1.051      208.588       53.014        0.065      348.567       28.353      857.364
08/27/2013  16:25:00     -165.104     -115.027        5.413      162.404      117.895       81.226    26374.939    13899.157     6597.617        4.369        2.344      201.223       91.567        0.207      348.544       28.316      857.382
08/27/2013  16:26:00     -238.748      -47.533       -3.572      142.450      120.715       69.840    20291.966    14571.998     4877.592        4.950        1.987      243.434       72.100        0.088      348.559       28.340      857.343
08/27/2013  16:27:00     -116.240      -50.656       10.562       87.127       79.730       48.890     7591.171     6356.939     2390.216        1.626        0.817      126.798       36.867        0.085      348.583       28.383      857.349
08/27/2013  16:28:00     -187.670     -130.207       18.653      160.102      151.600       76.651    25632.546    22982.420     5875.373        5.350        2.725      228.417       78.889        0.119      348.565       28.350      857.348
08/27/2013  16:29:00     -345.388      -67.791      -18.233      116.845       87.953       55.644    13652.765     7735.804     3096.210        7.435        1.224      351.978       36.469        0.011      348.524       28.278      857.341
08/27/2013  16:30:00     -286.575      -97.188      -17.244      113.952       89.063       55.358    12985.008     7932.294     3064.555        5.792        1.199      302.606       59.370        0.038      348.542       28.309      857.349
08/27/2013  16:31:00     -106.511      -30.005       -4.201      151.339       77.668       49.055    22903.348     6032.385     2406.408        2.180        1.567      110.657       58.959        0.284      348.528       28.289      857.322
08/27/2013  16:32:00     -174.085     -145.109        2.044      160.172      118.855       76.208    25654.929    14126.553     5807.601        4.847        2.279      226.633       86.986        0.147      348.544       28.315      857.352
08/27/2013  16:33:00     -308.783     -202.562        4.197      178.338      143.336       77.112    31804.355    20545.130     5946.263        9.733        2.915      369.294       82.555        0.050      348.471       28.188      857.344
08/27/2013  16:34:00     -136.844      -77.038        7.128      154.137      141.041       74.997    23758.149    19892.532     5624.517        3.698        2.464      157.038       76.644        0.238      348.543       28.312      857.319
08/27/2013  16:35:00     -243.687      -53.010      -11.283      113.229      111.979       40.268    12820.917    12539.393     1621.495        4.465        1.349      249.386       42.109        0.029      348.550       28.327      857.306
08/27/2013  16:36:00     -190.780      -71.459       -5.771      107.287      108.838       55.948    11510.487    11845.733     3130.156        3.401        1.324      203.723       61.154        0.090      348.541       28.308      857.326
08/27/2013  16:37:00     -156.005      -65.467       -5.014       94.729      111.061       48.696     8973.589    12334.490     2371.311        2.616        1.184      169.185       47.996        0.080      348.577       28.374      857.313
08/27/2013  16:38:00     -308.678      -71.960       -3.474      170.008      105.083       67.101    28902.703    11042.509     4502.602        7.245        2.222      316.955       69.592        0.048      348.533       28.296      857.302
08/27/2013  16:39:00     -190.242       18.102        0.169      111.830       99.139       59.726    12505.883     9828.560     3567.150        3.121        1.295      191.101       61.661        0.104      348.576       28.370      857.306
08/27/2013  16:40:00     -410.145      -40.026      -21.438      168.356      114.126       78.024    28343.588    13024.728     6087.802       10.886        2.373      412.093       88.138        0.046      348.542       28.310      857.300
08/27/2013  16:41:00     -395.183      -49.014      -15.314      194.431      153.963       79.250    37803.606    23704.459     6280.582       11.328        3.389      398.211       91.626        0.053      348.497       28.234      857.277
08/27/2013  16:42:00     -401.876      -74.228       -5.832      178.385      161.795       77.836    31821.273    26177.548     6058.439       11.554        3.203      408.674       81.147        0.039      348.526       28.284      857.277
08/27/2013  16:43:00     -368.205     -118.924      -21.554      240.230      207.054       96.512    57710.420    42871.258     9314.515       13.002        5.495      386.934      103.385        0.071      348.486       28.215      857.316
08/27/2013  16:44:00     -408.267      -87.418      -32.183      286.528      169.620       92.199    82098.077    28770.794     8500.655       14.734        5.968      417.521      109.682        0.069      348.421       28.102      857.273
08/27/2013  16:45:00     -332.057     -134.032        0.614      143.904      137.366       76.300    20708.318    18869.518     5821.721        8.680        2.270      358.087       79.010        0.049      348.383       28.034      857.285
08/27/2013  16:46:00     -261.758      -81.927      -14.552      130.229      133.145       60.199    16959.557    17727.569     3623.885        5.687        1.916      274.279       47.331        0.030      348.439       28.134      857.275
08/27/2013  16:47:00     -322.280      -34.581      -15.917      136.932       90.304       63.957    18750.247     8154.771     4090.519        6.815        1.550      324.130       72.091        0.049      348.453       28.158      857.286
08/27/2013  16:48:00     -284.330       49.583       -8.711      161.232      128.679       76.079    25995.604    16558.359     5788.030        6.585        2.417      288.621       70.132        0.059      348.453       28.158      857.291
08/27/2013  16:49:00     -390.925      -15.559      -27.892      219.751      131.104       75.743    48290.338    17188.135     5737.041       11.251        3.561      391.234       96.844        0.061      348.414       28.089      857.301
08/27/2013  16:50:00     -274.159      -32.167      -14.291      203.530       80.745       64.306    41424.286     6519.809     4135.218        6.423        2.604      276.039       90.303        0.107      348.450       28.152      857.302
08/27/2013  16:51:00     -388.766      -79.876      -24.843      184.822      135.435       79.591    34159.081    18342.693     6334.652       10.847        2.942      396.887       85.652        0.047      348.409       28.081      857.340
08/27/2013  16:52:00     -582.403     -141.547      -30.313      251.320      204.456      110.946    63161.845    41802.293    12309.121       23.869        5.864      599.357      133.551        0.050      348.277       27.851      857.310
08/27/2013  16:53:00     -337.552     -131.965      -16.297      225.727      160.501       93.563    50952.842    25760.686     8754.016       10.853        4.273      362.431       99.248        0.075      348.317       27.922      857.320
08/27/2013  16:54:00     -241.178     -119.751       16.873      174.771      139.207       74.430    30544.961    19378.644     5539.852        6.412        2.773      269.272       71.160        0.070      348.297       27.887      857.338
08/27/2013  16:55:00     -345.611     -142.864      -23.813      190.443      119.194       74.658    36268.528    14207.254     5573.783        9.823        2.802      373.975       87.618        0.055      348.263       27.828      857.336
08/27/2013  16:56:00     -348.871     -189.683       -6.544      180.195      164.408       94.699    32470.088    27029.855     8967.991       11.309        3.423      397.103       98.105        0.061      348.228       27.767      857.360
08/27/2013  16:57:00     -414.457     -175.412       -4.100      181.218      163.747       88.166    32840.017    26813.205     7773.230       13.498        3.371      450.049       85.581        0.036      348.179       27.684      857.329
08/27/2013  16:58:00     -257.617     -119.065        8.160      170.534      158.418       84.303    29081.906    25096.110     7106.992        7.093        3.064      283.801       95.955        0.114      348.198       27.717      857.321
08/27/2013  16:59:00     -342.910     -261.457       -9.092      209.233      171.822       93.480    43778.655    29522.877     8738.477       13.402        4.102      431.215      108.849        0.064      348.177       27.680      857.319
08/27/2013  17:00:00     -287.295     -177.899       -6.670      163.792      154.372       93.104    26827.809    23830.651     8668.414        8.677        2.966      337.915       92.467        0.075      348.188       27.699      857.318
08/27/2013  17:01:00     -303.483     -216.044      -19.179      134.608      127.136       68.327    18119.303    16163.468     4668.601        8.904        1.948      372.528       54.937        0.022      348.227       27.767      857.339
08/27/2013  17:02:00     -416.701      -30.547       -7.684      169.732      113.550       80.187    28808.847    12893.543     6430.010       11.137        2.407      417.819       80.605        0.037      348.233       27.774      857.337
08/27/2013  17:03:00     -435.310      -43.723       -6.006      140.288      120.312       79.281    19680.706    14475.056     6285.530       11.593        2.022      437.500       75.142        0.029      348.204       27.727      857.344
08/27/2013  17:04:00     -256.374      -58.744       -1.764      138.504      106.355       58.006    19183.453    11311.315     3364.685        5.151        1.693      263.018       60.714        0.053      348.264       27.831      857.357
08/27/2013  17:05:00     -351.391     -196.869      -16.905      238.256      153.571       90.801    56765.943    23584.020     8244.822       12.554        4.430      402.782       98.244        0.059      348.152       27.636      857.352
08/27/2013  17:06:00     -280.722     -124.975       10.096      169.772      145.227       81.376    28822.366    21090.807     6622.128        7.552        2.827      307.284       81.771        0.071      348.119       27.579      857.384
08/27/2013  17:07:00     -348.141     -276.823      -22.263      182.295      164.952       94.974    33231.515    27209.076     9020.025       13.388        3.473      444.784       88.211        0.039      348.049       27.458      857.388
08/27/2013  17:08:00     -366.268     -170.875       -4.709      224.851      142.028       76.407    50558.103    20171.917     5838.086       11.996        3.828      404.167       93.508        0.054      347.994       27.364      857.385
08/27/2013  17:09:00     -328.979     -104.428       -4.709      224.113      175.266       80.659    50226.433    30718.035     6505.920       10.328        4.373      345.155       99.004        0.082      347.980       27.341      857.388
08/27/2013  17:10:00     -334.785     -190.929       -4.195      211.004      154.007       69.662    44522.672    23718.037     4852.844       11.081        3.655      385.402       83.853        0.047      347.959       27.302      857.400
08/27/2013  17:11:00     -184.346     -184.445       -6.211      189.185      136.650       86.951    35791.004    18673.100     7560.563        6.502        3.101      260.775      104.199        0.160      347.965       27.313      857.398
08/27/2013  17:12:00     -291.314     -192.446        7.695      207.849      153.745       91.380    43201.211    23637.575     8350.299        9.856        3.759      349.141      102.584        0.086      347.942       27.273      857.420
08/27/2013  17:13:00     -301.332     -138.286       -6.009      196.182      164.525       77.780    38487.287    27068.407     6049.789        9.077        3.580      331.548       84.410        0.065      347.895       27.192      857.437
08/27/2013  17:14:00     -421.804     -114.284       -5.776      224.764      178.333       97.170    50519.016    31802.569     9441.916       14.137        4.588      437.012      104.025        0.057      347.849       27.113      857.424
08/27/2013  17:15:00     -490.431      -27.784      -14.669      217.335      163.168      100.461    47234.583    26623.824    10092.339       16.271        4.198      491.217      111.249        0.051      347.842       27.099      857.431
08/27/2013  17:16:00     -217.844     -122.170        4.744      180.646      157.333       85.269    32632.896    24753.747     7270.749        6.352        3.233      249.762      100.728        0.163      347.876       27.161      857.461
08/27/2013  17:17:00     -307.550     -229.421       -8.843      210.598      191.070       86.061    44351.404    36507.693     7406.435       11.776        4.413      383.694      107.501        0.078      347.854       27.121      857.459
08/27/2013  17:18:00     -467.866     -242.934      -17.610      239.184      182.016      105.354    57208.787    33129.908    11099.475       18.981        5.072      527.177      117.689        0.050      347.804       27.033      857.470
08/27/2013  17:19:00     -352.079     -134.656      -21.673      208.680      139.180       97.261    43547.400    19371.010     9459.741       10.746        3.619      376.951      103.001        0.075      347.803       27.033      857.461
08/27/2013  17:20:00     -335.054     -230.722       -5.095      169.418      131.280       90.416    28702.481    17234.369     8175.080       10.980        2.706      406.809       94.324        0.054      347.811       27.048      857.474
08/27/2013  17:21:00     -376.760     -166.261       -9.018      165.955      129.982       69.751    27541.168    16895.367     4865.204       10.948        2.465      411.814       60.514        0.022      347.806       27.037      857.501
08/27/2013  17:22:00     -348.680     -185.443        1.193      240.052      239.626      115.836    57625.149    57420.614    13417.873       14.219        6.423      394.927      125.546        0.101      347.729       26.906      857.479
08/27/2013  17:23:00     -402.437     -185.597      -15.783      171.902      176.003       90.102    29550.384    30977.201     8118.437       13.263        3.432      443.173       84.210        0.036      347.736       26.919      857.492
08/27/2013  17:24:00     -469.605     -212.245      -13.141      189.691      131.614       75.923    35982.853    17322.152     5764.361       16.240        2.953      515.341       61.672        0.014      347.701       26.858      857.477
08/27/2013  17:25:00     -368.212     -140.520      -15.033      193.314      157.404       80.686    37370.387    24775.965     6510.278       11.209        3.433      394.114       81.040        0.042      347.731       26.910      857.501
08/27/2013  17:26:00     -368.747     -167.296      -19.346      216.140       98.191       70.017    46716.480     9641.566     4902.345       11.279        3.063      404.922       82.942        0.042      347.749       26.941      857.508
08/27/2013  17:27:00     -443.057      -84.483       -4.181      166.867      184.715       88.966    27844.477    34119.803     7914.887       13.665        3.494      451.039       85.763        0.036      347.720       26.889      857.506
08/27/2013  17:28:00     -500.549     -162.913      -18.918      258.459      192.776       95.647    66800.917    37162.482     9148.278       19.526        5.656      526.393      109.195        0.043      347.687       26.833      857.504
08/27/2013  17:29:00     -502.115     -111.647      -15.989      229.705      154.232       88.604    52764.268    23787.645     7850.675       17.460        4.220      514.378       82.917        0.026      347.663       26.791      857.498
08/27/2013  17:30:00     -282.131      -65.866       18.320      217.472      168.903      106.394    47294.095    28528.102    11319.789        8.569        4.357      289.718      115.070        0.158      347.646       26.762      857.509
08/27/2013  17:31:00     -322.561      -64.248        9.184      296.965      168.614      108.745    88188.416    28430.656    11825.561       11.833        6.422      328.897      137.250        0.174      347.639       26.752      857.508
08/27/2013  17:32:00     -279.552     -178.272       -2.303      204.747      155.377       91.463    41921.337    24142.162     8365.541        9.217        3.721      331.557      103.985        0.098      347.638       26.749      857.524
08/27/2013  17:33:00     -252.599     -186.923       19.892      218.151      183.044      113.841    47589.732    33505.050    12959.745        9.658        4.703      314.239      134.781        0.184      347.636       26.744      857.540
08/27/2013  17:34:00     -510.910      -88.994      -15.204      249.187      149.447       89.792    62094.399    22334.399     8062.693       18.082        4.625      518.603      104.276        0.040      347.609       26.699      857.533
08/27/2013  17:35:00     -310.532     -122.810        6.304      219.861      179.618      100.122    48338.823    32262.474    10024.453       10.107        4.531      333.935      117.016        0.123      347.624       26.725      857.559
08/27/2013  17:36:00     -506.047      -94.612      -33.379      258.313      182.799       86.265    66725.537    33415.593     7441.687       18.684        5.379      514.816      103.527        0.040      347.568       26.629      857.526
08/27/2013  17:37:00     -485.955     -289.001       -7.717      225.626      190.618      117.498    50907.151    36335.396    13805.782       21.037        5.052      565.397      118.675        0.044      347.540       26.581      857.522
08/27/2013  17:38:00     -383.544     -132.636       -1.475      224.431      205.483      103.344    50369.184    42223.224    10679.957       13.397        5.164      405.830      118.552        0.085      347.551       26.600      857.511
08/27/2013  17:39:00     -258.047     -151.587       13.704      223.257      181.826      118.543    49843.612    33060.680    14052.352        9.334        4.848      299.277      133.677        0.200      347.567       26.628      857.499
08/27/2013  17:40:00     -331.020     -135.690       11.103      278.694      213.733      126.549    77670.292    45681.793    16014.769       13.371        6.968      357.752      151.749        0.180      347.517       26.541      857.481
08/27/2013  17:41:00     -217.149     -158.375       14.194      211.298      182.686      113.716    44646.725    33374.241    12931.366        8.168        4.548      268.768      121.638        0.205      347.530       26.563      857.499
08/27/2013  17:42:00     -243.814     -154.963       28.264      242.339      186.114      114.907    58728.036    34638.356    13203.548        9.539        5.328      288.892      140.722        0.237      347.512       26.531      857.465
08/27/2013  17:43:00     -340.253     -196.735        5.975      202.905      158.226       92.292    41170.378    25035.472     8517.796       11.460        3.736      393.035      100.466        0.065      347.502       26.513      857.480
08/27/2013  17:44:00     -279.274     -102.680       -6.420      174.629      124.296       70.760    30495.241    15449.499     5006.951        6.975        2.548      297.552       87.060        0.086      347.524       26.551      857.515
08/27/2013  17:45:00     -391.663     -171.546       -9.391      176.540      173.849       83.404    31166.385    30223.360     6956.270       12.562        3.417      427.584       87.976        0.042      347.487       26.486      857.513
08/27/2013  17:46:00     -504.147     -253.337      -19.939      201.655      164.300       95.689    40664.611    26994.512     9156.290       19.776        3.841      564.220       87.305        0.024      347.461       26.442      857.503
08/27/2013  17:47:00     -288.977     -245.474       -7.718      204.403      166.038       93.595    41780.528    27568.561     8760.101       11.095        3.905      379.164      107.171        0.080      347.482       26.480      857.485
08/27/2013  17:48:00     -356.190     -219.826       11.869      263.957      220.032       91.989    69673.138    48414.056     8461.945       15.092        6.327      418.563      112.694        0.072      347.454       26.432      857.487
08/27/2013  17:49:00     -417.793     -143.959       -6.752      231.325      128.468       93.309    53511.200    16503.982     8706.585       13.701        3.936      441.899      114.124        0.067      347.457       26.435      857.473
08/27/2013  17:50:00     -172.236      -74.799       24.855      166.977      137.631       95.756    27881.153    18942.415     9169.254        4.592        2.800      187.777       95.996        0.261      347.453       26.429      857.466
08/27/2013  17:51:00     -251.913     -150.360       17.197      240.716      157.749       98.486    57944.167    24884.847     9699.480        8.943        4.626      293.374      115.665        0.155      347.415       26.364      857.462
08/27/2013  17:52:00     -270.506     -169.748       -2.407      205.500      131.211       74.806    42230.436    17216.381     5595.996        8.350        3.252      319.355       93.423        0.086      347.404       26.346      857.461
08/27/2013  17:53:00     -344.037      -93.080        2.628      325.899      157.319       96.407   106210.063    24749.374     9294.243       13.361        7.013      356.406       90.558        0.065      347.392       26.326      857.466
08/27/2013  17:54:00     -191.346      -63.647      -11.394      136.497       99.574       56.151    18631.395     9914.950     3152.972        3.624        1.585      201.654       57.704        0.082      347.407       26.352      857.451
08/27/2013  17:55:00     -297.082      -22.486       -9.306      191.844      114.851       67.941    36804.253    13190.755     4616.018        7.172        2.731      297.932       74.871        0.063      347.389       26.319      857.461
08/27/2013  17:56:00     -543.982     -128.155      -12.804      228.144      202.379       97.303    52049.888    40957.155     9467.854       20.747        5.124      558.874       93.631        0.028      347.346       26.244      857.417
08/27/2013  17:57:00     -298.098     -101.124       -7.955      163.210      167.953       76.850    26637.342    28208.125     5905.937        7.994        3.038      314.783       70.025        0.049      347.365       26.277      857.450
08/27/2013  17:58:00     -422.627      -74.784      -20.548      221.999      134.783       69.736    49283.681    18166.462     4863.177       12.846        3.616      429.193       87.196        0.041      347.352       26.257      857.446
08/27/2013  17:59:00     -319.298     -106.508       -1.314      242.606      232.051      101.147    58857.811    53847.520    10230.796       11.809        6.147      336.594      118.881        0.125      347.337       26.232      857.438
08/27/2013  18:00:00     -337.094     -220.098      -16.173      210.374      176.149       99.828    44257.166    31028.369     9965.619       12.378        4.263      402.586      115.480        0.082      347.330       26.219      857.438
08/27/2013  18:01:00     -307.951      -66.942       -1.249      153.296      147.771       72.034    23499.673    21836.128     5188.866        7.491        2.526      315.143       74.933        0.057      347.338       26.231      857.442
08/27/2013  18:02:00     -311.678     -185.879       15.487      254.330      154.777      104.438    64683.924    23955.927    10907.220       11.572        4.977      362.896      129.349        0.127      347.308       26.182      857.431
08/27/2013  18:03:00     -321.385     -171.541       -6.163      202.903      224.277       95.698    41169.719    50300.309     9158.030       11.667        5.031      364.300       99.078        0.074      347.305       26.174      857.398
08/27/2013  18:04:00     -331.662     -174.969      -12.190      174.819      132.486       81.469    30561.756    17552.486     6637.240        9.775        2.738      374.985       80.778        0.046      347.317       26.195      857.430
08/27/2013  18:05:00     -507.512     -193.119      -29.312      232.327      189.963      107.835    53975.784    36085.972    11628.420       19.869        5.085      543.013      117.787        0.047      347.268       26.111      857.419
08/27/2013  18:06:00     -247.932     -191.303       16.983      203.028      179.463       99.027    41220.494    32206.789     9806.381        9.078        4.162      313.157      114.094        0.133      347.274       26.121      857.420
08/27/2013  18:07:00     -394.251     -220.965       -1.510      232.120      208.306       90.187    53879.849    43391.505     8133.620       15.481        5.270      451.951       91.593        0.041      347.260       26.097      857.410
08/27/2013  18:08:00     -294.835      -84.332        3.467      201.331      169.878       81.672    40534.346    28858.443     6670.331        8.504        3.803      306.658       83.208        0.074      347.279       26.129      857.444
08/27/2013  18:09:00     -419.530     -154.698        1.433      283.248      203.671      124.671    80229.261    41482.072    15542.927       16.857        6.863      447.143      149.385        0.112      347.233       26.050      857.418
08/27/2013  18:10:00     -329.559     -192.813       -4.996      231.219      166.479       81.342    53462.266    27715.305     6616.583       11.678        4.390      381.819       94.744        0.062      347.217       26.024      857.402
08/27/2013  18:11:00     -382.795     -205.766       15.158      239.032      253.586      114.634    57136.363    64305.971    13140.998       16.182        6.729      434.593      128.108        0.087      347.198       25.990      857.397
08/27/2013  18:12:00     -483.661     -215.177      -25.477      346.458      240.538      132.322   120033.179    57858.293    17509.056       23.810        9.770      529.367      169.666        0.103      347.171       25.944      857.348
08/27/2013  18:13:00     -486.084     -153.174      -23.091      238.280      202.772       93.502    56777.412    41116.429     8742.555       18.343        5.332      509.646      110.452        0.047      347.195       25.985      857.350
08/27/2013  18:14:00     -661.984     -283.588      -24.094      274.048      216.015      113.185    75102.438    46662.466    12810.815       32.687        6.729      720.170      119.723        0.028      347.187       25.970      857.355
08/27/2013  18:15:00     -426.147     -132.467       -5.636      268.022      195.127      112.812    71835.664    38074.589    12726.620       16.088        6.132      446.261      149.803        0.113      347.184       25.967      857.371
08/27/2013  18:16:00     -288.807     -123.538       -3.409      156.154      149.820       82.185    24384.122    22445.953     6754.430        7.612        2.679      314.120       86.616        0.076      347.203       25.999      857.372
08/27/2013  18:17:00     -228.319     -153.985        6.212      181.685      156.433       92.610    33009.543    24471.165     8576.561        7.096        3.303      275.392       93.128        0.114      347.196       25.987      857.382
08/27/2013  18:18:00     -305.129      -69.047       -8.417      191.758      161.562       87.875    36771.322    26102.215     7721.939        8.425        3.530      312.844       87.494        0.078      347.194       25.984      857.401
08/27/2013  18:19:00     -485.350      -65.670        7.572      266.770      157.983      108.855    71166.301    24958.727    11849.517       17.393        5.399      489.773      122.774        0.063      347.151       25.909      857.374
08/27/2013  18:20:00     -600.747     -138.888      -11.010      347.287      257.938      103.485   120608.403    66532.061    10709.154       28.904        9.892      616.592      138.747        0.051      347.122       25.858      857.370
08/27/2013  18:21:00     -363.536     -183.788        3.363      223.795      175.728       92.692    50084.378    30880.420     8591.857       12.773        4.478      407.353      105.956        0.068      347.133       25.879      857.357
08/27/2013  18:22:00     -460.982        1.027      -19.286      199.505      180.422       93.936    39802.068    32552.187     8824.011       14.701        4.059      460.983       94.069        0.042      347.116       25.848      857.386
08/27/2013  18:23:00     -430.468      -36.716      -12.692      225.364      166.646       99.395    50788.744    27770.839     9879.298       13.761        4.422      432.031      113.826        0.069      347.098       25.818      857.402
08/27/2013  18:24:00     -227.189      -74.936       24.011      181.680      139.038       83.980    33007.681    19331.609     7052.603        5.859        2.970      239.229       97.338        0.166      347.126       25.868      857.390
08/27/2013  18:25:00     -236.256     -211.258       -8.654      230.299      153.767       92.898    53037.581    23644.187     8630.091        9.290        4.266      316.934      117.829        0.138      347.130       25.874      857.370
08/27/2013  18:26:00     -485.614     -133.425        8.275      302.425      220.510      116.241    91461.050    48624.549    13511.963       20.361        7.680      503.610      146.218        0.084      347.059       25.749      857.367
08/27/2013  18:27:00     -460.365     -128.769      -24.414      267.733      221.861      107.484    71681.107    49222.256    11552.897       18.076        6.623      478.034      121.501        0.065      347.063       25.758      857.349
08/27/2013  18:28:00     -312.944     -126.593      -13.248      231.000      205.519      103.625    53360.799    42238.190    10738.227       11.021        5.317      337.580      118.313        0.123      347.068       25.766      857.385
08/27/2013  18:29:00     -363.865      -68.588       -1.654      183.351      125.741       81.230    33617.729    15810.914     6598.346        9.655        2.801      370.273       81.147        0.048      347.058       25.749      857.404
08/27/2013  18:30:00     -527.183      -22.628      -40.188      220.000      190.529      107.169    48399.785    36301.372    11485.101       18.810        4.809      527.668      111.075        0.044      347.028       25.699      857.382
08/27/2013  18:31:00     -329.389     -130.071       -8.742      265.913      158.314      102.156    70709.658    25063.419    10435.855       11.583        5.310      354.140      114.143        0.104      347.038       25.714      857.360
08/27/2013  18:32:00     -574.195      -58.128      -39.552      328.310      241.460      118.698   107787.307    58302.696    14089.177       25.737        9.009      577.130      127.149        0.049      347.007       25.662      857.332
08/27/2013  18:33:00     -472.357     -187.574      -36.441      202.143      182.282       85.103    40861.718    33226.875     7242.583       17.047        4.067      508.237      101.727        0.040      347.013       25.672      857.384
08/27/2013  18:34:00     -475.561     -232.865      -18.093      306.003      223.708      132.155    93638.067    50045.405    17464.880       22.090        8.057      529.514      130.615        0.061      346.985       25.624      857.363
08/27/2013  18:35:00     -412.166     -304.695      -22.313      245.244      217.927      121.098    60144.394    47491.999    14664.830       19.274        6.115      512.562      121.990        0.057      346.967       25.593      857.332
08/27/2013  18:36:00     -390.704     -247.065       -5.273      260.307      172.332      114.763    67759.842    29698.474    13170.557       16.215        5.531      462.267      111.013        0.058      346.957       25.576      857.370
08/27/2013  18:37:00     -492.818     -203.146      -15.715      212.549      188.231      101.204    45177.080    35430.785    10242.301       18.760        4.543      533.045       96.829        0.033      346.944       25.552      857.355
08/27/2013  18:38:00     -381.029      -35.698        3.425      217.961      147.297       91.739    47507.192    21696.274     8416.131       11.203        3.881      382.698      101.814        0.071      346.926       25.521      857.349
08/27/2013  18:39:00     -293.571      -71.096        1.765      198.138      193.556       90.298    39258.684    37463.736     8153.673        8.804        4.244      302.058       97.926        0.105      346.925       25.520      857.369
08/27/2013  18:40:00     -466.711     -114.315      -37.739      240.086      153.950       99.327    57641.337    23700.464     9865.864       16.174        4.560      480.507      103.541        0.046      346.913       25.498      857.368
08/27/2013  18:41:00     -408.235     -185.714        7.021      284.755      198.264      120.026    81085.567    39308.735    14406.294       16.797        6.740      448.493      131.044        0.085      346.891       25.460      857.353
08/27/2013  18:42:00     -575.789     -148.469       -5.565      278.235      228.523      101.428    77414.905    52222.541    10287.635       24.674        6.996      594.623      113.833        0.037      346.872       25.430      857.358
08/27/2013  18:43:00     -389.336     -126.888       -7.700      200.512      156.577       89.618    40205.031    24516.336     8031.449       12.023        3.638      409.491       84.580        0.043      346.884       25.447      857.385
08/27/2013  18:44:00     -449.422      -47.552      -13.693      208.274      144.864       97.738    43378.047    20985.707     9552.773       13.916        3.696      451.931      111.547        0.061      346.859       25.406      857.395
08/27/2013  18:45:00     -689.412     -211.187      -32.962      306.862      259.080      114.185    94164.043    67122.574    13038.235       34.761        8.716      721.033      149.897        0.043      346.838       25.370      857.344
08/27/2013  18:46:00     -376.655     -101.783        5.308      233.951      180.365       93.753    54732.962    32531.378     8789.686       12.414        4.803      390.165      102.898        0.070      346.814       25.329      857.351
08/27/2013  18:47:00     -399.957     -126.146      -26.652      229.322      172.608       92.194    52588.638    29793.568     8499.714       13.372        4.544      419.379      107.440        0.066      346.826       25.351      857.369
08/27/2013  18:48:00     -676.769     -129.439      -27.488      269.125      182.350       92.878    72428.118    33251.538     8626.372       29.489        5.715      689.036       96.950        0.020      346.808       25.320      857.384
08/27/2013  18:49:00     -407.041     -116.656        8.476      244.398      217.156      112.456    59730.303    47156.798    12646.340       14.942        5.977      423.427      125.841        0.088      346.807       25.316      857.400
08/27/2013  18:50:00     -573.939     -162.029      -13.785      257.255      153.812       87.707    66180.319    23657.992     7692.534       22.667        4.877      596.372      100.361        0.028      346.801       25.307      857.388
08/27/2013  18:51:00     -423.497     -116.028      -15.379      201.292      154.756       89.337    40518.436    23949.331     7981.020       13.273        3.622      439.104       90.287        0.042      346.788       25.285      857.388
08/27/2013  18:52:00     -292.556      -72.266        8.499      202.693      172.984      100.657    41084.422    29923.437    10131.734        8.600        4.057      301.350       98.870        0.108      346.776       25.263      857.381
08/27/2013  18:53:00     -349.264     -147.337       -9.911      230.936      175.311      101.218    53331.565    30733.898    10245.063       11.903        4.716      379.069      115.786        0.093      346.777       25.267      857.381
08/27/2013  18:54:00     -624.946      -86.450      -40.814      289.542      245.390      118.249    83834.547    60216.110    13982.937       27.883        7.902      630.897      132.330        0.044      346.755       25.226      857.366
08/27/2013  18:55:00     -397.913      -16.740       15.624      223.421      197.819      115.875    49917.151    39132.470    13426.992       13.065        5.124      398.265      131.649        0.109      346.745       25.210      857.399
08/27/2013  18:56:00     -697.796     -134.602      -41.920      275.609      225.971      111.279    75960.294    51062.761    12382.995       32.307        6.970      710.659      132.765        0.035      346.747       25.212      857.399
08/27/2013  18:57:00     -521.558      -46.839      -12.447      238.581      197.452       90.846    56920.724    38987.095     8253.040       18.925        5.208      523.657      110.679        0.045      346.728       25.181      857.402
08/27/2013  18:58:00     -463.723      -95.508      -16.645      290.593      175.307      107.896    84444.561    30732.381    11641.562       17.560        6.341      473.456      136.158        0.083      346.732       25.186      857.385
08/27/2013  18:59:00     -549.781     -233.369      -39.825      278.558      230.153      115.013    77594.366    52970.525    13227.997       25.102        7.190      597.260      121.661        0.041      346.728       25.180      857.376
08/27/2013  19:00:00     -593.859     -159.729      -24.965      205.055      142.814       93.563    42047.668    20395.741     8754.009       22.499        3.560      614.965       96.543        0.025      346.717       25.162      857.402
08/27/2013  19:01:00     -361.755     -111.759        1.105      239.613      188.008      104.234    57414.277    35346.867    10864.816       12.347        5.181      378.625      115.477        0.093      346.720       25.166      857.390
08/27/2013  19:02:00     -507.585      -49.374       -9.246      294.525      165.456      110.637    86745.214    27375.831    12240.505       19.324        6.318      509.981      123.985        0.059      346.702       25.134      857.450
08/27/2013  19:03:00     -612.404     -160.058      -42.294      263.406      240.198      106.051    69382.970    57695.048    11246.897       27.036        6.916      632.975      130.547        0.043      346.707       25.143      857.451
08/27/2013  19:04:00     -276.490      -49.561        6.640      200.322      135.923       81.135    40128.816    18474.965     6582.876        7.205        3.259      280.897       89.419        0.101      346.703       25.137      857.483
08/27/2013  19:05:00     -467.352      -83.059      -24.975      219.140      184.404      100.160    48022.152    34004.660    10031.929       15.898        4.603      474.675      104.393        0.048      346.696       25.125      857.501
08/27/2013  19:06:00     -447.255     -101.664      -11.412      218.704      171.153       94.078    47831.360    29293.294     8850.745       14.822        4.299      458.664       96.639        0.044      346.689       25.114      857.514
08/27/2013  19:07:00     -282.660     -100.672        1.872      232.080      188.182      109.254    53861.065    35412.479    11936.398        9.560        5.060      300.053      100.430        0.112      346.673       25.087      857.508
08/27/2013  19:08:00     -476.925     -173.439      -11.515      239.373      185.742      100.756    57299.626    34499.997    10151.746       17.979        5.098      507.483      123.959        0.060      346.673       25.085      857.529
08/27/2013  19:09:00     -458.375     -205.869       -8.029      242.129      231.606      101.081    58626.528    53641.332    10217.436       18.749        6.124      502.483       96.744        0.037      346.669       25.080      857.545
08/27/2013  19:10:00     -324.749     -122.452      -12.718      216.803      191.721      112.950    47003.450    36757.070    12757.703       10.855        4.826      347.068      124.240        0.128      346.651       25.048      857.556
08/27/2013  19:11:00     -616.579     -168.479      -37.466      259.372      217.742      103.747    67274.060    47411.620    10763.403       26.768        6.272      639.183      111.717        0.031      346.667       25.076      857.559
08/27/2013  19:12:00     -322.045      -24.881       -5.923      230.666      140.747       88.813    53206.602    19809.766     7887.787        9.262        4.045      323.005       99.715        0.095      346.659       25.062      857.576
08/27/2013  19:13:00     -329.203      -45.655       -4.055      182.104      141.676       80.815    33162.024    20072.180     6531.136        8.511        2.988      332.353       76.230        0.053      346.648       25.043      857.617
08/27/2013  19:14:00     -304.360     -159.560       -1.973      210.969      131.766       76.681    44508.069    17362.408     5879.983        9.291        3.388      343.648       98.446        0.082      346.649       25.047      857.624
08/27/2013  19:15:00     -263.379      -43.180       27.671      251.811      167.405      107.547    63408.915    28024.436    11566.280        8.748        5.150      266.895      117.266        0.193      346.633       25.017      857.603
08/27/2013  19:16:00     -224.253     -128.611       -4.316      209.614      171.337      105.980    43937.998    29356.517    11231.776        7.567        4.226      258.515      120.991        0.219      346.627       25.008      857.608
08/27/2013  19:17:00     -330.181     -141.063       -1.329      318.692      202.112      124.699   101564.328    40849.084    15549.960       14.341        7.898      359.051      160.907        0.201      346.625       25.005      857.629
08/27/2013  19:18:00     -289.264     -130.470        0.038      202.640      134.719       87.886    41062.964    18149.089     7723.955        8.380        3.347      317.327       98.967        0.097      346.619       24.994      857.640
08/27/2013  19:19:00     -297.887      -54.379       -7.329      151.356      106.677       69.394    22908.621    11379.989     4815.527        6.542        1.955      302.810       77.272        0.065      346.600       24.959      857.666
08/27/2013  19:20:00     -424.689      -56.144      -29.539      223.449      147.762       93.637    49929.639    21833.741     8767.973       13.244        4.027      428.384       91.685        0.046      346.592       24.948      857.672
08/27/2013  19:21:00     -470.677      -16.161      -17.717      267.914      192.146       95.101    71777.659    36920.122     9044.226       16.990        5.887      470.954      101.268        0.046      346.579       24.924      857.657
08/27/2013  19:22:00     -253.910     -165.866      -13.800      169.765      141.949       87.026    28820.283    20149.610     7573.513        7.435        2.827      303.285       74.528        0.060      346.596       24.954      857.666
08/27/2013  19:23:00     -432.794     -127.542      -17.861      245.401      201.674       97.090    60221.486    40672.313     9426.506       15.709        5.516      451.196      117.112        0.067      346.559       24.890      857.673
08/27/2013  19:24:00     -328.933      -83.283        5.798      228.417      171.282      101.068    52174.370    29337.629    10214.725       10.343        4.586      339.313      120.264        0.126      346.519       24.822      857.682
08/27/2013  19:25:00     -323.246     -213.209        1.367      229.841      172.398      111.664    52826.819    29721.126    12468.860       12.246        4.751      387.229      109.638        0.080      346.544       24.864      857.688
08/27/2013  19:26:00     -201.357     -114.781       29.019      250.413      137.247      112.886    62706.514    18836.609    12743.201        7.441        4.714      231.775      147.692        0.406      346.543       24.863      857.708
08/27/2013  19:27:00     -354.584     -123.199        3.464      194.209      156.421       87.845    37717.227    24467.492     7716.727       10.540        3.495      375.377       89.324        0.057      346.541       24.861      857.713
08/27/2013  19:28:00     -273.823     -174.853        5.224      204.442      186.742       97.133    41796.435    34872.663     9434.898        9.582        4.305      324.888      104.880        0.104      346.547       24.869      857.710
08/27/2013  19:29:00     -285.847     -141.312      -22.989      144.505      108.093       63.111    20881.627    11684.017     3982.994        6.937        1.827      318.869       78.349        0.060      346.550       24.874      857.730
08/27/2013  19:30:00     -451.928      -52.520      -10.227      253.230      159.471       92.128    64125.617    25431.152     8487.615       15.255        4.902      454.970      120.062        0.070      346.519       24.823      857.725
08/27/2013  19:31:00     -375.603      -21.996        0.120      215.758      157.552       91.585    46551.719    24822.685     8387.849       11.065        3.988      376.247       95.710        0.065      346.487       24.768      857.717
08/27/2013  19:32:00     -485.410     -150.010      -12.403      224.062      208.299       95.317    50203.780    43388.474     9085.386       18.046        5.134      508.061      111.198        0.048      346.495       24.781      857.728
08/27/2013  19:33:00     -325.238     -174.644        4.633      177.112      164.519       80.960    31368.530    27066.449     6554.475       10.063        3.249      369.162       90.171        0.060      346.486       24.764      857.726
08/27/2013  19:34:00     -305.931        8.455      -12.484      184.578      146.617       78.484    34068.892    21496.660     6159.811        7.776        3.086      306.047       65.599        0.046      346.473       24.743      857.725
08/27/2013  19:35:00     -319.501     -137.395        5.754      201.130      171.142       94.539    40453.122    29289.693     8937.596        9.982        3.934      347.790      102.510        0.087      346.463       24.725      857.729
08/27/2013  19:36:00     -612.275      -41.204      -37.430      327.409      189.999      111.925   107196.342    36099.463    12527.280       26.687        7.791      613.660      136.657        0.050      346.477       24.749      857.721
08/27/2013  19:37:00     -479.015      -49.663      -23.269      203.395      155.086       96.850    41369.711    24051.623     9379.973       15.362        3.740      481.582       97.967        0.041      346.478       24.750      857.745
08/27/2013  19:38:00     -320.849     -121.484       -2.539      220.028      155.148       99.271    48412.254    24071.015     9854.654       10.001        4.117      343.077      112.451        0.107      346.455       24.712      857.790
08/27/2013  19:39:00     -365.498      -36.345      -12.470      240.877      201.370      105.102    58021.569    40549.858    11046.440       12.232        5.481      367.301      123.455        0.113      346.448       24.699      857.769
08/27/2013  19:40:00     -566.346      -77.421      -16.390      249.603      206.786      101.102    62301.494    42760.618    10221.656       22.112        5.764      571.613      108.294        0.036      346.432       24.669      857.795
08/27/2013  19:41:00     -422.914      -16.862       -9.553      239.559      165.525       91.037    57388.360    27398.443     8287.794       13.613        4.654      423.250      111.464        0.069      346.425       24.660      857.845
08/27/2013  19:42:00     -106.948      -73.588       29.740      171.771      153.552       98.393    29505.206    23578.339     9681.124        4.024        3.138      129.820       98.386        0.574      346.415       24.644      857.852
08/27/2013  19:43:00     -331.675      -93.553        1.455      270.564      157.767       82.357    73205.047    24890.357     6782.626       11.180        5.244      344.617      104.765        0.092      346.410       24.635      857.879
08/27/2013  19:44:00     -344.376     -219.310        4.978      209.275      220.071      129.261    43795.961    48431.218    16708.311       13.780        5.447      408.279      130.183        0.102      346.425       24.660      857.897
08/27/2013  19:45:00     -390.280     -131.311      -29.991      258.326      216.558      116.511    66732.422    46897.569    13574.802       14.881        6.360      411.778      138.687        0.113      346.444       24.692      857.917
08/27/2013  19:46:00     -436.403     -111.004      -13.656      221.543      193.430       88.006    49081.166    37415.127     7745.063       14.858        4.712      450.300      114.573        0.065      346.431       24.669      857.952
08/27/2013  19:47:00     -414.830       18.990      -16.875      180.071      127.407       77.759    32425.721    16232.530     6046.406       11.371        2.735      415.265       77.490        0.035      346.420       24.650      857.970
08/27/2013  19:48:00     -213.616      -93.287       -1.501      221.046      133.761       84.687    48861.489    17891.910     7171.969        6.412        3.696      233.097       91.090        0.153      346.409       24.633      857.934
08/27/2013  19:49:00     -194.883      -36.531       10.455      171.771      125.585       84.467    29505.380    15771.570     7134.751        4.591        2.621      198.277       93.533        0.223      346.394       24.608      857.960
08/27/2013  19:50:00     -295.452       -6.984        9.740      241.425      155.227       80.131    58286.104    24095.321     6421.052        8.810        4.440      295.534      106.275        0.129      346.379       24.582      857.981
08/27/2013  19:51:00     -334.222     -117.253       -4.433      189.093      142.878       82.112    35756.097    20414.131     6742.354        9.418        3.146      354.193       83.468        0.056      346.378       24.578      857.957
08/27/2013  19:52:00     -608.462      -54.852      -32.542      224.915      158.794      105.504    50586.920    25215.381    11131.044       23.060        4.347      610.929      111.261        0.033      346.370       24.564      857.979
08/27/2013  19:53:00     -301.292     -129.606        5.135      220.094      172.567       91.517    48441.319    29779.226     8375.411        9.708        4.330      327.985      102.678        0.098      346.370       24.564      858.000
08/27/2013  19:54:00     -376.531      -93.027      -14.467      246.644      156.323       88.310    60833.322    24436.854     7798.588       12.183        4.653      387.852      105.919        0.075      346.369       24.562      858.010
08/27/2013  19:55:00     -250.861     -109.055       -5.195      163.511      131.788       75.806    26735.738    17368.025     5746.590        6.234        2.493      273.540       84.217        0.095      346.372       24.568      858.032
08/27/2013  19:56:00     -418.091      -64.003      -29.684      213.284      116.286       70.497    45490.265    13522.385     4969.801       12.187        3.199      422.962       85.583        0.041      346.380       24.580      858.048
08/27/2013  19:57:00     -252.201      -54.636       -1.308      207.657       97.505       79.995    43121.244     9507.228     6399.158        6.280        2.951      258.051       91.131        0.125      346.369       24.564      858.047
08/27/2013  19:58:00     -236.066      -64.866      -22.661      136.811      156.930       68.311    18717.131    24627.135     4666.418        5.422        2.401      244.816       63.021        0.066      346.369       24.565      858.014
08/27/2013  19:59:00     -396.649      -13.043      -21.664      177.394      146.142       82.078    31468.461    21357.482     6736.737       10.875        2.978      396.864       80.676        0.041      346.346       24.523      858.028
08/27/2013  20:00:00     -478.727      -72.745      -17.883      282.888      143.968      103.953    80025.543    20726.752    10806.222       17.315        5.578      484.222      134.038        0.077      346.345       24.522      858.064
08/27/2013  20:01:00     -513.691      -88.458       -9.550      284.234      175.115      105.173    80788.714    30665.221    11061.419       19.713        6.126      521.252      123.380        0.056      346.358       24.544      858.136
08/27/2013  20:02:00     -392.401      -69.120      -12.825      168.644      124.900       71.077    28440.907    15599.900     5051.939       10.400        2.455      398.443       66.547        0.028      346.372       24.569      858.166
08/27/2013  20:03:00     -360.953      -81.747      -35.364      110.060       97.730       43.957    12113.298     9551.129     1932.201        8.090        1.180      370.094       46.510        0.016      346.387       24.593      858.159
08/27/2013  20:04:00     -330.322      -68.478       -0.693      221.300      125.538       66.812    48973.778    15759.705     4463.858        9.149        3.460      337.345       88.001        0.068      346.342       24.518      858.186
08/27/2013  20:05:00     -438.885     -119.314      -11.236      219.460      142.001       92.327    48162.760    20164.239     8524.328       14.190        3.843      454.814      106.259        0.055      346.327       24.492      858.192
08/27/2013  20:06:00     -490.393      -86.782      -27.925      212.204      143.065       82.363    45030.379    20467.555     6783.583       16.052        3.614      498.013       87.236        0.031      346.312       24.466      858.222
08/27/2013  20:07:00     -406.218       38.206      -29.252      185.771      135.598       66.389    34510.858    18386.814     4407.449       11.231        2.865      408.011       72.086        0.031      346.312       24.468      858.251
08/27/2013  20:08:00     -417.920       -0.447      -35.239      150.300      200.841       82.981    22590.034    40336.971     6885.766       12.284        3.491      417.920       60.147        0.021      346.309       24.459      858.229
08/27/2013  20:09:00     -441.959      -57.261      -18.568      166.091      159.898       76.202    27586.065    25567.277     5806.800       12.894        2.948      445.653       88.673        0.040      346.288       24.424      858.245
08/27/2013  20:10:00     -437.934      -70.038      -10.491      207.615      111.941       73.906    43104.066    12530.837     5462.159       12.894        3.055      443.499       79.967        0.033      346.275       24.402      858.256
08/27/2013  20:11:00     -385.665     -109.530      -15.631      153.930      147.164       68.841    23694.499    21657.277     4739.032       10.552        2.505      400.917       65.281        0.027      346.268       24.389      858.262
08/27/2013  20:12:00     -457.670       -1.395      -26.200      186.716      142.922       86.484    34863.039    20426.604     7479.431       13.645        3.138      457.672       86.022        0.035      346.263       24.380      858.289
08/27/2013  20:13:00     -380.657     -155.026      -20.257      206.992      144.435       82.494    42845.884    20861.337     6805.231       11.991        3.526      411.014       89.881        0.048      346.270       24.392      858.257
08/27/2013  20:14:00     -489.578     -143.836      -37.735      153.024      120.272       78.859    23416.397    14465.470     6218.800       15.294        2.205      510.270       60.221        0.014      346.274       24.400      858.244
08/27/2013  20:15:00     -564.982     -109.472      -30.360      209.069      169.595       97.525    43710.023    28762.360     9511.220       20.703        4.099      575.490       89.962        0.024      346.259       24.373      858.261
08/27/2013  20:16:00     -398.392      -54.535      -10.623      169.159      151.284       81.478    28614.732    22886.763     6638.634       10.996        2.907      402.107       73.253        0.033      346.262       24.379      858.331
08/27/2013  20:17:00     -399.483      -76.439      -24.829      188.849      129.002       72.748    35663.863    16641.601     5292.201       11.181        2.880      406.730       85.492        0.044      346.246       24.351      858.392
08/27/2013  20:18:00     -255.525      -42.823      -10.000       94.186      103.569       59.069     8871.039    10726.493     3489.201        4.515        1.154      259.088       54.439        0.044      346.244       24.349      858.415
08/27/2013  20:19:00     -304.410      -67.834      -11.879      127.136      141.079       69.374    16163.589    19903.367     4812.758        6.914        2.044      311.876       69.266        0.049      346.251       24.361      858.423
08/27/2013  20:20:00     -239.577     -114.649       -2.804      146.453      118.846       68.132    21448.439    14124.395     4642.028        5.537        2.011      265.596       80.181        0.091      346.223       24.312      858.416
08/27/2013  20:21:00     -307.849       75.574      -19.009      194.384      127.227       60.757    37785.295    16186.583     3691.371        7.924        2.883      316.989       79.832        0.063      346.215       24.298      858.414
08/27/2013  20:22:00     -191.067      -61.783      -18.021       76.969      104.853       49.953     5924.287    10994.172     2495.310        3.003        0.971      200.808       40.708        0.041      346.234       24.331      858.413
08/27/2013  20:23:00     -439.220     -155.021      -21.510      117.894      108.204       67.457    13898.926    11708.176     4550.387       12.378        1.508      465.774       62.862        0.018      346.216       24.300      858.396
08/27/2013  20:24:00     -275.481      -51.874        6.393      176.689      135.892       90.464    31219.104    18466.757     8183.732        6.823        2.893      280.323       90.855        0.105      346.188       24.252      858.393
08/27/2013  20:25:00     -480.660     -104.508      -22.004      216.220      158.334       91.706    46751.116    25069.693     8410.071       16.132        4.012      491.890       94.477        0.037      346.175       24.230      858.366
08/27/2013  20:26:00     -393.796      -36.834      -11.347      194.655      123.571       73.709    37890.747    15269.786     5432.974       10.757        2.930      395.514       86.927        0.048      346.170       24.221      858.383
08/27/2013  20:27:00     -433.185      -73.425       -7.780      159.737      124.116       73.467    25515.911    15404.847     5397.441       11.970        2.316      439.364       77.766        0.031      346.173       24.225      858.409
08/27/2013  20:28:00     -243.378      -68.472       13.800      211.243      147.896       77.764    44623.614    21873.146     6047.243        6.831        3.627      252.827       94.763        0.140      346.126       24.145      858.428
08/27/2013  20:29:00     -153.168       53.425       -2.671       75.106       41.739       36.637     5640.905     1742.163     1342.241        1.752        0.436      162.218       34.676        0.046      346.103       24.109      858.470
08/27/2013  20:30:00     -125.396      -55.466       -8.437       91.468       81.848       34.315     8366.361     6699.169     1177.543        1.755        0.812      137.116       48.036        0.123      346.182       24.244      858.475
08/27/2013  20:31:00     -197.155     -163.906      -10.063       98.427       72.249       43.363     9687.851     5219.917     1880.322        4.131        0.839      256.389       41.676        0.026      346.262       24.379      858.439
08/27/2013  20:32:00     -125.668     -179.551       -1.252      136.180      110.245       68.938    18544.907    12153.879     4752.420        4.173        1.773      219.160       70.974        0.105      346.220       24.308      858.418
08/27/2013  20:33:00     -180.457      -69.209      -23.493      105.989       83.062       54.443    11233.572     6899.288     2964.062        2.950        1.055      193.273       52.281        0.073      346.215       24.299      858.445
08/27/2013  20:34:00     -295.818      -74.859      -14.368      210.103       88.085       74.760    44143.315     7758.896     5589.054        7.539        2.875      305.143       85.492        0.078      346.174       24.229      858.470
08/27/2013  20:35:00     -416.511     -146.418      -32.782      316.289      171.299       91.196   100038.841    29343.342     8316.721       16.682        6.885      441.497      128.260        0.084      346.182       24.242      858.441
08/27/2013  20:36:00     -410.409     -110.841      -25.705      254.603      170.032       98.397    64822.731    28910.998     9682.016       14.238        5.171      425.113      126.449        0.088      346.170       24.220      858.433
08/27/2013  20:37:00     -282.687     -117.163        2.998      204.532      170.250      100.127    41833.183    28985.221    10025.321        8.723        4.042      306.005      110.842        0.131      346.158       24.201      858.475
08/27/2013  20:38:00     -372.095      -96.816      -16.890      200.472      134.144       85.054    40189.087    17994.610     7234.265       10.675        3.271      384.485       81.352        0.045      346.135       24.162      858.502
08/27/2013  20:39:00     -249.624      -81.737       12.091      174.451      111.781       66.942    30433.188    12495.005     4481.188        5.826        2.370      262.665       66.925        0.065      346.150       24.188      858.530
08/27/2013  20:40:00     -363.544     -109.680      -17.279      169.903      185.526       95.738    28866.890    34419.878     9165.708       10.846        3.623      379.729       90.096        0.056      346.165       24.213      858.523
08/27/2013  20:41:00     -455.241     -194.650      -19.623      169.860      154.883       80.516    28852.505    23988.627     6482.855       15.241        2.966      495.109       81.360        0.027      346.190       24.253      858.530
08/27/2013  20:42:00     -323.856     -232.045       -1.299      198.955      152.936       87.857    39583.110    23389.496     7718.903       11.470        3.535      398.407       91.708        0.053      346.179       24.237      858.567
08/27/2013  20:43:00     -356.749     -126.166       -8.502      200.610      158.389       87.771    40244.504    25087.004     7703.815       10.813        3.652      378.402       99.394        0.069      346.193       24.260      858.577
08/27/2013  20:44:00     -247.247      -45.738       -0.235      167.871      122.621       68.544    28180.834    15035.825     4698.214        5.556        2.396      251.442       57.581        0.052      346.176       24.231      858.563
08/27/2013  20:45:00     -445.471      -98.438      -16.293      239.368      127.293       83.171    57297.259    16203.610     6917.498       14.439        4.021      456.218       83.881        0.034      346.148       24.185      858.519
08/27/2013  20:46:00     -402.265     -118.969       -6.291      198.799      136.929       84.392    39520.853    18749.540     7122.035       12.069        3.270      419.489       99.552        0.056      346.135       24.161      858.539
08/27/2013  20:47:00     -375.583     -161.159      -19.966      163.791      147.391       98.338    26827.547    21724.045     9670.312       11.282        2.911      408.699      100.373        0.060      346.123       24.140      858.593
08/27/2013  20:48:00     -171.678      -97.204        7.279      182.312      128.720       71.971    33237.715    16568.908     5179.852        4.697        2.749      197.287       78.997        0.160      346.130       24.154      858.626
08/27/2013  20:49:00     -326.762     -148.901      -24.089      160.479       98.427       59.047    25753.440     9687.867     3486.551        8.422        1.946      359.089       61.423        0.029      346.138       24.167      858.643
08/27/2013  20:50:00     -267.149     -106.311       -6.759      149.860      108.578       66.571    22458.133    11789.178     4431.708        6.069        1.934      287.525       71.633        0.062      346.111       24.120      858.662
08/27/2013  20:51:00     -276.686      -97.128        6.401      176.787      120.805       71.549    31253.583    14593.823     5119.275        6.849        2.548      293.238       79.746        0.074      346.098       24.098      858.678
08/27/2013  20:52:00     -298.773     -103.134       -9.833      145.149      162.023       64.987    21068.141    26251.325     4223.256        7.576        2.577      316.073       66.172        0.044      346.098       24.097      858.693
08/27/2013  20:53:00     -170.547     -153.667        2.395      129.722      142.340       70.452    16827.826    20260.661     4963.483        4.737        2.103      229.564       71.893        0.098      346.111       24.119      858.669
08/27/2013  20:54:00     -364.448     -151.519      -17.729      246.325      121.560       74.345    60675.936    14776.798     5527.131       11.852        4.049      394.690       75.044        0.036      346.097       24.095      858.652
08/27/2013  20:55:00     -280.771      -42.541       -4.408      129.301      139.409       71.056    16718.676    19434.797     5048.941        6.092        2.060      283.976       67.415        0.056      346.074       24.054      858.622
08/27/2013  20:56:00     -312.058      -96.499       -9.795      228.583      122.623       75.103    52250.037    15036.431     5640.464        8.984        3.646      326.638       97.317        0.089      346.072       24.054      858.643
08/27/2013  20:57:00     -332.494      -93.522      -22.378      147.381      124.332       62.728    21721.139    15458.493     3934.765        8.045        2.056      345.396       70.685        0.042      346.073       24.054      858.668
08/27/2013  20:58:00     -321.810     -197.759       -8.048      157.772      124.175       80.289    24892.071    15419.548     6446.255        9.474        2.338      377.718       79.818        0.045      346.100       24.102      858.707
08/27/2013  20:59:00     -136.780      -62.692       26.858      139.922      117.187       62.937    19578.052    13732.719     3961.049        3.031        1.864      150.463       77.748        0.267      346.092       24.088      858.709
08/27/2013  21:00:00     -141.738      -78.061      -10.659      147.413       65.954       48.334    21730.711     4349.900     2336.189        2.735        1.421      161.812       69.441        0.184      346.081       24.071      858.709
08/27/2013  21:01:00     -270.654     -146.866       11.908      177.774      140.289       73.917    31603.507    19680.977     5463.711        7.585        2.837      307.934       81.243        0.070      346.068       24.046      858.719
08/27/2013  21:02:00     -474.819     -137.505      -16.566      197.604      147.153       84.840    39047.352    21653.959     7197.857       15.625        3.395      494.328       90.936        0.034      346.076       24.058      858.739
08/27/2013  21:03:00     -290.095      -73.790        9.138      162.428      162.024       72.183    26382.765    26251.829     5210.437        7.375        2.892      299.332       71.761        0.057      346.066       24.042      858.773
08/27/2013  21:04:00     -135.026      -76.064       26.470      123.262      114.206       64.588    15193.429    13042.969     4171.611        2.856        1.620      154.977       64.742        0.175      346.071       24.053      858.796
08/27/2013  21:05:00     -248.609     -164.072       -0.347      141.318      135.138       62.593    19970.667    18262.392     3917.843        6.543        2.108      297.870       60.319        0.041      346.075       24.058      858.776
08/27/2013  21:06:00     -313.275      -98.743       -3.536      199.368      161.633       83.129    39747.459    26125.213     6910.475        9.033        3.639      328.468      100.270        0.093      346.041       24.000      858.772
08/27/2013  21:07:00     -259.847     -140.809       -4.127      139.152      148.975       81.891    19363.227    22193.456     6706.185        6.780        2.413      295.546       69.515        0.055      346.050       24.015      858.782
08/27/2013  21:08:00     -347.887     -231.817      -23.372      175.195      171.849       94.880    30693.133    29532.241     9002.140       12.226        3.461      418.048      100.345        0.058      346.049       24.013      858.782
08/27/2013  21:09:00     -400.127     -152.995      -19.182      261.737      197.899       97.240    68506.413    39164.070     9455.707       15.048        5.856      428.379      105.185        0.060      346.052       24.018      858.800
08/27/2013  21:10:00     -334.394     -144.090      -18.243      272.692      147.213       85.111    74360.656    21671.609     7243.952       11.807        5.164      364.117      115.962        0.101      346.054       24.021      858.819
08/27/2013  21:11:00     -262.563     -118.478      -16.183      133.364      133.248       63.885    17786.051    17754.977     4081.244        6.142        1.981      288.056       62.915        0.048      346.052       24.019      858.875
08/27/2013  21:12:00     -323.627      -96.591      -17.529      178.521      161.601       78.431    31869.713    26114.780     6151.395        8.924        3.207      337.734       76.662        0.052      346.043       24.003      858.894
08/27/2013  21:13:00     -164.526      -35.715        0.973      120.611      106.562       57.809    14547.131    11355.561     3341.851        2.879        1.462      168.358       54.957        0.107      346.024       23.972      858.910
08/27/2013  21:14:00     -143.624        8.164       17.433      138.029       85.004       53.264    19052.081     7225.690     2837.027        2.505        1.456      143.856       54.361        0.143      345.999       23.930      858.928
08/27/2013  21:15:00     -317.616       -5.067      -16.873      151.033      122.835       68.028    22811.039    15088.351     4627.743        7.185        2.126      317.656       75.678        0.057      345.988       23.911      858.953
08/27/2013  21:16:00     -175.008      -38.619       13.911       98.917      131.267       55.728     9784.542    17230.965     3105.633        3.121        1.506      179.219       49.247        0.076      345.982       23.899      858.946
08/27/2013  21:17:00     -298.186     -117.711      -14.220      228.640      150.184       86.509    52276.456    22555.345     7483.724        9.263        4.116      320.579      115.456        0.130      345.994       23.920      858.961
08/27/2013  21:18:00     -383.398      -98.296      -23.695      219.209      183.141       74.848    48052.460    33540.604     5602.256       12.219        4.360      395.798       83.084        0.044      346.013       23.952      858.949
08/27/2013  21:19:00     -464.093      -54.814      -23.847      214.249      147.468       96.591    45902.703    21746.817     9329.872       14.795        3.849      467.319       98.215        0.044      346.015       23.956      858.952
08/27/2013  21:20:00     -338.141      -80.197      -10.382      126.158      126.220       66.697    15915.876    15931.454     4448.494        7.858        1.815      347.521       71.416        0.042      346.000       23.929      858.987
08/27/2013  21:21:00     -276.373      -19.768       -1.844      154.339      100.766       79.375    23820.508    10153.785     6300.369        5.852        2.014      277.079       92.552        0.112      345.989       23.912      859.026
08/27/2013  21:22:00     -316.835     -124.134      -21.103      128.473       95.348       63.277    16505.298     9091.260     4003.988        7.291        1.480      340.285       63.109        0.034      345.995       23.922      859.041
08/27/2013  21:23:00     -342.482     -186.374      -12.843      145.284      122.359       58.958    21107.367    14971.824     3476.057        9.587        1.978      389.909       62.331        0.026      345.985       23.903      859.066
08/27/2013  21:24:00     -192.121     -103.748        0.277      118.998      133.188       69.146    14160.596    17739.160     4781.231        4.217        1.834      218.344       65.301        0.089      345.965       23.871      859.068
08/27/2013  21:25:00     -157.014     -100.998       -6.736      143.376      108.742       55.462    20556.698    11824.906     3076.023        3.517        1.773      186.692       57.048        0.093      345.939       23.825      859.070
08/27/2013  21:26:00     -192.201     -166.288       -0.194      184.785      148.728       99.857    34145.336    22120.027     9971.505        6.540        3.312      254.152      102.818        0.164      345.896       23.751      859.077
08/27/2013  21:27:00     -274.485      -96.977        0.361      210.213      161.011       84.347    44189.299    25924.490     7114.430        8.097        3.861      291.112      105.599        0.132      345.885       23.732      859.100
08/27/2013  21:28:00     -298.323      -19.052      -31.443      145.865       99.890       57.983    21276.538     9978.039     3362.071        6.248        1.731      298.930       63.757        0.045      345.887       23.738      859.099
08/27/2013  21:29:00     -349.703     -108.286      -17.946      150.403      115.747       65.162    22621.140    13397.450     4246.051        8.729        2.013      366.084       67.188        0.034      345.875       23.716      859.110
08/27/2013  21:30:00     -279.036      -98.281        3.610      211.430      149.152       75.377    44702.493    22246.196     5681.641        8.007        3.632      295.838       95.218        0.104      345.827       23.634      859.099
08/27/2013  21:31:00     -249.326      -62.798       -1.519      146.226      111.001       69.755    21381.910    12321.200     4865.720        5.233        1.928      257.113       71.233        0.077      345.820       23.620      859.133
08/27/2013  21:32:00     -212.671      -62.717       -7.751       98.126       94.249       52.961     9628.746     8882.950     2804.826        3.527        1.066      221.726       55.148        0.062      345.812       23.606      859.147
08/27/2013  21:33:00     -311.097     -118.724       -8.450      204.257       83.804       64.217    41720.808     7023.161     4123.792        8.190        2.643      332.982       78.448        0.056      345.792       23.573      859.094
08/27/2013  21:34:00     -373.236      -97.708       -7.119      160.166      119.150       66.726    25653.013    14196.756     4452.395        9.659        2.215      385.813       72.337        0.035      345.756       23.511      859.097
08/27/2013  21:35:00     -324.996      -78.147        6.768      150.084      104.701       67.980    22525.333    10962.324     4621.333        7.493        1.905      334.259       69.631        0.043      345.727       23.462      859.096
08/27/2013  21:36:00     -305.164      -11.849       -1.657      206.399      105.993       73.433    42600.493    11234.476     5392.402        7.624        2.961      305.394       90.260        0.087      345.712       23.437      859.096
08/27/2013  21:37:00     -429.023     -155.342      -24.610      140.865      129.336       69.792    19842.910    16727.746     4870.946       12.511        2.072      456.280       69.502        0.023      345.718       23.447      859.084
08/27/2013  21:38:00     -230.835     -108.644       -7.469      134.961       84.399       54.157    18214.588     7123.254     2932.991        4.670        1.414      255.124       56.241        0.049      345.708       23.430      859.092
08/27/2013  21:39:00     -110.680      -37.972       29.381      148.100      111.116       74.444    21933.727    12346.824     5541.918        2.718        1.991      117.012       83.512        0.509      345.685       23.390      859.048
08/27/2013  21:40:00     -383.289      -80.132      -18.217      184.088      127.071       68.480    33888.321    16147.011     4689.457       10.418        2.736      391.576       80.632        0.042      345.668       23.359      859.063
08/27/2013  21:41:00     -136.649      -22.008       -2.331      123.947       67.989       44.910    15362.848     4622.540     2016.881        2.058        1.100      138.410       47.599        0.118      345.640       23.313      859.075
08/27/2013  21:42:00     -287.815     -154.527      -15.303      116.629      134.211       71.459    13602.242    18012.476     5106.338        7.183        1.836      326.674       67.570        0.043      345.650       23.328      859.080
08/27/2013  21:43:00     -444.269     -114.877      -17.555      192.642      165.837       88.966    37111.049    27501.980     7914.947       14.169        3.626      458.881      100.783        0.048      345.646       23.320      859.086
08/27/2013  21:44:00     -373.018      -87.951      -26.225      105.910      159.153       65.645    11216.855    25329.772     4309.263        9.420        2.043      383.246       63.392        0.027      345.636       23.304      859.115
08/27/2013  21:45:00     -182.278      -33.601       -6.008       96.991       85.450       56.886     9407.252     7301.730     3236.034        2.716        0.997      185.349       51.725        0.078      345.619       23.277      859.132
08/27/2013  21:46:00     -249.619      -40.162        8.994      166.681      111.324       77.434    27782.439    12392.935     5996.020        5.508        2.309      252.829       75.535        0.089      345.614       23.268      859.120
08/27/2013  21:47:00     -252.703      -47.139       -7.661      107.562      108.771       52.679    11569.675    11831.042     2775.088        4.615        1.309      257.062       39.856        0.024      345.605       23.251      859.127
08/27/2013  21:48:00     -302.763     -102.890      -11.014      167.474      102.051       69.862    28047.652    10414.334     4880.684        7.285        2.167      319.769       77.362        0.059      345.611       23.262      859.136
08/27/2013  21:49:00     -248.416     -143.227       -6.731      126.993      132.787       62.938    16127.123    17632.518     3961.212        5.999        1.886      286.748       62.244        0.047      345.602       23.246      859.134
08/27/2013  21:50:00     -225.613     -160.198        9.812      173.178      136.409       80.299    29990.774    18607.520     6447.861        6.584        2.752      276.703       77.416        0.078      345.592       23.230      859.111
08/27/2013  21:51:00     -258.526      -94.255       -5.854      126.688       97.880       61.178    16049.956     9580.550     3742.749        5.256        1.469      275.172       57.135        0.043      345.581       23.209      859.108
08/27/2013  21:52:00     -158.441       -8.137       14.200      127.071       82.289       45.517    16147.066     6771.423     2071.795        2.518        1.250      158.650       47.523        0.090      345.551       23.162      859.112
08/27/2013  21:53:00     -302.549     -101.537      -19.170      156.646      155.132       60.339    24538.071    24066.026     3640.831        7.722        2.612      319.132       73.644        0.053      345.542       23.144      859.118
08/27/2013  21:54:00     -239.661      -99.538        1.587      142.335      133.339       73.341    20259.262    17779.216     5378.896        5.537        2.171      259.510       80.258        0.096      345.533       23.128      859.110
08/27/2013  21:55:00     -268.225     -102.488        8.637      175.185      154.201       76.082    30689.928    23778.009     5788.396        7.138        3.013      287.139       74.356        0.067      345.529       23.121      859.146
08/27/2013  21:56:00     -243.323      -95.034      -10.321      120.593      121.539       55.612    14542.636    14771.694     3092.717        5.037        1.620      261.223       58.952        0.051      345.534       23.130      859.176
08/27/2013  21:57:00     -211.712      -99.158      -16.537      100.975      134.629       51.828    10195.940    18124.868     2686.141        4.296        1.550      233.782       51.801        0.049      345.557       23.170      859.178
08/27/2013  21:58:00     -199.710       42.349       -7.648      109.400       70.480       54.354    11968.294     4967.457     2954.334        3.081        0.995      204.151       56.050        0.075      345.503       23.078      859.126
08/27/2013  21:59:00     -252.625      -30.545      -15.138       94.164      120.593       50.129     8866.936    14542.663     2512.894        4.545        1.296      254.465       41.151        0.026      345.497       23.064      859.112
08/27/2013  22:00:00     -230.252      -98.807        5.842      108.811       88.636       56.364    11839.848     7856.325     3176.862        4.284        1.144      250.557       55.723        0.049      345.460       23.001      859.141
08/27/2013  22:01:00     -246.187      -99.036       13.549      271.683      160.618       77.596    73811.783    25798.155     6021.201        8.809        5.282      265.360      125.181        0.223      345.497       23.066      859.167
08/27/2013  22:02:00     -347.395     -150.057      -22.574      119.727      117.098       63.024    14334.595    13711.868     3972.005        8.786        1.601      378.418       55.355        0.021      345.547       23.152      859.191
08/27/2013  22:03:00     -148.221      -26.229       13.256       89.570       56.299       41.121     8022.770     3169.539     1690.953        1.786        0.644      150.524       44.964        0.089      345.497       23.067      859.198
08/27/2013  22:04:00     -220.325      -93.721       -5.391       91.253       83.958       46.635     8327.034     7048.903     2174.777        3.745        0.878      239.430       45.395        0.036      345.479       23.034      859.193
08/27/2013  22:05:00     -161.130      -80.736        6.996      113.205       90.001       58.079    12815.381     8100.203     3373.143        2.840        1.214      180.225       53.848        0.089      345.439       22.968      859.206
08/27/2013  22:06:00     -337.790     -137.039      -25.734      173.535      155.352       74.549    30114.295    24134.211     5557.600        9.666        2.990      364.529       85.745        0.055      345.459       23.002      859.204
08/27/2013  22:07:00     -171.102      -41.117        2.511      123.517       83.912       64.152    15256.486     7041.227     4115.430        2.869        1.321      175.973       73.091        0.173      345.433       22.955      859.191
08/27/2013  22:08:00     -188.739      -40.040       -5.279      101.776      103.621       60.903    10358.285    10737.243     3709.125        3.102        1.240      192.940       52.514        0.074      345.395       22.892      859.164
08/27/2013  22:09:00     -224.331     -109.961       -6.037      129.702       96.433       51.380    16822.628     9299.386     2639.899        4.560        1.438      249.832       49.838        0.040      345.365       22.839      859.179
08/27/2013  22:10:00     -268.282      -89.158       -0.699      141.986      127.330       68.919    20160.038    16212.836     4749.820        6.052        2.056      282.709       71.534        0.064      345.348       22.809      859.188
08/27/2013  22:11:00     -458.603     -119.449      -29.990      132.543      151.203       76.412    17567.673    22862.332     5838.755       13.587        2.313      473.904       69.076        0.021      345.371       22.849      859.201
08/27/2013  22:12:00     -246.128     -118.419        5.506      153.614      102.879       66.899    23597.223    10584.186     4475.461        5.664        1.933      273.134       70.077        0.066      345.373       22.853      859.230
08/27/2013  22:13:00     -338.298     -162.265      -20.033      143.267      127.807       80.562    20525.442    16334.634     6490.233        9.225        2.168      375.201       60.107        0.026      345.408       22.913      859.237
08/27/2013  22:14:00     -270.001     -218.759       -6.358      213.654      148.415       84.412    45648.242    22027.070     7125.333        9.778        3.740      347.500       95.414        0.075      345.407       22.912      859.215
08/27/2013  22:15:00     -306.926     -131.688      -16.437      127.490       98.703       59.334    16253.644     9742.362     3520.536        7.066        1.476      333.984       59.463        0.032      345.359       22.828      859.230
08/27/2013  22:16:00     -458.622      -41.826      -25.859      169.701      107.552       74.915    28798.516    11567.433     5612.248       12.936        2.299      460.525       73.700        0.026      345.347       22.810      859.233
08/27/2013  22:17:00     -412.314      -51.834      -39.605      187.320      137.819       80.704    35088.725    18994.182     6513.113       11.742        3.030      415.560      103.271        0.062      345.325       22.770      859.234
08/27/2013  22:18:00     -247.851      -64.068      -13.247      139.012       97.786       62.650    19324.360     9562.019     3925.050        4.925        1.641      255.997       72.758        0.081      345.294       22.718      859.251
08/27/2013  22:19:00     -253.575     -109.271       -1.289      161.142       99.942       60.225    25966.890     9988.487     3627.058        5.790        1.979      276.117       65.675        0.057      345.301       22.731      859.250
08/27/2013  22:20:00     -355.496       59.295      -32.816      124.359      108.763       51.136    15465.252    11829.360     2614.866        8.043        1.495      360.407       41.905        0.014      345.320       22.762      859.252
08/27/2013  22:21:00     -325.330       67.664      -17.968      180.354      112.394       62.094    32527.668    12632.438     3855.628        7.987        2.451      332.292       75.005        0.051      345.296       22.720      859.235
08/27/2013  22:22:00     -229.096      -39.791       24.061      194.648      184.023       93.601    37887.943    33864.358     8761.233        6.756        4.026      232.526       96.237        0.171      345.248       22.639      859.232
08/27/2013  22:23:00     -382.699      -47.334      -33.024      152.625       93.770       73.377    23294.305     8792.794     5384.193        9.362        1.874      385.615       75.672        0.039      345.311       22.748      859.240
08/27/2013  22:24:00     -440.134      -60.391      -20.452      128.091      113.140       77.071    16407.420    12800.570     5939.885       11.646        1.757      444.258       77.800        0.031      345.320       22.762      859.259
08/27/2013  22:25:00     -188.560      -94.405       -8.123      126.401      100.038       60.980    15977.177    10007.503     3718.505        3.711        1.485      210.872       71.916        0.116      345.310       22.744      859.281
08/27/2013  22:26:00     -282.976      -31.776      -21.840      140.711      109.377       53.996    19799.631    11963.312     2915.570        5.811        1.734      284.755       46.392        0.027      345.285       22.703      859.276
08/27/2013  22:27:00     -215.594      -29.859        1.882      228.464      155.301       91.083    52195.633    24118.529     8296.047        6.598        4.231      217.652       99.974        0.211      345.226       22.602      859.264
08/27/2013  22:28:00     -451.048      -61.262      -28.646      162.969      152.699       80.714    26558.888    23316.872     6514.752       13.219        2.820      455.189       71.793        0.025      345.270       22.676      859.236
08/27/2013  22:29:00     -460.124      -97.058      -19.398      158.181      140.424       72.354    25021.228    19718.996     5235.136       13.573        2.499      470.249       59.511        0.016      345.262       22.663      859.248
08/27/2013  22:30:00     -328.866      -73.908      -11.327      147.475      131.372       77.415    21748.856    17258.653     5993.006        7.936        2.250      337.069       71.677        0.045      345.220       22.590      859.282
08/27/2013  22:31:00     -272.005      -52.437       -6.341      142.746      103.368       57.770    20376.455    10684.962     3337.387        5.558        1.720      277.013       68.954        0.062      345.232       22.612      859.295
08/27/2013  22:32:00     -480.254      -27.697      -32.328      186.843      132.373       73.796    34910.295    17522.556     5445.853       14.516        2.894      481.052       77.363        0.026      345.247       22.638      859.297
08/27/2013  22:33:00     -448.181      -22.638      -25.427      147.367      142.548       67.354    21716.939    20319.876     4536.577       12.429        2.329      448.752       68.396        0.023      345.252       22.645      859.299
08/27/2013  22:34:00     -240.224       14.865      -10.326      135.736       91.424       60.922    18424.232     8358.329     3711.444        4.426        1.525      240.684       70.931        0.087      345.176       22.517      859.305
08/27/2013  22:35:00     -184.592      -73.247        3.108      120.694      115.631       59.612    14567.111    13370.515     3553.536        3.546        1.575      198.594       62.801        0.100      345.151       22.474      859.308
08/27/2013  22:36:00     -145.366       -1.834        5.987      113.717       86.589       53.522    12931.499     7497.665     2864.653        2.223        1.165      145.378       44.072        0.092      345.133       22.444      859.301
08/27/2013  22:37:00     -321.143        1.931       -3.084      151.039      102.531       70.237    22812.777    10512.679     4933.179        7.069        1.913      321.148       73.687        0.053      345.103       22.391      859.338
08/27/2013  22:38:00     -311.969      -28.579      -14.582      141.989       72.266       60.706    20160.949     5222.418     3685.238        6.371        1.453      313.275       66.711        0.045      345.148       22.469      859.362
08/27/2013  22:39:00     -161.018        8.451        5.848      116.817       77.783       47.894    13646.179     6050.189     2293.871        2.401        1.100      161.239       54.872        0.116      345.102       22.390      859.352
08/27/2013  22:40:00     -190.577      -86.337       10.298      120.276      105.574       65.939    14466.288    11145.824     4347.978        3.691        1.498      209.221       54.114        0.067      345.096       22.381      859.294
08/27/2013  22:41:00     -352.449     -133.217      -12.482      131.385       99.561       64.941    17262.051     9912.335     4217.282        8.675        1.570      376.785       57.608        0.023      345.078       22.349      859.295
08/27/2013  22:42:00     -355.539     -107.120      -17.287      123.935      124.267       67.666    15359.952    15442.256     4578.676        8.677        1.769      371.325       51.803        0.019      345.106       22.397      859.303
08/27/2013  22:43:00     -346.008      -89.246      -13.288      116.127      140.498       53.694    13485.405    19739.581     2883.072        8.198        1.805      357.332       45.491        0.016      345.160       22.487      859.323
08/27/2013  22:44:00     -273.968      -27.543       -0.207      124.538      109.023       61.578    15509.728    11886.086     3791.850        5.350        1.559      275.349       56.164        0.042      345.098       22.383      859.333
08/27/2013  22:45:00     -279.389      -72.818       -1.395      125.505       92.371       50.603    15751.586     8532.360     2560.679        5.510        1.342      288.722       48.535        0.028      345.074       22.342      859.384
08/27/2013  22:46:00     -183.081     -264.118      -10.146       94.573      119.795       53.961     8944.056    14350.879     2911.831        6.479        1.310      321.367       60.275        0.035      345.175       22.513      859.362
08/27/2013  22:47:00     -301.218     -100.657      -21.305      118.651      101.817       54.758    14078.093    10366.666     2998.417        6.438        1.372      317.591       61.068        0.037      345.106       22.396      859.351
08/27/2013  22:48:00     -186.307      -39.059        1.235      124.842       89.033       55.908    15585.494     7926.828     3125.756        3.143        1.332      190.357       61.769        0.105      345.029       22.266      859.339
08/27/2013  22:49:00     -208.718      -72.799       -4.893      124.373       77.740       52.556    15468.535     6043.573     2762.128        3.658        1.214      221.050       49.650        0.050      345.053       22.305      859.318
08/27/2013  22:50:00     -443.882      -84.470      -11.325      163.329      108.451       74.853    26676.456    11761.528     5602.953       12.416        2.202      451.847       81.851        0.033      345.091       22.370      859.365
08/27/2013  22:51:00     -386.873     -102.391      -13.626      135.268      135.699       69.704    18297.553    18414.135     4858.697       10.095        2.079      400.193       60.318        0.023      345.080       22.352      859.385
08/27/2013  22:52:00     -273.072      -54.238       -1.041      179.593      125.844       68.267    32253.504    15836.686     4660.431        6.512        2.638      278.407       82.421        0.088      345.052       22.305      859.400
08/27/2013  22:53:00     -200.924      -61.068        5.614      149.887      128.165       64.433    22465.995    16426.334     4151.570        4.358        2.152      210.000       54.326        0.067      345.030       22.268      859.386
08/27/2013  22:54:00     -279.314      -88.188      -15.548      136.074      112.316       69.164    18516.073    12614.839     4783.629        6.097        1.796      292.905       70.704        0.058      345.071       22.336      859.403
08/27/2013  22:55:00     -193.944      -39.582        1.395      126.472      121.628       62.961    15995.041    14793.332     3964.109        3.696        1.738      197.942       61.833        0.098      345.026       22.260      859.401
08/27/2013  22:56:00     -295.113      -35.012      -23.523      133.421      113.972       58.208    17801.256    12989.557     3388.121        6.152        1.709      297.182       58.070        0.038      345.040       22.284      859.418
08/27/2013  22:57:00     -251.451     -131.728       -7.301      138.456      123.840       64.655    19170.100    15336.430     4180.284        5.965        1.934      283.866       68.002        0.057      345.057       22.314      859.398
08/27/2013  22:58:00     -328.919       -8.281       -9.451      208.018      149.640       73.642    43271.628    22392.021     5423.185        8.970        3.554      329.023       95.765        0.085      345.024       22.258      859.388
08/27/2013  22:59:00     -307.557      -57.585      -12.896      138.380      147.515       47.905    19148.891    21760.763     2294.872        7.063        2.160      312.902       36.149        0.013      345.016       22.243      859.411
08/27/2013  23:00:00     -263.794     -132.062      -12.248      104.651      102.467       53.492    10951.795    10499.399     2861.412        5.574        1.216      295.004       48.193        0.027      345.042       22.287      859.445
08/27/2013  23:01:00     -254.228     -103.892      -12.639      135.269       99.387       61.779    18297.682     9877.710     3816.614        5.378        1.600      274.637       73.527        0.072      345.022       22.255      859.460
08/27/2013  23:02:00     -254.205      -84.445       -9.618      119.843      106.968       49.200    14362.422    11442.087     2420.596        5.003        1.411      267.864       65.282        0.059      344.984       22.189      859.456
08/27/2013  23:03:00     -312.117      -70.367       -6.664      239.629      121.442       86.379    57421.978    14748.191     7461.300        9.101        3.982      319.951      121.310        0.144      345.050       22.299      859.419
08/27/2013  23:04:00     -229.745      -89.728       -5.353       98.908      100.074       53.612     9782.708    10014.897     2874.198        4.176        1.134      246.646       50.817        0.042      345.026       22.261      859.418
08/27/2013  23:05:00     -313.572     -138.601        3.592      176.474      133.825       68.119    31143.102    17909.076     4640.162        8.561        2.685      342.837       79.363        0.054      344.999       22.213      859.391
08/27/2013  23:06:00     -132.090      -23.311       11.859      121.485       82.811       52.865    14758.508     6857.666     2794.735        2.127        1.221      134.131       58.872        0.193      344.952       22.133      859.396
08/27/2013  23:07:00     -301.548      -49.360      -23.865      155.969      119.224       75.759    24326.234    14214.470     5739.410        6.910        2.214      305.561       85.425        0.078      344.973       22.169      859.416
08/27/2013  23:08:00     -158.016      -87.337       16.795      120.341       76.947       57.933    14481.948     5920.863     3356.181        2.831        1.188      180.546       60.051        0.111      344.957       22.144      859.426
08/27/2013  23:09:00     -321.747     -107.675      -13.864       99.590      109.179       54.909     9918.254    11920.128     3014.973        7.008        1.243      339.286       46.819        0.019      344.990       22.198      859.452
08/27/2013  23:10:00     -281.657       -8.821       -1.511      220.506      129.328       80.815    48623.100    16725.618     6531.018        7.563        3.594      281.795       91.053        0.104      344.977       22.175      859.444
08/27/2013  23:11:00     -406.186     -134.456       -3.681      169.717      123.152       78.451    28803.944    15166.350     6154.628       11.659        2.506      427.862       80.592        0.035      345.023       22.253      859.455
08/27/2013  23:12:00     -216.353       -7.813       13.224      189.421      107.230       78.666    35880.371    11498.288     6188.397        5.030        2.678      216.494       90.999        0.177      344.983       22.188      859.482
08/27/2013  23:13:00     -263.882       25.458       -7.536      132.929       96.247       59.265    17670.191     9263.389     3512.339        5.039        1.522      265.107       59.934        0.051      344.987       22.193      859.481
08/27/2013  23:14:00     -165.297      -34.232       -9.448      125.218       94.961       57.532    15679.451     9017.603     3309.909        2.829        1.400      168.805       66.237        0.154      344.981       22.184      859.471
08/27/2013  23:15:00     -332.678      -79.903       -4.259      159.627      121.654       62.426    25480.820    14799.708     3896.966        8.062        2.209      342.139       58.473        0.029      344.972       22.166      859.468
08/27/2013  23:16:00     -346.776      -21.829      -12.020      223.563      144.953       75.645    49980.295    21011.406     5722.143        9.878        3.836      347.463       96.211        0.077      344.970       22.165      859.478
08/27/2013  23:17:00     -324.375       -9.562      -15.171      187.989       94.474       72.526    35339.877     8925.406     5259.967        7.752        2.476      324.516       84.039        0.067      344.982       22.186      859.494
08/27/2013  23:18:00     -343.646     -142.250      -31.352      178.195      107.780       61.030    31753.389    11616.488     3724.710        9.319        2.355      371.925       66.132        0.032      345.006       22.227      859.530
08/27/2013  23:19:00     -210.434     -120.421       -1.726      144.393       88.342       56.343    20849.415     7804.267     3174.532        4.530        1.591      242.454       45.375        0.035      344.998       22.211      859.527
08/27/2013  23:20:00     -215.879      -44.034       -4.897       79.640       81.336       38.464     6342.525     6615.571     1479.468        3.150        0.722      220.324       35.197        0.026      344.936       22.106      859.551
08/27/2013  23:21:00     -325.165      -25.862      -16.366      226.488      163.863       69.035    51296.887    26851.129     4765.806        9.477        4.146      326.191       88.361        0.073      344.962       22.150      859.544
08/27/2013  23:22:00     -236.380      -94.463       -3.365      110.966       90.926       55.211    12313.557     8267.570     3048.268        4.422        1.181      254.556       55.207        0.047      344.916       22.070      859.565
08/27/2013  23:23:00     -256.304      -64.754      -13.806      135.883       72.500       55.807    18464.253     5256.285     3114.366        4.845        1.342      264.357       62.066        0.055      344.894       22.035      859.582
08/27/2013  23:24:00     -169.791        0.366        8.394      128.990       69.505       60.298    16638.459     4830.896     3635.798        2.700        1.255      169.791       67.063        0.156      344.876       22.004      859.577
08/27/2013  23:25:00     -270.618       -6.690      -11.195      134.052       99.909       60.513    17969.932     9981.797     3661.773        5.250        1.581      270.700       62.865        0.054      344.912       22.065      859.556
08/27/2013  23:26:00     -344.313     -124.093        7.157      173.839      144.274       85.661    30219.845    20815.017     7337.859        9.618        2.919      365.993       83.971        0.053      344.882       22.012      859.550
08/27/2013  23:27:00     -417.977      -83.869      -15.368      144.243      115.092       72.067    20806.152    13246.107     5193.643       11.060        1.962      426.308       74.889        0.031      344.891       22.029      859.589
08/27/2013  23:28:00     -263.812      -72.637      -10.206      113.789       76.293       52.370    12947.974     5820.599     2742.616        4.824        1.076      273.629       54.852        0.040      344.848       21.956      859.588
08/27/2013  23:29:00     -340.468      -48.198      -18.107      100.866       74.449       54.460    10173.939     5542.612     2965.905        6.862        0.934      343.863       50.827        0.022      344.839       21.939      859.571
08/27/2013  23:30:00     -435.651      -73.758      -22.463      215.736      171.259       84.789    46541.958    29329.542     7189.152       13.938        4.153      441.851      104.863        0.056      344.831       21.925      859.549
08/27/2013  23:31:00     -366.146      -96.201       -1.615      175.346      128.045       73.882    30746.347    16395.442     5458.601        9.795        2.630      378.573       71.408        0.036      344.850       21.956      859.538
08/27/2013  23:32:00     -407.534     -104.680      -30.084      143.708      126.123       70.370    20651.907    15907.034     4951.929       10.972        2.076      420.764       67.727        0.026      344.845       21.949      859.530
08/27/2013  23:33:00     -306.761      -88.932       -9.347      160.820      107.468       65.677    25862.941    11549.461     4313.487        7.190        2.086      319.392       78.696        0.061      344.828       21.920      859.541
08/27/2013  23:34:00     -386.000      -50.283      -25.003      118.739       99.167       68.183    14099.025     9834.142     4648.979        9.036        1.429      389.261       65.548        0.028      344.829       21.923      859.566
08/27/2013  23:35:00     -260.058      -50.027        6.030      136.495      101.633       62.546    18630.944    10329.173     3912.053        5.151        1.644      264.826       65.680        0.062      344.803       21.878      859.599
08/27/2013  23:36:00     -351.674      -83.155      -15.198      147.132      108.722       60.383    21647.863    11820.458     3646.097        8.396        1.856      361.372       59.150        0.027      344.843       21.946      859.616
08/27/2013  23:37:00     -240.444      -68.575       -6.607      102.650       74.177       50.706    10536.950     5502.301     2571.095        4.058        0.931      250.031       43.200        0.030      344.808       21.885      859.635
08/27/2013  23:38:00     -230.776      -56.282        2.329      112.261       92.021       57.028    12602.516     8467.811     3252.236        4.037        1.216      237.540       66.537        0.078      344.780       21.836      859.630
08/27/2013  23:39:00     -294.368       52.544      -26.064       83.081       69.384       47.059     6902.426     4814.073     2214.518        5.201        0.697      299.021       32.975        0.012      344.805       21.882      859.610
08/27/2013  23:40:00     -120.694      -10.954        1.843       84.365       73.447       51.829     7117.391     5394.394     2686.210        1.494        0.760      121.190       51.548        0.181      344.741       21.772      859.580
08/27/2013  23:41:00     -177.695      -39.326        4.689      123.832       86.483       41.673    15334.468     7479.228     1736.597        2.884        1.228      181.994       52.272        0.082      344.722       21.740      859.568
08/27/2013  23:42:00     -230.660      -42.164       -4.410      113.897       85.938       45.640    12972.619     7385.342     2083.039        3.872        1.122      234.482       46.232        0.039      344.724       21.743      859.565
08/27/2013  23:43:00     -143.123      -91.922        3.558      119.442       87.811       56.750    14266.345     7710.792     3220.594        2.707        1.260      170.100       65.442        0.148      344.721       21.739      859.547
08/27/2013  23:44:00     -110.839        9.941       -2.058       96.840       92.946       42.026     9377.938     8638.971     1766.174        1.608        0.989      111.284       46.366        0.174      344.682       21.672      859.534
08/27/2013  23:45:00     -136.950      -66.530       -7.416      119.152       61.184       50.270    14197.218     3743.535     2527.070        2.185        1.023      152.255       58.310        0.147      344.702       21.705      859.543
08/27/2013  23:46:00     -143.207      -39.774       -1.367       59.428       64.308       36.456     3531.727     4135.488     1329.076        1.554        0.450      148.628       27.269        0.034      344.653       21.624      859.541
08/27/2013  23:47:00     -191.174      -54.983       -7.602       87.392       69.420       48.912     7637.420     4819.180     2392.389        2.724        0.742      198.924       48.646        0.060      344.673       21.655      859.523
08/27/2013  23:48:00     -327.025      -74.258       -7.315      117.205       74.209       49.553    13737.109     5506.908     2455.452        6.710        1.085      335.350       56.186        0.028      344.674       21.657      859.500
08/27/2013  23:49:00     -272.955      -93.712       -4.830      110.739       88.184       52.581    12263.173     7776.441     2764.758        5.305        1.140      288.594       49.675        0.030      344.670       21.650      859.497
08/27/2013  23:50:00     -230.965      -36.953       -9.294       97.684       82.423       45.940     9542.159     6793.582     2110.510        3.662        0.922      233.902       51.280        0.048      344.672       21.653      859.493
08/27/2013  23:51:00     -312.210      -89.144       -2.787      147.153       88.702       55.209    21654.080     7868.086     3048.039        6.899        1.629      324.687       67.318        0.043      344.695       21.693      859.488
08/27/2013  23:52:00     -171.247      -38.637       -5.937      100.723       77.938       46.291    10145.173     6074.318     2142.836        2.460        0.918      175.552       54.672        0.097      344.645       21.609      859.491
08/27/2013  23:53:00      -92.327      -64.054        4.814       84.585       55.786       33.020     7154.562     3112.089     1090.310        1.200        0.568      112.371       25.728        0.052      344.622       21.571      859.502
08/27/2013  23:54:00      -85.566       -7.108       11.100       73.864       68.080       35.710     5455.842     4634.818     1275.205        0.943        0.568       85.861       39.764        0.214      344.569       21.482      859.502
08/27/2013  23:55:00     -197.549       -7.585      -12.094       78.688       45.696       43.309     6191.813     2088.090     1875.692        2.469        0.508      197.695       38.232        0.037      344.616       21.559      859.487
08/27/2013  23:56:00     -287.963       -8.190      -21.370       99.642       92.087       46.650     9928.543     8480.043     2176.263        5.201        1.029      288.080       44.834        0.024      344.658       21.629      859.457
08/27/2013  23:57:00     -243.823      -69.649        1.196      109.342      105.465       55.917    11955.671    11122.838     3126.670        4.525        1.310      253.575       52.232        0.042      344.634       21.587      859.430
08/27/2013  23:58:00     -259.199      -47.936      -16.473      103.862       79.353       37.116    10787.323     6296.904     1377.566        4.410        0.923      263.594       40.694        0.024      344.619       21.563      859.424
08/27/2013  23:59:00     -182.697      -19.136        8.475      102.799       95.195       48.217    10567.555     9062.059     2324.854        2.788        1.098      183.696       45.500        0.061      344.576       21.490      859.424
